Darstellungsparameter: Aktuell verwendete Einstellungen:
Skalierung der Graphiken ... ?
xyx+y,   Skalierungsfaktor:      Skalierung: Modus: x, Faktor: 1
Darstellungszeitraum ... ?
Vom - - bis: - -   Zeitraum: 28.03.2020 - 27.09.2020
Min/Max/Avg-Anzeige ... ?
Zeige MMA aktuell
Zeige MMA Monat
Zeige MMA alles
Zeige --A aktuell
Zeige --A Monat
Zeige --A alles
Keine MMA-Anzeige
MMA:
Minimum Maximum Average (ber die Originaldaten)
MMA-Basis: 28.03.2020 - 27.09.2020
Quicknavigation für Darstellung... ?
Tage:      1T, 2T, 3T, 5T -1T -2T -3T -5T +1T +2T +3T +5T
Wochen: 1W, 2W, 3W -1W -2W -3W +1W +2W +3W
Monate: 1M, 3M, 6M -1M -3M -6M +1M +3M +6M
Jahre:    1J, 3J, 5J, 10J -1J -3J -5J -10J +1J +3J +5J +10J
Nutze für die Darstellung ... ?
Originaldaten oder Mittelwerte auf ...
Stundenbasis Tagesbasis Wochenbasis
Monatsbasis Jahresbasis      Datenbasis: Original-Daten
Darstellen als:
Statistik (Auto) Statistik J:M      Darstellung:
Zur Graphik,    zurück zur Übersicht aller Sensoren.
 
Tabellarische Datenbersicht: ?
 
Sensor: Nr:Datum:Temp:Abs-Feuchte:Windchill:Wind:
Aussen-T/F 1 28-03-2020 00:00:00 5.8 C 5.8 g/m*3 5.8 C 0 km/h
2 28-03-2020 00:05:00 5.7 C 5.84 g/m*3 5.7 C 0 km/h
3 28-03-2020 00:10:00 5.7 C 5.84 g/m*3 5.7 C 0 km/h
4 28-03-2020 00:15:00 5.6 C 5.8 g/m*3 5.6 C 0 km/h
5 28-03-2020 00:20:00 5.6 C 5.87 g/m*3 5.6 C 0 km/h
6 28-03-2020 00:25:00 5.6 C 5.87 g/m*3 5.6 C 0 km/h
7 28-03-2020 00:30:00 5.6 C 5.87 g/m*3 5.6 C 0 km/h
8 28-03-2020 00:35:00 5.7 C 5.91 g/m*3 5.7 C 0 km/h
9 28-03-2020 00:40:00 5.7 C 5.84 g/m*3 5.7 C 0 km/h
10 28-03-2020 00:45:00 5.7 C 5.84 g/m*3 5.7 C 0 km/h
11 28-03-2020 00:50:00 5.7 C 5.84 g/m*3 5.7 C 0 km/h
12 28-03-2020 00:55:00 5.6 C 5.8 g/m*3 5.6 C 0 km/h
13 28-03-2020 01:00:00 5.6 C 5.8 g/m*3 5.6 C 0 km/h
14 28-03-2020 01:05:00 5.4 C 5.72 g/m*3 5.4 C 0 km/h
15 28-03-2020 01:10:00 5.4 C 5.79 g/m*3 5.4 C 0 km/h
16 28-03-2020 01:15:00 5.3 C 5.75 g/m*3 5.3 C 0 km/h
17 28-03-2020 01:20:00 5.2 C 5.71 g/m*3 5.2 C 0 km/h
18 28-03-2020 01:25:00 5.1 C 5.68 g/m*3 5.1 C 0 km/h
19 28-03-2020 01:30:00 5 C 5.71 g/m*3 5 C 0 km/h
20 28-03-2020 01:35:00 4.9 C 5.67 g/m*3 4.9 C 0 km/h
21 28-03-2020 01:40:00 4.8 C 5.63 g/m*3 4.8 C 0 km/h
22 28-03-2020 01:45:00 4.8 C 5.63 g/m*3 4.8 C 0 km/h
23 28-03-2020 01:50:00 4.7 C 5.66 g/m*3 4.7 C 0 km/h
24 28-03-2020 01:55:00 4.7 C 5.66 g/m*3 4.7 C 0 km/h
25 28-03-2020 02:00:00 4.6 C 5.62 g/m*3 4.6 C 0 km/h
Sensor: Nr:Datum:Temp:Abs-Feuchte:Windchill:Wind:
Aussen-T/F 26 28-03-2020 02:05:00 4.5 C 5.59 g/m*3 4.5 C 0 km/h
27 28-03-2020 02:10:00 4.4 C 5.55 g/m*3 4.4 C 0 km/h
28 28-03-2020 02:15:00 4.3 C 5.51 g/m*3 4.3 C 0 km/h
29 28-03-2020 02:20:00 4.3 C 5.58 g/m*3 4.3 C 0 km/h
30 28-03-2020 02:25:00 4.3 C 5.58 g/m*3 4.3 C 0 km/h
31 28-03-2020 02:30:00 4.2 C 5.61 g/m*3 4.2 C 0 km/h
32 28-03-2020 02:35:00 4.3 C 5.64 g/m*3 4.3 C 0 km/h
33 28-03-2020 02:40:00 4.3 C 5.64 g/m*3 4.3 C 0 km/h
34 28-03-2020 02:45:00 4.3 C 5.64 g/m*3 4.3 C 0 km/h
35 28-03-2020 02:50:00 4.3 C 5.64 g/m*3 4.3 C 0 km/h
36 28-03-2020 02:55:00 4.3 C 5.58 g/m*3 4.3 C 0 km/h
37 28-03-2020 03:00:00 4.2 C 5.54 g/m*3 4.2 C 0 km/h
38 28-03-2020 03:05:00 4.2 C 5.61 g/m*3 4.2 C 0 km/h
39 28-03-2020 03:10:00 4.1 C 5.57 g/m*3 4.1 C 0 km/h
40 28-03-2020 03:15:00 4.1 C 5.57 g/m*3 4.1 C 0 km/h
41 28-03-2020 03:20:00 3.9 C 5.49 g/m*3 3.9 C 0 km/h
42 28-03-2020 03:25:00 3.9 C 5.49 g/m*3 3.9 C 0 km/h
43 28-03-2020 03:30:00 3.8 C 5.46 g/m*3 3.8 C 0 km/h
44 28-03-2020 03:35:00 3.7 C 5.42 g/m*3 3.7 C 0 km/h
45 28-03-2020 03:40:00 3.5 C 5.35 g/m*3 3.5 C 0 km/h
46 28-03-2020 03:45:00 3.3 C 5.28 g/m*3 3.3 C 0 km/h
47 28-03-2020 03:50:00 3.2 C 5.3 g/m*3 3.2 C 0 km/h
48 28-03-2020 03:55:00 3.1 C 5.27 g/m*3 3.1 C 0 km/h
49 28-03-2020 04:00:00 3 C 5.23 g/m*3 3 C 0 km/h
50 28-03-2020 04:05:00 2.9 C 5.26 g/m*3 2.9 C 0 km/h
Sensor: Nr:Datum:Temp:Abs-Feuchte:Windchill:Wind:
Aussen-T/F 51 28-03-2020 04:10:00 3 C 5.29 g/m*3 3 C 0 km/h
52 28-03-2020 04:15:00 3 C 5.29 g/m*3 3 C 0 km/h
53 28-03-2020 04:20:00 2.9 C 5.26 g/m*3 2.9 C 0 km/h
54 28-03-2020 04:25:00 2.8 C 5.22 g/m*3 2.8 C 0 km/h
55 28-03-2020 04:30:00 2.7 C 5.19 g/m*3 2.7 C 0 km/h
56 28-03-2020 04:35:00 2.7 C 5.19 g/m*3 2.7 C 0 km/h
57 28-03-2020 04:40:00 2.6 C 5.21 g/m*3 2.6 C 0 km/h
58 28-03-2020 04:45:00 2.5 C 5.17 g/m*3 2.5 C 0 km/h
59 28-03-2020 04:50:00 2.6 C 5.21 g/m*3 2.6 C 0 km/h
60 28-03-2020 04:55:00 2.6 C 5.27 g/m*3 2.6 C 0 km/h
61 28-03-2020 05:00:00 2.7 C 5.3 g/m*3 2.7 C 0 km/h
62 28-03-2020 05:05:00 2.6 C 5.27 g/m*3 2.6 C 0 km/h
63 28-03-2020 05:10:00 2.6 C 5.27 g/m*3 2.6 C 0 km/h
64 28-03-2020 05:15:00 2.6 C 5.27 g/m*3 2.6 C 0 km/h
65 28-03-2020 05:20:00 2.4 C 5.14 g/m*3 2.4 C 0 km/h
66 28-03-2020 05:25:00 2.3 C 5.1 g/m*3 2.3 C 0 km/h
67 28-03-2020 05:30:00 2.2 C 5.07 g/m*3 2.2 C 0 km/h
68 28-03-2020 05:35:00 2.1 C 5.09 g/m*3 2.1 C 0 km/h
69 28-03-2020 05:40:00 2.1 C 5.09 g/m*3 2.1 C 0 km/h
70 28-03-2020 05:45:00 2 C 5.06 g/m*3 2 C 0 km/h
71 28-03-2020 05:50:00 2.1 C 5.09 g/m*3 2.1 C 0 km/h
72 28-03-2020 05:55:00 2.1 C 5.15 g/m*3 2.1 C 0 km/h
73 28-03-2020 06:00:00 2.1 C 5.15 g/m*3 2.1 C 0 km/h
74 28-03-2020 06:05:00 2 C 5.11 g/m*3 2 C 0 km/h
75 28-03-2020 06:10:00 1.9 C 5.02 g/m*3 1.9 C 0 km/h
Sensor: Nr:Datum:Temp:Abs-Feuchte:Windchill:Wind:
Aussen-T/F 76 28-03-2020 06:15:00 1.9 C 5.08 g/m*3 1.9 C 0 km/h
77 28-03-2020 06:20:00 1.9 C 5.08 g/m*3 1.9 C 0 km/h
78 28-03-2020 06:25:00 1.8 C 5.04 g/m*3 1.8 C 0 km/h
79 28-03-2020 06:30:00 1.8 C 5.04 g/m*3 1.8 C 0 km/h
80 28-03-2020 06:35:00 1.8 C 5.04 g/m*3 1.8 C 0 km/h
81 28-03-2020 06:40:00 1.8 C 5.04 g/m*3 1.8 C 0 km/h
82 28-03-2020 06:45:00 1.8 C 5.04 g/m*3 1.8 C 0 km/h
83 28-03-2020 06:50:00 1.8 C 5.04 g/m*3 1.8 C 0 km/h
84 28-03-2020 06:55:00 1.8 C 5.1 g/m*3 1.8 C 0 km/h
85 28-03-2020 07:00:00 1.9 C 5.13 g/m*3 1.9 C 0 km/h
86 28-03-2020 07:05:00 2 C 5.17 g/m*3 2 C 0 km/h
87 28-03-2020 07:10:00 2.1 C 5.2 g/m*3 2.1 C 0 km/h
88 28-03-2020 07:15:00 2.3 C 5.33 g/m*3 2.3 C 0 km/h
89 28-03-2020 07:20:00 2.4 C 5.31 g/m*3 2.4 C 0 km/h
90 28-03-2020 07:25:00 2.5 C 5.35 g/m*3 2.5 C 0 km/h
91 28-03-2020 07:30:00 2.6 C 5.38 g/m*3 2.6 C 0 km/h
92 28-03-2020 07:35:00 2.6 C 5.38 g/m*3 2.6 C 0 km/h
93 28-03-2020 07:40:00 2.6 C 5.38 g/m*3 2.6 C 0 km/h
94 28-03-2020 07:45:00 2.6 C 5.38 g/m*3 2.6 C 0 km/h
95 28-03-2020 07:50:00 2.7 C 5.42 g/m*3 2.7 C 0 km/h
96 28-03-2020 07:55:00 2.7 C 5.42 g/m*3 2.7 C 0 km/h
97 28-03-2020 08:00:00 2.8 C 5.46 g/m*3 2.8 C 0 km/h
98 28-03-2020 08:05:00 2.8 C 5.46 g/m*3 2.8 C 0 km/h
99 28-03-2020 08:10:00 2.9 C 5.49 g/m*3 2.9 C 0 km/h
100 28-03-2020 08:15:00 3 C 5.53 g/m*3 3 C 0 km/h
Sensor: Nr:Datum:Temp:Abs-Feuchte:Windchill:Wind:
Aussen-T/F 101 28-03-2020 08:20:00 3.2 C 5.6 g/m*3 3.2 C 0 km/h
102 28-03-2020 08:25:00 3.3 C 5.64 g/m*3 3.3 C 0 km/h
103 28-03-2020 08:30:00 3.4 C 5.68 g/m*3 3.4 C 0 km/h
104 28-03-2020 08:35:00 3.6 C 5.76 g/m*3 3.6 C 0 km/h
105 28-03-2020 08:40:00 3.7 C 5.8 g/m*3 3.7 C 0 km/h
106 28-03-2020 08:45:00 3.9 C 5.87 g/m*3 3.9 C 0 km/h
107 28-03-2020 08:50:00 4.1 C 5.95 g/m*3 4.1 C 0 km/h
108 28-03-2020 08:55:00 4.2 C 5.99 g/m*3 4.2 C 0 km/h
109 28-03-2020 09:00:00 4.5 C 6.11 g/m*3 4.5 C 0 km/h
110 28-03-2020 09:05:00 4.7 C 6.19 g/m*3 4.7 C 0 km/h
111 28-03-2020 09:10:00 5 C 6.32 g/m*3 5 C 0 km/h
112 28-03-2020 09:15:00 5.3 C 6.45 g/m*3 5.3 C 0 km/h
113 28-03-2020 09:20:00 5.6 C 6.5 g/m*3 5.6 C 0 km/h
114 28-03-2020 09:25:00 5.8 C 6.59 g/m*3 5.8 C 0 km/h
115 28-03-2020 09:30:00 6.2 C 6.69 g/m*3 6.2 C 0 km/h
116 28-03-2020 09:35:00 6.4 C 6.71 g/m*3 6.4 C 0 km/h
117 28-03-2020 09:40:00 6.8 C 6.81 g/m*3 6.8 C 0 km/h
118 28-03-2020 09:45:00 7.1 C 6.86 g/m*3 7.1 C 0 km/h
119 28-03-2020 09:50:00 7.4 C 6.84 g/m*3 7.4 C 0 km/h
120 28-03-2020 09:55:00 7.8 C 6.94 g/m*3 7.8 C 0 km/h
121 28-03-2020 10:00:00 8.2 C 6.95 g/m*3 8.2 C 0 km/h
122 28-03-2020 10:05:00 8.6 C 6.96 g/m*3 8.6 C 0 km/h
123 28-03-2020 10:10:00 8.9 C 6.92 g/m*3 8.9 C 0 km/h
124 28-03-2020 10:15:00 9.2 C 6.97 g/m*3 9.2 C 0 km/h
125 28-03-2020 10:20:00 9.4 C 6.78 g/m*3 9.4 C 1.6 km/h
Sensor: Nr:Datum:Temp:Abs-Feuchte:Windchill:Wind:
Aussen-T/F 126 28-03-2020 10:25:00 9.8 C 6.87 g/m*3 9.8 C 0 km/h
127 28-03-2020 10:30:00 10.1 C 6.9 g/m*3 10.1 C 0 km/h
128 28-03-2020 10:35:00 10.3 C 6.9 g/m*3 10.3 C 0 km/h
129 28-03-2020 10:40:00 10.6 C 6.83 g/m*3 10.6 C 0 km/h
130 28-03-2020 10:45:00 10.8 C 6.82 g/m*3 10.8 C 1.6 km/h
131 28-03-2020 10:50:00 11.1 C 6.95 g/m*3 11.1 C 0 km/h
132 28-03-2020 10:55:00 11.3 C 7.04 g/m*3 11.3 C 1.6 km/h
133 28-03-2020 11:00:00 11.7 C 7.11 g/m*3 11.7 C 0 km/h
134 28-03-2020 11:05:00 12.1 C 7.08 g/m*3 12.1 C 1.6 km/h
135 28-03-2020 11:10:00 12.3 C 6.73 g/m*3 12.3 C 1.6 km/h
136 28-03-2020 11:15:00 12.7 C 7.12 g/m*3 12.7 C 1.6 km/h
137 28-03-2020 11:20:00 13.1 C 7.07 g/m*3 13.1 C 0 km/h
138 28-03-2020 11:25:00 13.3 C 6.93 g/m*3 13.3 C 3.2 km/h
139 28-03-2020 11:30:00 13.6 C 6.94 g/m*3 13.6 C 1.6 km/h
140 28-03-2020 11:35:00 13.8 C 6.91 g/m*3 13.8 C 1.6 km/h
141 28-03-2020 11:40:00 14.2 C 6.84 g/m*3 14.2 C 1.6 km/h
142 28-03-2020 11:45:00 14.4 C 6.92 g/m*3 14.4 C 1.6 km/h
143 28-03-2020 11:50:00 14.6 C 6.88 g/m*3 14.6 C 3.2 km/h
144 28-03-2020 11:55:00 14.8 C 6.71 g/m*3 14.8 C 1.6 km/h
145 28-03-2020 12:00:00 14.9 C 6.88 g/m*3 14.9 C 4.8 km/h
146 28-03-2020 12:05:00 15.2 C 6.75 g/m*3 15.2 C 3.2 km/h
147 28-03-2020 12:10:00 15.3 C 6.79 g/m*3 15.3 C 1.6 km/h
148 28-03-2020 12:15:00 15.6 C 6.65 g/m*3 15.6 C 0 km/h
149 28-03-2020 12:20:00 15.8 C 6.6 g/m*3 15.8 C 3.2 km/h
150 28-03-2020 12:25:00 16.1 C 6.58 g/m*3 16.1 C 6.4 km/h
Sensor: Nr:Datum:Temp:Abs-Feuchte:Windchill:Wind:
Aussen-T/F 151 28-03-2020 12:30:00 16.2 C 6.62 g/m*3 16.2 C 6.4 km/h
152 28-03-2020 12:35:00 16.4 C 6.84 g/m*3 16.4 C 4.8 km/h
153 28-03-2020 12:40:00 16.5 C 6.88 g/m*3 16.5 C 4.8 km/h
154 28-03-2020 12:45:00 16.7 C 6.68 g/m*3 16.7 C 3.2 km/h
155 28-03-2020 12:50:00 16.8 C 6.72 g/m*3 16.8 C 3.2 km/h
156 28-03-2020 12:55:00 16.9 C 6.76 g/m*3 16.9 C 6.4 km/h
157 28-03-2020 13:00:00 17 C 6.51 g/m*3 17 C 8.1 km/h
158 28-03-2020 13:05:00 17.2 C 6.44 g/m*3 17.2 C 6.4 km/h
159 28-03-2020 13:10:00 17.2 C 6.3 g/m*3 17.2 C 9.7 km/h
160 28-03-2020 13:15:00 17.3 C 6.63 g/m*3 17.3 C 6.4 km/h
161 28-03-2020 13:20:00 17.5 C 6.56 g/m*3 17.5 C 3.2 km/h
162 28-03-2020 13:25:00 17.7 C 6.49 g/m*3 17.7 C 3.2 km/h
163 28-03-2020 13:30:00 17.8 C 6.68 g/m*3 17.8 C 6.4 km/h
164 28-03-2020 13:35:00 17.9 C 6.57 g/m*3 17.9 C 8.1 km/h
165 28-03-2020 13:40:00 18 C 6.6 g/m*3 18 C 12.9 km/h
166 28-03-2020 13:45:00 18.1 C 6.64 g/m*3 18.1 C 12.9 km/h
167 28-03-2020 13:50:00 18.2 C 6.84 g/m*3 18.2 C 17.7 km/h
168 28-03-2020 13:55:00 18.1 C 6.8 g/m*3 18.1 C 17.7 km/h
169 28-03-2020 14:00:00 18.1 C 6.8 g/m*3 18.1 C 9.7 km/h
170 28-03-2020 14:05:00 18.2 C 6.84 g/m*3 18.2 C 9.7 km/h
171 28-03-2020 14:10:00 18.2 C 6.53 g/m*3 18.2 C 12.9 km/h
172 28-03-2020 14:15:00 18.2 C 6.53 g/m*3 18.2 C 8.1 km/h
173 28-03-2020 14:20:00 18.2 C 6.68 g/m*3 18.2 C 14.5 km/h
174 28-03-2020 14:25:00 18.2 C 6.68 g/m*3 18.2 C 11.3 km/h
175 28-03-2020 14:30:00 18.2 C 6.68 g/m*3 18.2 C 9.7 km/h
Sensor: Nr:Datum:Temp:Abs-Feuchte:Windchill:Wind:
Aussen-T/F 176 28-03-2020 14:35:00 18.3 C 6.72 g/m*3 18.3 C 9.7 km/h
177 28-03-2020 14:40:00 18.3 C 6.57 g/m*3 18.3 C 11.3 km/h
178 28-03-2020 14:45:00 18.3 C 6.72 g/m*3 18.3 C 11.3 km/h
179 28-03-2020 14:50:00 18.4 C 6.45 g/m*3 18.4 C 11.3 km/h
180 28-03-2020 14:55:00 18.4 C 6.45 g/m*3 18.4 C 11.3 km/h
181 28-03-2020 15:00:00 18.4 C 6.29 g/m*3 18.4 C 12.9 km/h
182 28-03-2020 15:05:00 18.6 C 6.21 g/m*3 18.6 C 14.5 km/h
183 28-03-2020 15:10:00 18.5 C 5.85 g/m*3 18.5 C 9.7 km/h
184 28-03-2020 15:15:00 18.4 C 5.82 g/m*3 18.4 C 8.1 km/h
185 28-03-2020 15:20:00 18.2 C 6.22 g/m*3 18.2 C 11.3 km/h
186 28-03-2020 15:25:00 18 C 6.45 g/m*3 18 C 14.5 km/h
187 28-03-2020 15:30:00 18.1 C 6.18 g/m*3 18.1 C 12.9 km/h
188 28-03-2020 15:35:00 18.1 C 6.49 g/m*3 18.1 C 16.1 km/h
189 28-03-2020 15:40:00 18.3 C 6.57 g/m*3 18.3 C 16.1 km/h
190 28-03-2020 15:45:00 18.5 C 6.33 g/m*3 18.5 C 12.9 km/h
191 28-03-2020 15:50:00 18.4 C 6.45 g/m*3 18.4 C 16.1 km/h
192 28-03-2020 15:55:00 18.4 C 6.61 g/m*3 18.4 C 20.9 km/h
193 28-03-2020 16:00:00 18.3 C 6.41 g/m*3 18.3 C 20.9 km/h
194 28-03-2020 16:05:00 18.2 C 6.37 g/m*3 18.2 C 14.5 km/h
195 28-03-2020 16:10:00 18.3 C 6.25 g/m*3 18.3 C 12.9 km/h
196 28-03-2020 16:15:00 18.4 C 6.29 g/m*3 18.4 C 12.9 km/h
197 28-03-2020 16:20:00 18.3 C 6.1 g/m*3 18.3 C 22.5 km/h
198 28-03-2020 16:25:00 18.2 C 5.91 g/m*3 18.2 C 22.5 km/h
199 28-03-2020 16:30:00 18.1 C 5.87 g/m*3 18.1 C 19.3 km/h
200 28-03-2020 16:35:00 17.9 C 5.65 g/m*3 17.9 C 22.5 km/h
Sensor: Nr:Datum:Temp:Abs-Feuchte:Windchill:Wind:
Aussen-T/F 201 28-03-2020 16:40:00 17.8 C 5.77 g/m*3 17.8 C 14.5 km/h
202 28-03-2020 16:45:00 17.8 C 5.46 g/m*3 17.8 C 14.5 km/h
203 28-03-2020 16:50:00 17.7 C 5.43 g/m*3 17.7 C 17.7 km/h
204 28-03-2020 16:55:00 17.6 C 5.4 g/m*3 17.6 C 14.5 km/h
205 28-03-2020 17:00:00 17.6 C 5.4 g/m*3 17.6 C 20.9 km/h
206 28-03-2020 17:05:00 17.5 C 5.22 g/m*3 17.5 C 16.1 km/h
207 28-03-2020 17:10:00 17.4 C 5.19 g/m*3 17.4 C 19.3 km/h
208 28-03-2020 17:15:00 17.3 C 5.16 g/m*3 17.3 C 22.5 km/h
209 28-03-2020 17:20:00 17 C 5.06 g/m*3 17 C 16.1 km/h
210 28-03-2020 17:25:00 16.9 C 5.03 g/m*3 16.9 C 14.5 km/h
211 28-03-2020 17:30:00 16.8 C 5 g/m*3 16.8 C 14.5 km/h
212 28-03-2020 17:35:00 16.6 C 4.94 g/m*3 16.6 C 22.5 km/h
213 28-03-2020 17:40:00 16.4 C 4.89 g/m*3 16.4 C 11.3 km/h
214 28-03-2020 17:45:00 16.3 C 4.99 g/m*3 16.3 C 11.3 km/h
215 28-03-2020 17:50:00 16.2 C 4.96 g/m*3 16.2 C 11.3 km/h
216 28-03-2020 17:55:00 15.9 C 4.74 g/m*3 15.9 C 16.1 km/h
217 28-03-2020 18:00:00 15.7 C 4.82 g/m*3 15.7 C 14.5 km/h
218 28-03-2020 18:05:00 15.5 C 4.89 g/m*3 15.5 C 11.3 km/h
219 28-03-2020 18:10:00 15.3 C 4.7 g/m*3 15.3 C 14.5 km/h
220 28-03-2020 18:15:00 15.1 C 4.9 g/m*3 15.1 C 14.5 km/h
221 28-03-2020 18:20:00 14.9 C 4.97 g/m*3 14.9 C 11.3 km/h
222 28-03-2020 18:25:00 14.7 C 5.04 g/m*3 14.7 C 12.9 km/h
223 28-03-2020 18:30:00 14.4 C 5.07 g/m*3 14.4 C 6.4 km/h
224 28-03-2020 18:35:00 14.2 C 5.01 g/m*3 14.2 C 16.1 km/h
225 28-03-2020 18:40:00 13.9 C 5.04 g/m*3 13.9 C 8.1 km/h
Sensor: Nr:Datum:Temp:Abs-Feuchte:Windchill:Wind:
Aussen-T/F 226 28-03-2020 18:45:00 13.7 C 4.97 g/m*3 13.7 C 11.3 km/h
227 28-03-2020 18:50:00 13.6 C 5.06 g/m*3 13.6 C 14.5 km/h
228 28-03-2020 18:55:00 13.3 C 5.08 g/m*3 13.3 C 8.1 km/h
229 28-03-2020 19:00:00 13.2 C 5.05 g/m*3 13.2 C 14.5 km/h
230 28-03-2020 19:05:00 13 C 5.1 g/m*3 13 C 11.3 km/h
231 28-03-2020 19:10:00 12.8 C 5.15 g/m*3 12.8 C 9.7 km/h
232 28-03-2020 19:15:00 12.7 C 5.12 g/m*3 12.7 C 11.3 km/h
233 28-03-2020 19:20:00 12.5 C 5.06 g/m*3 12.5 C 12.9 km/h
234 28-03-2020 19:25:00 12.4 C 5.14 g/m*3 12.4 C 8.1 km/h
235 28-03-2020 19:30:00 12.2 C 5.07 g/m*3 12.2 C 8.1 km/h
236 28-03-2020 19:35:00 12.1 C 5.15 g/m*3 12.1 C 12.9 km/h
237 28-03-2020 19:40:00 12 C 5.01 g/m*3 12 C 11.3 km/h
238 28-03-2020 19:45:00 11.9 C 4.98 g/m*3 11.9 C 14.5 km/h
239 28-03-2020 19:50:00 11.8 C 5.05 g/m*3 11.8 C 6.4 km/h
240 28-03-2020 19:55:00 11.7 C 5.02 g/m*3 11.7 C 8.1 km/h
241 28-03-2020 20:00:00 11.6 C 5.09 g/m*3 11.6 C 11.3 km/h
242 28-03-2020 20:05:00 11.4 C 5.03 g/m*3 11.4 C 4.8 km/h
243 28-03-2020 20:10:00 11.4 C 5.03 g/m*3 11.4 C 6.4 km/h
244 28-03-2020 20:15:00 11.3 C 5.1 g/m*3 11.3 C 6.4 km/h
245 28-03-2020 20:20:00 11.2 C 5.07 g/m*3 11.2 C 11.3 km/h
246 28-03-2020 20:25:00 11.2 C 5.17 g/m*3 11.2 C 4.8 km/h
247 28-03-2020 20:30:00 11.1 C 5.14 g/m*3 11.1 C 9.7 km/h
248 28-03-2020 20:35:00 10.9 C 5.17 g/m*3 10.9 C 4.8 km/h
249 28-03-2020 20:40:00 10.7 C 5.21 g/m*3 10.7 C 4.8 km/h
250 28-03-2020 20:45:00 10.4 C 5.2 g/m*3 10.4 C 1.6 km/h
Sensor: Nr:Datum:Temp:Abs-Feuchte:Windchill:Wind:
Aussen-T/F 251 28-03-2020 20:50:00 10.2 C 5.23 g/m*3 10.2 C 3.2 km/h
252 28-03-2020 20:55:00 9.9 C 5.23 g/m*3 9.25 C 6.4 km/h
253 28-03-2020 21:00:00 9.8 C 5.29 g/m*3 9.8 C 1.6 km/h
254 28-03-2020 21:05:00 9.8 C 5.2 g/m*3 9.14 C 6.4 km/h
255 28-03-2020 21:10:00 9.8 C 5.29 g/m*3 9.8 C 1.6 km/h
256 28-03-2020 21:15:00 9.8 C 5.29 g/m*3 9.8 C 4.8 km/h
257 28-03-2020 21:20:00 9.8 C 5.38 g/m*3 9.8 C 1.6 km/h
258 28-03-2020 21:25:00 9.6 C 5.31 g/m*3 9.6 C 0 km/h
259 28-03-2020 21:30:00 9.3 C 5.21 g/m*3 9.3 C 3.2 km/h
260 28-03-2020 21:35:00 9.2 C 5.27 g/m*3 9.2 C 3.2 km/h
261 28-03-2020 21:40:00 9.2 C 5.27 g/m*3 9.2 C 3.2 km/h
262 28-03-2020 21:45:00 9.1 C 5.32 g/m*3 7.93 C 8.1 km/h
263 28-03-2020 21:50:00 8.8 C 5.22 g/m*3 8.8 C 1.6 km/h
264 28-03-2020 21:55:00 8.7 C 5.19 g/m*3 7.87 C 6.4 km/h
265 28-03-2020 22:00:00 8.9 C 5.26 g/m*3 7.69 C 8.1 km/h
266 28-03-2020 22:05:00 9.1 C 5.23 g/m*3 7.93 C 8.1 km/h
267 28-03-2020 22:10:00 9.2 C 5.18 g/m*3 7.46 C 11.3 km/h
268 28-03-2020 22:15:00 9.2 C 5.27 g/m*3 8.45 C 6.4 km/h
269 28-03-2020 22:20:00 9.3 C 5.3 g/m*3 7.85 C 9.7 km/h
270 28-03-2020 22:25:00 9.2 C 5.45 g/m*3 7.73 C 9.7 km/h
271 28-03-2020 22:30:00 9.2 C 5.63 g/m*3 6.99 C 14.5 km/h
272 28-03-2020 22:35:00 9.1 C 5.59 g/m*3 6.87 C 14.5 km/h
273 28-03-2020 22:40:00 9 C 5.55 g/m*3 7.49 C 9.7 km/h
274 28-03-2020 22:45:00 8.9 C 5.61 g/m*3 8.1 C 6.4 km/h
275 28-03-2020 22:50:00 8.7 C 5.62 g/m*3 8.7 C 4.8 km/h
Sensor: Nr:Datum:Temp:Abs-Feuchte:Windchill:Wind:
Aussen-T/F 276 28-03-2020 22:55:00 8.6 C 5.67 g/m*3 7.75 C 6.4 km/h
277 28-03-2020 23:00:00 8.4 C 5.68 g/m*3 7.11 C 8.1 km/h
278 28-03-2020 23:05:00 8.4 C 5.77 g/m*3 6.01 C 14.5 km/h
279 28-03-2020 23:10:00 8.3 C 5.73 g/m*3 6.99 C 8.1 km/h
280 28-03-2020 23:15:00 8.3 C 5.82 g/m*3 8.3 C 4.8 km/h
281 28-03-2020 23:20:00 8.2 C 5.86 g/m*3 6.54 C 9.7 km/h
282 28-03-2020 23:25:00 8.1 C 5.91 g/m*3 5.87 C 12.9 km/h
283 28-03-2020 23:30:00 8.1 C 5.91 g/m*3 6.42 C 9.7 km/h
284 28-03-2020 23:35:00 7.9 C 5.83 g/m*3 5.39 C 14.5 km/h
285 28-03-2020 23:40:00 7.8 C 5.88 g/m*3 6.83 C 6.4 km/h
286 28-03-2020 23:45:00 7.7 C 5.84 g/m*3 5.38 C 12.9 km/h
287 28-03-2020 23:50:00 7.7 C 5.92 g/m*3 6.28 C 8.1 km/h
288 28-03-2020 23:55:00 7.6 C 5.88 g/m*3 5.53 C 11.3 km/h
289 29-03-2020 00:00:00 7.4 C 5.81 g/m*3 5.58 C 9.7 km/h
290 29-03-2020 00:05:00 7.3 C 5.85 g/m*3 7.3 C 4.8 km/h
291 29-03-2020 00:10:00 7.2 C 5.81 g/m*3 5.35 C 9.7 km/h
292 29-03-2020 00:15:00 7.2 C 5.81 g/m*3 5.69 C 8.1 km/h
293 29-03-2020 00:20:00 7.1 C 5.77 g/m*3 6.02 C 6.4 km/h
294 29-03-2020 00:25:00 7.1 C 5.77 g/m*3 5.23 C 9.7 km/h
295 29-03-2020 00:30:00 7.1 C 5.77 g/m*3 5.23 C 9.7 km/h
296 29-03-2020 00:35:00 7.1 C 5.77 g/m*3 3.98 C 17.7 km/h
297 29-03-2020 00:40:00 7.1 C 5.77 g/m*3 6.02 C 6.4 km/h
298 29-03-2020 00:45:00 7.1 C 5.77 g/m*3 4.92 C 11.3 km/h
299 29-03-2020 00:50:00 7 C 5.66 g/m*3 5.11 C 9.7 km/h
300 29-03-2020 00:55:00 7 C 5.66 g/m*3 4.8 C 11.3 km/h
Sensor: Nr:Datum:Temp:Abs-Feuchte:Windchill:Wind:
Aussen-T/F 301 29-03-2020 01:00:00 6.9 C 5.62 g/m*3 4.68 C 11.3 km/h
302 29-03-2020 01:05:00 6.8 C 5.58 g/m*3 3.82 C 16.1 km/h
303 29-03-2020 01:10:00 6.8 C 5.58 g/m*3 4.29 C 12.9 km/h
304 29-03-2020 01:15:00 6.7 C 5.55 g/m*3 3.69 C 16.1 km/h
305 29-03-2020 01:20:00 6.7 C 5.55 g/m*3 4.17 C 12.9 km/h
306 29-03-2020 01:25:00 6.6 C 5.44 g/m*3 3.36 C 17.7 km/h
307 29-03-2020 01:30:00 6.6 C 5.44 g/m*3 4.63 C 9.7 km/h
308 29-03-2020 01:35:00 6.5 C 5.4 g/m*3 4.2 C 11.3 km/h
309 29-03-2020 01:40:00 6.4 C 5.36 g/m*3 3.8 C 12.9 km/h
310 29-03-2020 01:45:00 6.4 C 5.29 g/m*3 3.11 C 17.7 km/h
311 29-03-2020 01:50:00 6.4 C 5.29 g/m*3 4.39 C 9.7 km/h
312 29-03-2020 01:55:00 6.3 C 5.18 g/m*3 3.96 C 11.3 km/h
313 29-03-2020 02:00:00 6.3 C 5.18 g/m*3 3.43 C 14.5 km/h
314 29-03-2020 02:05:00 6.2 C 5.15 g/m*3 2.86 C 17.7 km/h
315 29-03-2020 02:10:00 6.2 C 5.07 g/m*3 3.84 C 11.3 km/h
316 29-03-2020 02:15:00 6.1 C 5.11 g/m*3 3.43 C 12.9 km/h
317 29-03-2020 02:20:00 5.9 C 5.05 g/m*3 3.19 C 12.9 km/h
318 29-03-2020 02:25:00 5.8 C 5.01 g/m*3 2.16 C 19.3 km/h
319 29-03-2020 02:30:00 5.7 C 5.05 g/m*3 2.03 C 19.3 km/h
320 29-03-2020 02:35:00 5.6 C 5.02 g/m*3 2.57 C 14.5 km/h
321 29-03-2020 02:40:00 5.4 C 5.02 g/m*3 3.58 C 8.1 km/h
322 29-03-2020 02:45:00 5.3 C 4.99 g/m*3 3.46 C 8.1 km/h
323 29-03-2020 02:50:00 5.2 C 4.89 g/m*3 2.63 C 11.3 km/h
324 29-03-2020 02:55:00 5.2 C 4.82 g/m*3 2.07 C 14.5 km/h
325 29-03-2020 04:00:00 5.2 C 4.82 g/m*3 2.63 C 11.3 km/h
Sensor: Nr:Datum:Temp:Abs-Feuchte:Windchill:Wind:
Aussen-T/F 326 29-03-2020 04:05:00 5.1 C 4.79 g/m*3 2.51 C 11.3 km/h
327 29-03-2020 04:10:00 5 C 4.76 g/m*3 2.39 C 11.3 km/h
328 29-03-2020 04:15:00 4.9 C 4.66 g/m*3 1.97 C 12.9 km/h
329 29-03-2020 04:20:00 4.8 C 4.63 g/m*3 1.34 C 16.1 km/h
330 29-03-2020 04:25:00 4.8 C 4.63 g/m*3 2.49 C 9.7 km/h
331 29-03-2020 04:30:00 4.8 C 4.63 g/m*3 1.85 C 12.9 km/h
332 29-03-2020 04:35:00 4.8 C 4.69 g/m*3 1.58 C 14.5 km/h
333 29-03-2020 04:40:00 4.8 C 4.69 g/m*3 4.8 C 4.8 km/h
334 29-03-2020 04:45:00 4.8 C 4.69 g/m*3 4.8 C 3.2 km/h
335 29-03-2020 04:50:00 4.8 C 4.76 g/m*3 2.87 C 8.1 km/h
336 29-03-2020 04:55:00 4.8 C 4.76 g/m*3 3.36 C 6.4 km/h
337 29-03-2020 05:00:00 4.8 C 4.83 g/m*3 2.15 C 11.3 km/h
338 29-03-2020 05:05:00 4.8 C 4.83 g/m*3 2.49 C 9.7 km/h
339 29-03-2020 05:10:00 4.8 C 4.9 g/m*3 2.49 C 9.7 km/h
340 29-03-2020 05:15:00 4.8 C 4.83 g/m*3 1.34 C 16.1 km/h
341 29-03-2020 05:20:00 4.7 C 4.73 g/m*3 0.99 C 17.7 km/h
342 29-03-2020 05:25:00 4.7 C 4.73 g/m*3 0.99 C 17.7 km/h
343 29-03-2020 05:30:00 4.6 C 4.63 g/m*3 0.65 C 19.3 km/h
344 29-03-2020 05:35:00 4.5 C 4.6 g/m*3 1.79 C 11.3 km/h
345 29-03-2020 05:40:00 4.4 C 4.57 g/m*3 1.09 C 14.5 km/h
346 29-03-2020 05:45:00 4.3 C 4.48 g/m*3 0.97 C 14.5 km/h
347 29-03-2020 05:50:00 4.3 C 4.54 g/m*3 1.55 C 11.3 km/h
348 29-03-2020 05:55:00 4.2 C 4.51 g/m*3 2.17 C 8.1 km/h
349 29-03-2020 06:00:00 4.1 C 4.48 g/m*3 2.05 C 8.1 km/h
350 29-03-2020 06:05:00 4 C 4.45 g/m*3 1.93 C 8.1 km/h
Sensor: Nr:Datum:Temp:Abs-Feuchte:Windchill:Wind:
Aussen-T/F 351 29-03-2020 06:10:00 3.9 C 4.42 g/m*3 1.06 C 11.3 km/h
352 29-03-2020 06:15:00 3.8 C 4.39 g/m*3 3.8 C 4.8 km/h
353 29-03-2020 06:20:00 3.8 C 4.45 g/m*3 3.8 C 4.8 km/h
354 29-03-2020 06:25:00 3.7 C 4.42 g/m*3 3.7 C 3.2 km/h
355 29-03-2020 06:30:00 3.7 C 4.49 g/m*3 3.7 C 1.6 km/h
356 29-03-2020 06:35:00 3.7 C 4.49 g/m*3 3.7 C 4.8 km/h
357 29-03-2020 06:40:00 3.7 C 4.55 g/m*3 3.7 C 1.6 km/h
358 29-03-2020 06:45:00 3.7 C 4.55 g/m*3 2.09 C 6.4 km/h
359 29-03-2020 06:50:00 3.7 C 4.61 g/m*3 3.7 C 3.2 km/h
360 29-03-2020 06:55:00 3.8 C 4.71 g/m*3 1.29 C 9.7 km/h
361 29-03-2020 07:00:00 3.8 C 4.71 g/m*3 2.21 C 6.4 km/h
362 29-03-2020 07:05:00 3.9 C 4.8 g/m*3 1.06 C 11.3 km/h
363 29-03-2020 07:10:00 3.9 C 4.8 g/m*3 1.82 C 8.1 km/h
364 29-03-2020 07:15:00 4 C 4.9 g/m*3 2.44 C 6.4 km/h
365 29-03-2020 07:20:00 4 C 4.9 g/m*3 2.44 C 6.4 km/h
366 29-03-2020 07:25:00 4 C 4.9 g/m*3 2.44 C 6.4 km/h
367 29-03-2020 07:30:00 4.1 C 4.93 g/m*3 1.31 C 11.3 km/h
368 29-03-2020 07:35:00 4.1 C 4.93 g/m*3 1.65 C 9.7 km/h
369 29-03-2020 07:40:00 4.1 C 4.93 g/m*3 1.31 C 11.3 km/h
370 29-03-2020 07:45:00 4.2 C 4.96 g/m*3 1.43 C 11.3 km/h
371 29-03-2020 07:50:00 4.2 C 4.96 g/m*3 1.77 C 9.7 km/h
372 29-03-2020 07:55:00 4.2 C 4.96 g/m*3 1.77 C 9.7 km/h
373 29-03-2020 08:00:00 4.2 C 4.96 g/m*3 1.12 C 12.9 km/h
374 29-03-2020 08:05:00 4.2 C 4.96 g/m*3 1.43 C 11.3 km/h
375 29-03-2020 08:10:00 4.2 C 4.96 g/m*3 2.17 C 8.1 km/h
Sensor: Nr:Datum:Temp:Abs-Feuchte:Windchill:Wind:
Aussen-T/F 376 29-03-2020 08:15:00 4.3 C 4.99 g/m*3 2.78 C 6.4 km/h
377 29-03-2020 08:20:00 4.3 C 4.99 g/m*3 1.89 C 9.7 km/h
378 29-03-2020 08:25:00 4.3 C 4.99 g/m*3 1.24 C 12.9 km/h
379 29-03-2020 08:30:00 4.4 C 4.96 g/m*3 1.67 C 11.3 km/h
380 29-03-2020 08:35:00 4.4 C 4.96 g/m*3 1.67 C 11.3 km/h
381 29-03-2020 08:40:00 4.5 C 5 g/m*3 1.21 C 14.5 km/h
382 29-03-2020 08:45:00 4.6 C 4.96 g/m*3 1.61 C 12.9 km/h
383 29-03-2020 08:50:00 4.5 C 4.93 g/m*3 0.74 C 17.7 km/h
384 29-03-2020 08:55:00 4.5 C 4.93 g/m*3 1.21 C 14.5 km/h
385 29-03-2020 09:00:00 4.5 C 5 g/m*3 0.96 C 16.1 km/h
386 29-03-2020 09:05:00 4.5 C 4.93 g/m*3 0.96 C 16.1 km/h
387 29-03-2020 09:10:00 4.5 C 4.93 g/m*3 0.96 C 16.1 km/h
388 29-03-2020 09:15:00 4.5 C 4.93 g/m*3 0.74 C 17.7 km/h
389 29-03-2020 09:20:00 4.5 C 4.93 g/m*3 0.96 C 16.1 km/h
390 29-03-2020 09:25:00 4.5 C 4.93 g/m*3 1.48 C 12.9 km/h
391 29-03-2020 09:30:00 4.6 C 4.96 g/m*3 0.86 C 17.7 km/h
392 29-03-2020 09:35:00 4.7 C 5 g/m*3 2.37 C 9.7 km/h
393 29-03-2020 09:40:00 4.7 C 4.93 g/m*3 2.03 C 11.3 km/h
394 29-03-2020 09:45:00 4.8 C 4.96 g/m*3 1.58 C 14.5 km/h
395 29-03-2020 09:50:00 4.9 C 4.93 g/m*3 1.46 C 16.1 km/h
396 29-03-2020 09:55:00 5 C 4.96 g/m*3 1.83 C 14.5 km/h
397 29-03-2020 10:00:00 5.1 C 4.99 g/m*3 1.28 C 19.3 km/h
398 29-03-2020 10:05:00 5.2 C 5.03 g/m*3 2.34 C 12.9 km/h
399 29-03-2020 10:10:00 5.3 C 4.99 g/m*3 1.74 C 17.7 km/h
400 29-03-2020 10:15:00 5.3 C 4.99 g/m*3 1.53 C 19.3 km/h
Sensor: Nr:Datum:Temp:Abs-Feuchte:Windchill:Wind:
Aussen-T/F 401 29-03-2020 10:20:00 5.4 C 4.95 g/m*3 1.66 C 19.3 km/h
402 29-03-2020 10:25:00 5.6 C 4.95 g/m*3 1.91 C 19.3 km/h
403 29-03-2020 10:30:00 5.6 C 4.95 g/m*3 2.33 C 16.1 km/h
404 29-03-2020 10:35:00 5.8 C 4.94 g/m*3 2.58 C 16.1 km/h
405 29-03-2020 10:40:00 6 C 5.01 g/m*3 2.61 C 17.7 km/h
406 29-03-2020 10:45:00 6.1 C 4.82 g/m*3 2.18 C 22.5 km/h
407 29-03-2020 10:50:00 6.1 C 4.75 g/m*3 2.18 C 22.5 km/h
408 29-03-2020 10:55:00 6.2 C 4.85 g/m*3 3.07 C 16.1 km/h
409 29-03-2020 11:00:00 6.4 C 4.62 g/m*3 2.91 C 19.3 km/h
410 29-03-2020 11:05:00 6.5 C 4.57 g/m*3 3.23 C 17.7 km/h
411 29-03-2020 11:10:00 6.6 C 4.53 g/m*3 2.82 C 22.5 km/h
412 29-03-2020 11:15:00 6.5 C 4.57 g/m*3 3.04 C 19.3 km/h
413 29-03-2020 11:20:00 6.4 C 4.55 g/m*3 1.58 C 33.8 km/h
414 29-03-2020 11:25:00 6.4 C 4.47 g/m*3 1.58 C 33.8 km/h
415 29-03-2020 11:30:00 6.3 C 4.44 g/m*3 2.27 C 24.1 km/h
416 29-03-2020 11:35:00 6.4 C 4.55 g/m*3 2.91 C 19.3 km/h
417 29-03-2020 11:40:00 6.4 C 4.55 g/m*3 2.91 C 19.3 km/h
418 29-03-2020 11:45:00 6.5 C 4.57 g/m*3 3.44 C 16.1 km/h
419 29-03-2020 11:50:00 6.4 C 4.62 g/m*3 3.11 C 17.7 km/h
420 29-03-2020 11:55:00 6.5 C 4.65 g/m*3 3.23 C 17.7 km/h
421 29-03-2020 12:00:00 6.4 C 4.55 g/m*3 3.11 C 17.7 km/h
422 29-03-2020 12:05:00 6.3 C 4.74 g/m*3 2.79 C 19.3 km/h
423 29-03-2020 12:10:00 6.1 C 4.82 g/m*3 2.18 C 22.5 km/h
424 29-03-2020 12:15:00 5.9 C 4.69 g/m*3 1.76 C 24.1 km/h
425 29-03-2020 12:20:00 5.9 C 4.69 g/m*3 1.61 C 25.7 km/h
Sensor: Nr:Datum:Temp:Abs-Feuchte:Windchill:Wind:
Aussen-T/F 426 29-03-2020 12:25:00 5.9 C 4.76 g/m*3 1.76 C 24.1 km/h
427 29-03-2020 12:30:00 5.9 C 4.69 g/m*3 2.48 C 17.7 km/h
428 29-03-2020 12:35:00 5.9 C 4.76 g/m*3 2.48 C 17.7 km/h
429 29-03-2020 12:40:00 5.9 C 4.69 g/m*3 2.93 C 14.5 km/h
430 29-03-2020 12:45:00 6 C 4.72 g/m*3 3.31 C 12.9 km/h
431 29-03-2020 12:50:00 6.1 C 4.68 g/m*3 2.95 C 16.1 km/h
432 29-03-2020 12:55:00 6.2 C 4.63 g/m*3 2.31 C 22.5 km/h
433 29-03-2020 13:00:00 6.3 C 4.59 g/m*3 2.79 C 19.3 km/h
434 29-03-2020 13:05:00 6.3 C 4.52 g/m*3 2.79 C 19.3 km/h
435 29-03-2020 13:10:00 6.3 C 4.44 g/m*3 2.43 C 22.5 km/h
436 29-03-2020 13:15:00 6.3 C 4.37 g/m*3 2.12 C 25.7 km/h
437 29-03-2020 13:20:00 6.4 C 4.4 g/m*3 2.73 C 20.9 km/h
438 29-03-2020 13:25:00 6.5 C 4.35 g/m*3 2.86 C 20.9 km/h
439 29-03-2020 13:30:00 6.6 C 4.3 g/m*3 3.57 C 16.1 km/h
440 29-03-2020 13:35:00 6.7 C 4.26 g/m*3 3.48 C 17.7 km/h
441 29-03-2020 13:40:00 6.8 C 4.28 g/m*3 4.29 C 12.9 km/h
442 29-03-2020 13:45:00 7.1 C 4.21 g/m*3 4.65 C 12.9 km/h
443 29-03-2020 13:50:00 7.3 C 4.35 g/m*3 4.23 C 17.7 km/h
444 29-03-2020 13:55:00 7.6 C 4.27 g/m*3 5.02 C 14.5 km/h
445 29-03-2020 14:00:00 7.5 C 4.24 g/m*3 5.14 C 12.9 km/h
446 29-03-2020 14:05:00 7.3 C 4.19 g/m*3 4.44 C 16.1 km/h
447 29-03-2020 14:10:00 7.3 C 4.19 g/m*3 4.05 C 19.3 km/h
448 29-03-2020 14:15:00 7.3 C 4.19 g/m*3 4.05 C 19.3 km/h
449 29-03-2020 14:20:00 7.2 C 4.4 g/m*3 3.92 C 19.3 km/h
450 29-03-2020 14:25:00 6.8 C 4.44 g/m*3 3.24 C 20.9 km/h
Sensor: Nr:Datum:Temp:Abs-Feuchte:Windchill:Wind:
Aussen-T/F 451 29-03-2020 14:30:00 6.6 C 4.45 g/m*3 2.99 C 20.9 km/h
452 29-03-2020 14:35:00 6.6 C 4.45 g/m*3 3.79 C 14.5 km/h
453 29-03-2020 14:40:00 6.5 C 4.42 g/m*3 3.67 C 14.5 km/h
454 29-03-2020 14:45:00 6.5 C 4.42 g/m*3 3.23 C 17.7 km/h
455 29-03-2020 14:50:00 6.6 C 4.53 g/m*3 3.79 C 14.5 km/h
456 29-03-2020 14:55:00 6.6 C 4.53 g/m*3 2.82 C 22.5 km/h
457 29-03-2020 15:00:00 6.7 C 4.64 g/m*3 3.69 C 16.1 km/h
458 29-03-2020 15:05:00 6.8 C 4.67 g/m*3 3.42 C 19.3 km/h
459 29-03-2020 15:10:00 6.9 C 4.39 g/m*3 3.2 C 22.5 km/h
460 29-03-2020 15:15:00 6.9 C 4.31 g/m*3 3.73 C 17.7 km/h
461 29-03-2020 15:20:00 7 C 4.34 g/m*3 3.67 C 19.3 km/h
462 29-03-2020 15:25:00 7.1 C 4.37 g/m*3 4.41 C 14.5 km/h
463 29-03-2020 15:30:00 7.2 C 4.4 g/m*3 3.92 C 19.3 km/h
464 29-03-2020 15:35:00 7.3 C 4.5 g/m*3 4.05 C 19.3 km/h
465 29-03-2020 15:40:00 7.4 C 4.45 g/m*3 4.17 C 19.3 km/h
466 29-03-2020 15:45:00 7.3 C 4.58 g/m*3 4.44 C 16.1 km/h
467 29-03-2020 15:50:00 7.3 C 4.58 g/m*3 4.66 C 14.5 km/h
468 29-03-2020 15:55:00 7.3 C 4.5 g/m*3 4.9 C 12.9 km/h
469 29-03-2020 16:00:00 7.3 C 4.5 g/m*3 4.05 C 19.3 km/h
470 29-03-2020 16:05:00 7.2 C 4.4 g/m*3 4.11 C 17.7 km/h
471 29-03-2020 16:10:00 7.2 C 4.32 g/m*3 5.04 C 11.3 km/h
472 29-03-2020 16:15:00 7 C 4.26 g/m*3 3.67 C 19.3 km/h
473 29-03-2020 16:20:00 6.9 C 4.23 g/m*3 3.94 C 16.1 km/h
474 29-03-2020 16:25:00 6.8 C 4.21 g/m*3 3.61 C 17.7 km/h
475 29-03-2020 16:30:00 6.8 C 4.44 g/m*3 3.42 C 19.3 km/h
Sensor: Nr:Datum:Temp:Abs-Feuchte:Windchill:Wind:
Aussen-T/F 476 29-03-2020 16:35:00 6.7 C 4.48 g/m*3 3.69 C 16.1 km/h
477 29-03-2020 16:40:00 6.7 C 4.56 g/m*3 4.17 C 12.9 km/h
478 29-03-2020 16:45:00 6.7 C 4.56 g/m*3 3.92 C 14.5 km/h
479 29-03-2020 16:50:00 6.8 C 4.44 g/m*3 3.24 C 20.9 km/h
480 29-03-2020 16:55:00 6.8 C 4.44 g/m*3 3.42 C 19.3 km/h
481 29-03-2020 17:00:00 6.8 C 4.51 g/m*3 4.29 C 12.9 km/h
482 29-03-2020 17:05:00 6.9 C 4.54 g/m*3 3.54 C 19.3 km/h
483 29-03-2020 17:10:00 7.1 C 4.6 g/m*3 3.3 C 24.1 km/h
484 29-03-2020 17:15:00 6.9 C 4.54 g/m*3 3.37 C 20.9 km/h
485 29-03-2020 17:20:00 6.9 C 4.7 g/m*3 3.54 C 19.3 km/h
486 29-03-2020 17:25:00 6.9 C 4.85 g/m*3 3.73 C 17.7 km/h
487 29-03-2020 17:30:00 6.8 C 4.74 g/m*3 3.42 C 19.3 km/h
488 29-03-2020 17:35:00 6.9 C 4.85 g/m*3 3.54 C 19.3 km/h
489 29-03-2020 17:40:00 7 C 4.88 g/m*3 3.49 C 20.9 km/h
490 29-03-2020 17:45:00 6.9 C 4.85 g/m*3 3.73 C 17.7 km/h
491 29-03-2020 17:50:00 6.8 C 4.89 g/m*3 3.82 C 16.1 km/h
492 29-03-2020 17:55:00 6.8 C 4.97 g/m*3 3.82 C 16.1 km/h
493 29-03-2020 18:00:00 6.9 C 5 g/m*3 3.73 C 17.7 km/h
494 29-03-2020 18:05:00 7 C 5.04 g/m*3 4.06 C 16.1 km/h
495 29-03-2020 18:10:00 6.9 C 4.85 g/m*3 2.61 C 29 km/h
496 29-03-2020 18:15:00 6.7 C 4.79 g/m*3 3.29 C 19.3 km/h
497 29-03-2020 18:20:00 6.6 C 4.83 g/m*3 2.51 C 25.7 km/h
498 29-03-2020 18:25:00 6.4 C 4.84 g/m*3 2.4 C 24.1 km/h
499 29-03-2020 18:30:00 6.2 C 5 g/m*3 2.15 C 24.1 km/h
500 29-03-2020 18:35:00 5.8 C 5.16 g/m*3 1.63 C 24.1 km/h
Sensor: Nr:Datum:Temp:Abs-Feuchte:Windchill:Wind:
Aussen-T/F 501 29-03-2020 18:40:00 5.4 C 5.23 g/m*3 1.66 C 19.3 km/h
502 29-03-2020 18:45:00 5.1 C 5.34 g/m*3 1.95 C 14.5 km/h
503 29-03-2020 18:50:00 4.9 C 5.33 g/m*3 2.61 C 9.7 km/h
504 29-03-2020 18:55:00 4.9 C 5.33 g/m*3 0.83 C 20.9 km/h
505 29-03-2020 19:00:00 4.9 C 5.33 g/m*3 0.48 C 24.1 km/h
506 29-03-2020 19:05:00 4.8 C 5.36 g/m*3 0.52 C 22.5 km/h
507 29-03-2020 19:10:00 4.6 C 5.43 g/m*3 0.86 C 17.7 km/h
508 29-03-2020 19:15:00 4.4 C 5.42 g/m*3 1.09 C 14.5 km/h
509 29-03-2020 19:20:00 4.4 C 5.42 g/m*3 1.09 C 14.5 km/h
510 29-03-2020 19:25:00 4.3 C 5.45 g/m*3 0.97 C 14.5 km/h
511 29-03-2020 19:30:00 4.3 C 5.45 g/m*3 0.07 C 20.9 km/h
512 29-03-2020 19:35:00 4.3 C 5.51 g/m*3 0.97 C 14.5 km/h
513 29-03-2020 19:40:00 4.2 C 5.48 g/m*3 0.36 C 17.7 km/h
514 29-03-2020 19:45:00 4.1 C 5.44 g/m*3 -0.18 C 20.9 km/h
515 29-03-2020 19:50:00 4 C 5.47 g/m*3 0.6 C 14.5 km/h
516 29-03-2020 19:55:00 3.9 C 5.43 g/m*3 3.9 C 4.8 km/h
517 29-03-2020 20:00:00 3.9 C 5.43 g/m*3 2.32 C 6.4 km/h
518 29-03-2020 20:05:00 3.8 C 5.46 g/m*3 3.8 C 3.2 km/h
519 29-03-2020 20:10:00 3.8 C 5.46 g/m*3 2.21 C 6.4 km/h
520 29-03-2020 20:15:00 3.8 C 5.46 g/m*3 3.8 C 3.2 km/h
521 29-03-2020 20:20:00 3.8 C 5.46 g/m*3 3.8 C 3.2 km/h
522 29-03-2020 20:25:00 3.8 C 5.46 g/m*3 3.8 C 3.2 km/h
523 29-03-2020 20:30:00 3.8 C 5.46 g/m*3 3.8 C 1.6 km/h
524 29-03-2020 20:35:00 3.8 C 5.46 g/m*3 3.8 C 4.8 km/h
525 29-03-2020 20:40:00 3.9 C 5.43 g/m*3 3.9 C 4.8 km/h
Sensor: Nr:Datum:Temp:Abs-Feuchte:Windchill:Wind:
Aussen-T/F 526 29-03-2020 20:45:00 3.9 C 5.37 g/m*3 3.9 C 4.8 km/h
527 29-03-2020 20:50:00 4.1 C 5.38 g/m*3 2.05 C 8.1 km/h
528 29-03-2020 20:55:00 4.2 C 5.35 g/m*3 2.67 C 6.4 km/h
529 29-03-2020 21:00:00 4.2 C 5.28 g/m*3 2.67 C 6.4 km/h
530 29-03-2020 21:05:00 4.2 C 5.22 g/m*3 2.17 C 8.1 km/h
531 29-03-2020 21:10:00 4.3 C 5.19 g/m*3 1.89 C 9.7 km/h
532 29-03-2020 21:15:00 4.3 C 5.12 g/m*3 2.29 C 8.1 km/h
533 29-03-2020 21:20:00 4.3 C 5.06 g/m*3 1.55 C 11.3 km/h
534 29-03-2020 21:25:00 4.4 C 5.09 g/m*3 2.4 C 8.1 km/h
535 29-03-2020 21:30:00 4.4 C 5.03 g/m*3 2.01 C 9.7 km/h
536 29-03-2020 21:35:00 4.4 C 5.03 g/m*3 1.67 C 11.3 km/h
537 29-03-2020 21:40:00 4.4 C 4.96 g/m*3 1.09 C 14.5 km/h
538 29-03-2020 21:45:00 4.4 C 4.9 g/m*3 1.36 C 12.9 km/h
539 29-03-2020 21:50:00 4.4 C 4.9 g/m*3 1.67 C 11.3 km/h
540 29-03-2020 21:55:00 4.4 C 4.96 g/m*3 1.36 C 12.9 km/h
541 29-03-2020 22:00:00 4.4 C 4.9 g/m*3 1.36 C 12.9 km/h
542 29-03-2020 22:05:00 4.3 C 4.86 g/m*3 0.27 C 19.3 km/h
543 29-03-2020 22:10:00 4.3 C 4.86 g/m*3 0.07 C 20.9 km/h
544 29-03-2020 22:15:00 4.3 C 4.86 g/m*3 0.07 C 20.9 km/h
545 29-03-2020 22:20:00 4.3 C 4.8 g/m*3 1.24 C 12.9 km/h
546 29-03-2020 22:25:00 4.3 C 4.8 g/m*3 1.24 C 12.9 km/h
547 29-03-2020 22:30:00 4.3 C 4.74 g/m*3 0.97 C 14.5 km/h
548 29-03-2020 22:35:00 4.2 C 4.7 g/m*3 1.43 C 11.3 km/h
549 29-03-2020 22:40:00 4.2 C 4.7 g/m*3 0.59 C 16.1 km/h
550 29-03-2020 22:45:00 4.2 C 4.64 g/m*3 0.59 C 16.1 km/h
Sensor: Nr:Datum:Temp:Abs-Feuchte:Windchill:Wind:
Aussen-T/F 551 29-03-2020 22:50:00 4.2 C 4.7 g/m*3 0.59 C 16.1 km/h
552 29-03-2020 22:55:00 4.2 C 4.64 g/m*3 0.59 C 16.1 km/h
553 29-03-2020 23:00:00 4.2 C 4.57 g/m*3 0.36 C 17.7 km/h
554 29-03-2020 23:05:00 4.2 C 4.57 g/m*3 1.12 C 12.9 km/h
555 29-03-2020 23:10:00 4.2 C 4.57 g/m*3 1.12 C 12.9 km/h
556 29-03-2020 23:15:00 4.1 C 4.48 g/m*3 0.47 C 16.1 km/h
557 29-03-2020 23:20:00 4.1 C 4.42 g/m*3 0.72 C 14.5 km/h
558 29-03-2020 23:25:00 4.1 C 4.48 g/m*3 0.47 C 16.1 km/h
559 29-03-2020 23:30:00 4.1 C 4.42 g/m*3 0.72 C 14.5 km/h
560 29-03-2020 23:35:00 4 C 4.32 g/m*3 -0.5 C 22.5 km/h
561 29-03-2020 23:40:00 3.9 C 4.23 g/m*3 0.75 C 12.9 km/h
562 29-03-2020 23:45:00 3.9 C 4.23 g/m*3 -0.01 C 17.7 km/h
563 29-03-2020 23:50:00 3.8 C 4.2 g/m*3 0.63 C 12.9 km/h
564 29-03-2020 23:55:00 3.7 C 4.18 g/m*3 1.18 C 9.7 km/h
565 30-03-2020 00:00:00 3.6 C 4.15 g/m*3 0.7 C 11.3 km/h
566 30-03-2020 00:05:00 3.4 C 4.09 g/m*3 0.46 C 11.3 km/h
567 30-03-2020 00:10:00 3.3 C 4.06 g/m*3 1.11 C 8.1 km/h
568 30-03-2020 00:15:00 3.3 C 4 g/m*3 0.7 C 9.7 km/h
569 30-03-2020 00:20:00 3.3 C 4 g/m*3 0.7 C 9.7 km/h
570 30-03-2020 00:25:00 3.3 C 4.06 g/m*3 1.11 C 8.1 km/h
571 30-03-2020 00:30:00 3.1 C 4.07 g/m*3 3.1 C 4.8 km/h
572 30-03-2020 00:35:00 2.9 C 4.07 g/m*3 2.9 C 3.2 km/h
573 30-03-2020 00:40:00 2.7 C 4.08 g/m*3 0.94 C 6.4 km/h
574 30-03-2020 00:45:00 2.4 C 4 g/m*3 2.4 C 4.8 km/h
575 30-03-2020 00:50:00 2.2 C 4.06 g/m*3 2.2 C 3.2 km/h
Sensor: Nr:Datum:Temp:Abs-Feuchte:Windchill:Wind:
Aussen-T/F 576 30-03-2020 00:55:00 1.9 C 4.03 g/m*3 1.9 C 3.2 km/h
577 30-03-2020 01:00:00 1.7 C 4.03 g/m*3 1.7 C 3.2 km/h
578 30-03-2020 01:05:00 1.5 C 3.97 g/m*3 1.5 C 3.2 km/h
579 30-03-2020 01:10:00 1.4 C 3.95 g/m*3 1.4 C 4.8 km/h
580 30-03-2020 01:15:00 1.4 C 3.95 g/m*3 1.4 C 4.8 km/h
581 30-03-2020 01:20:00 1.4 C 3.89 g/m*3 1.4 C 3.2 km/h
582 30-03-2020 01:25:00 1.4 C 3.89 g/m*3 -0.56 C 6.4 km/h
583 30-03-2020 01:30:00 1.5 C 3.81 g/m*3 1.5 C 3.2 km/h
584 30-03-2020 01:35:00 1.4 C 3.89 g/m*3 1.4 C 4.8 km/h
585 30-03-2020 01:40:00 1.3 C 3.92 g/m*3 1.3 C 1.6 km/h
586 30-03-2020 01:45:00 1.1 C 3.92 g/m*3 1.1 C 1.6 km/h
587 30-03-2020 01:50:00 0.8 C 3.84 g/m*3 0.8 C 1.6 km/h
588 30-03-2020 01:55:00 0.6 C 3.84 g/m*3 0.6 C 3.2 km/h
589 30-03-2020 02:00:00 0.4 C 3.84 g/m*3 0.4 C 1.6 km/h
590 30-03-2020 02:05:00 0.3 C 3.76 g/m*3 -1.84 C 6.4 km/h
591 30-03-2020 02:10:00 0.3 C 3.81 g/m*3 0.3 C 0 km/h
592 30-03-2020 02:15:00 0.2 C 3.78 g/m*3 0.2 C 0 km/h
593 30-03-2020 02:20:00 -0.1 C 3.75 g/m*3 -0.1 C 1.6 km/h
594 30-03-2020 02:25:00 -0.3 C 3.7 g/m*3 -0.3 C 0 km/h
595 30-03-2020 02:30:00 -0.5 C 3.7 g/m*3 -0.5 C 0 km/h
596 30-03-2020 02:35:00 -0.7 C 3.69 g/m*3 -0.7 C 1.6 km/h
597 30-03-2020 02:40:00 -0.7 C 3.69 g/m*3 -0.7 C 1.6 km/h
598 30-03-2020 02:45:00 -0.8 C 3.71 g/m*3 -0.8 C 1.6 km/h
599 30-03-2020 02:50:00 -0.8 C 3.71 g/m*3 -0.8 C 0 km/h
600 30-03-2020 02:55:00 -0.9 C 3.69 g/m*3 -0.9 C 1.6 km/h
Sensor: Nr:Datum:Temp:Abs-Feuchte:Windchill:Wind:
Aussen-T/F 601 30-03-2020 03:00:00 -0.9 C 3.69 g/m*3 -0.9 C 3.2 km/h
602 30-03-2020 03:05:00 -1 C 3.62 g/m*3 -1 C 4.8 km/h
603 30-03-2020 03:10:00 -1 C 3.62 g/m*3 -1 C 3.2 km/h
604 30-03-2020 03:15:00 -1 C 3.66 g/m*3 -1 C 3.2 km/h
605 30-03-2020 03:20:00 -1.1 C 3.64 g/m*3 -1.1 C 3.2 km/h
606 30-03-2020 03:25:00 -1.1 C 3.64 g/m*3 -1.1 C 0 km/h
607 30-03-2020 03:30:00 -1.2 C 3.66 g/m*3 -1.2 C 1.6 km/h
608 30-03-2020 03:35:00 -1.3 C 3.63 g/m*3 -1.3 C 0 km/h
609 30-03-2020 03:40:00 -1.4 C 3.6 g/m*3 -1.4 C 3.2 km/h
610 30-03-2020 03:45:00 -1.4 C 3.6 g/m*3 -1.4 C 3.2 km/h
611 30-03-2020 03:50:00 -1.5 C 3.62 g/m*3 -1.5 C 3.2 km/h
612 30-03-2020 03:55:00 -1.6 C 3.6 g/m*3 -1.6 C 0 km/h
613 30-03-2020 04:00:00 -1.6 C 3.6 g/m*3 -1.6 C 3.2 km/h
614 30-03-2020 04:05:00 -1.6 C 3.6 g/m*3 -1.6 C 4.8 km/h
615 30-03-2020 04:10:00 -1.6 C 3.6 g/m*3 -1.6 C 0 km/h
616 30-03-2020 04:15:00 -1.6 C 3.64 g/m*3 -1.6 C 0 km/h
617 30-03-2020 04:20:00 -1.6 C 3.6 g/m*3 -1.6 C 1.6 km/h
618 30-03-2020 04:25:00 -1.7 C 3.57 g/m*3 -1.7 C 4.8 km/h
619 30-03-2020 04:30:00 -1.7 C 3.57 g/m*3 -1.7 C 0 km/h
620 30-03-2020 04:35:00 -1.8 C 3.55 g/m*3 -1.8 C 0 km/h
621 30-03-2020 04:40:00 -1.8 C 3.55 g/m*3 -1.8 C 0 km/h
622 30-03-2020 04:45:00 -1.9 C 3.52 g/m*3 -1.9 C 0 km/h
623 30-03-2020 04:50:00 -2 C 3.5 g/m*3 -2 C 3.2 km/h
624 30-03-2020 04:55:00 -2 C 3.5 g/m*3 -2 C 0 km/h
625 30-03-2020 05:00:00 -1.9 C 3.52 g/m*3 -1.9 C 3.2 km/h
Sensor: Nr:Datum:Temp:Abs-Feuchte:Windchill:Wind:
Aussen-T/F 626 30-03-2020 05:05:00 -1.8 C 3.51 g/m*3 -1.8 C 3.2 km/h
627 30-03-2020 05:10:00 -1.8 C 3.51 g/m*3 -1.8 C 1.6 km/h
628 30-03-2020 05:15:00 -1.8 C 3.46 g/m*3 -1.8 C 0 km/h
629 30-03-2020 05:20:00 -1.9 C 3.44 g/m*3 -1.9 C 1.6 km/h
630 30-03-2020 05:25:00 -1.9 C 3.44 g/m*3 -1.9 C 3.2 km/h
631 30-03-2020 05:30:00 -2 C 3.41 g/m*3 -2 C 0 km/h
632 30-03-2020 05:35:00 -2.1 C 3.39 g/m*3 -2.1 C 3.2 km/h
633 30-03-2020 05:40:00 -2.2 C 3.37 g/m*3 -2.2 C 0 km/h
634 30-03-2020 05:45:00 -2.3 C 3.38 g/m*3 -2.3 C 0 km/h
635 30-03-2020 05:50:00 -2.4 C 3.36 g/m*3 -2.4 C 0 km/h
636 30-03-2020 05:55:00 -2.5 C 3.34 g/m*3 -2.5 C 0 km/h
637 30-03-2020 06:00:00 -2.6 C 3.31 g/m*3 -2.6 C 0 km/h
638 30-03-2020 06:05:00 -2.7 C 3.29 g/m*3 -2.7 C 0 km/h
639 30-03-2020 06:10:00 -2.7 C 3.29 g/m*3 -2.7 C 0 km/h
640 30-03-2020 06:15:00 -2.8 C 3.31 g/m*3 -2.8 C 0 km/h
641 30-03-2020 06:20:00 -2.9 C 3.28 g/m*3 -2.9 C 0 km/h
642 30-03-2020 06:25:00 -3 C 3.3 g/m*3 -3 C 0 km/h
643 30-03-2020 06:30:00 -3 C 3.3 g/m*3 -3 C 0 km/h
644 30-03-2020 06:35:00 -3.1 C 3.28 g/m*3 -3.1 C 0 km/h
645 30-03-2020 06:40:00 -3.1 C 3.28 g/m*3 -5.76 C 6.4 km/h
646 30-03-2020 06:45:00 -3.1 C 3.28 g/m*3 -3.1 C 3.2 km/h
647 30-03-2020 06:50:00 -2.9 C 3.36 g/m*3 -2.9 C 1.6 km/h
648 30-03-2020 06:55:00 -2.9 C 3.36 g/m*3 -2.9 C 0 km/h
649 30-03-2020 07:00:00 -2.8 C 3.35 g/m*3 -2.8 C 0 km/h
650 30-03-2020 07:05:00 -2.9 C 3.32 g/m*3 -2.9 C 1.6 km/h
Sensor: Nr:Datum:Temp:Abs-Feuchte:Windchill:Wind:
Aussen-T/F 651 30-03-2020 07:10:00 -2.9 C 3.32 g/m*3 -2.9 C 1.6 km/h
652 30-03-2020 07:15:00 -2.9 C 3.32 g/m*3 -2.9 C 3.2 km/h
653 30-03-2020 07:20:00 -2.9 C 3.32 g/m*3 -2.9 C 1.6 km/h
654 30-03-2020 07:25:00 -2.9 C 3.28 g/m*3 -2.9 C 0 km/h
655 30-03-2020 07:30:00 -3 C 3.26 g/m*3 -3 C 0 km/h
656 30-03-2020 07:35:00 -3.1 C 3.24 g/m*3 -3.1 C 0 km/h
657 30-03-2020 07:40:00 -3.2 C 3.25 g/m*3 -3.2 C 0 km/h
658 30-03-2020 07:45:00 -3.3 C 3.23 g/m*3 -3.3 C 1.6 km/h
659 30-03-2020 07:50:00 -3.3 C 3.23 g/m*3 -3.3 C 0 km/h
660 30-03-2020 07:55:00 -3.4 C 3.21 g/m*3 -3.4 C 0 km/h
661 30-03-2020 08:00:00 -3.4 C 3.21 g/m*3 -3.4 C 0 km/h
662 30-03-2020 08:05:00 -3.4 C 3.25 g/m*3 -3.4 C 0 km/h
663 30-03-2020 08:10:00 -3.4 C 3.25 g/m*3 -3.4 C 0 km/h
664 30-03-2020 08:15:00 -3.3 C 3.27 g/m*3 -3.3 C 0 km/h
665 30-03-2020 08:20:00 -3.3 C 3.27 g/m*3 -3.3 C 0 km/h
666 30-03-2020 08:25:00 -3.3 C 3.27 g/m*3 -3.3 C 0 km/h
667 30-03-2020 08:30:00 -3.3 C 3.27 g/m*3 -3.3 C 1.6 km/h
668 30-03-2020 08:35:00 -3.2 C 3.29 g/m*3 -3.2 C 3.2 km/h
669 30-03-2020 08:40:00 -3.1 C 3.32 g/m*3 -3.1 C 0 km/h
670 30-03-2020 08:45:00 -3.1 C 3.32 g/m*3 -3.1 C 0 km/h
671 30-03-2020 08:50:00 -3 C 3.34 g/m*3 -3 C 0 km/h
672 30-03-2020 08:55:00 -2.9 C 3.32 g/m*3 -2.9 C 0 km/h
673 30-03-2020 09:00:00 -2.8 C 3.35 g/m*3 -2.8 C 0 km/h
674 30-03-2020 09:05:00 -2.7 C 3.33 g/m*3 -2.7 C 0 km/h
675 30-03-2020 09:10:00 -2.6 C 3.35 g/m*3 -2.6 C 1.6 km/h
Sensor: Nr:Datum:Temp:Abs-Feuchte:Windchill:Wind:
Aussen-T/F 676 30-03-2020 09:15:00 -2.5 C 3.34 g/m*3 -2.5 C 0 km/h
677 30-03-2020 09:20:00 -2.4 C 3.32 g/m*3 -2.4 C 3.2 km/h
678 30-03-2020 09:25:00 -2.3 C 3.34 g/m*3 -2.3 C 1.6 km/h
679 30-03-2020 09:30:00 -2.2 C 3.33 g/m*3 -2.2 C 1.6 km/h
680 30-03-2020 09:35:00 -2.1 C 3.35 g/m*3 -2.1 C 1.6 km/h
681 30-03-2020 09:40:00 -1.9 C 3.35 g/m*3 -1.9 C 3.2 km/h
682 30-03-2020 09:45:00 -1.8 C 3.38 g/m*3 -1.8 C 0 km/h
683 30-03-2020 09:50:00 -1.7 C 3.44 g/m*3 -1.7 C 0 km/h
684 30-03-2020 09:55:00 -1.7 C 3.44 g/m*3 -1.7 C 3.2 km/h
685 30-03-2020 10:00:00 -1.6 C 3.47 g/m*3 -1.6 C 3.2 km/h
686 30-03-2020 10:05:00 -1.5 C 3.45 g/m*3 -1.5 C 0 km/h
687 30-03-2020 10:10:00 -1.4 C 3.52 g/m*3 -1.4 C 0 km/h
688 30-03-2020 10:15:00 -1.3 C 3.54 g/m*3 -1.3 C 1.6 km/h
689 30-03-2020 10:20:00 -1.2 C 3.57 g/m*3 -1.2 C 1.6 km/h
690 30-03-2020 10:25:00 -1.1 C 3.5 g/m*3 -1.1 C 1.6 km/h
691 30-03-2020 10:30:00 -0.9 C 3.51 g/m*3 -0.9 C 1.6 km/h
692 30-03-2020 10:35:00 -0.7 C 3.46 g/m*3 -2.99 C 6.4 km/h
693 30-03-2020 10:40:00 -0.3 C 3.37 g/m*3 -4.69 C 14.5 km/h
694 30-03-2020 10:45:00 0.2 C 3.44 g/m*3 -1.95 C 6.4 km/h
695 30-03-2020 10:50:00 0.8 C 3.12 g/m*3 -2.67 C 11.3 km/h
696 30-03-2020 10:55:00 1.3 C 3.5 g/m*3 1.3 C 1.6 km/h
697 30-03-2020 11:00:00 1.4 C 3.2 g/m*3 -2.6 C 14.5 km/h
698 30-03-2020 11:05:00 1.9 C 3.04 g/m*3 -0.54 C 8.1 km/h
699 30-03-2020 11:10:00 2.2 C 3.04 g/m*3 2.2 C 3.2 km/h
700 30-03-2020 11:15:00 2.3 C 3.12 g/m*3 2.3 C 1.6 km/h
Sensor: Nr:Datum:Temp:Abs-Feuchte:Windchill:Wind:
Aussen-T/F 701 30-03-2020 11:20:00 2.4 C 2.97 g/m*3 -0.74 C 11.3 km/h
702 30-03-2020 11:25:00 2.7 C 2.91 g/m*3 2.7 C 4.8 km/h
703 30-03-2020 11:30:00 2.8 C 2.93 g/m*3 1.05 C 6.4 km/h
704 30-03-2020 11:35:00 3.1 C 2.93 g/m*3 0.87 C 8.1 km/h
705 30-03-2020 11:40:00 3.3 C 2.85 g/m*3 0.7 C 9.7 km/h
706 30-03-2020 11:45:00 3.3 C 2.79 g/m*3 1.63 C 6.4 km/h
707 30-03-2020 11:50:00 3.4 C 2.87 g/m*3 3.4 C 4.8 km/h
708 30-03-2020 11:55:00 3.6 C 2.72 g/m*3 1.46 C 8.1 km/h
709 30-03-2020 12:00:00 3.7 C 2.8 g/m*3 0.82 C 11.3 km/h
710 30-03-2020 12:05:00 3.8 C 2.7 g/m*3 3.8 C 4.8 km/h
711 30-03-2020 12:10:00 4 C 2.67 g/m*3 1.53 C 9.7 km/h
712 30-03-2020 12:15:00 4.1 C 2.69 g/m*3 4.1 C 4.8 km/h
713 30-03-2020 12:20:00 4.2 C 2.58 g/m*3 4.2 C 4.8 km/h
714 30-03-2020 12:25:00 4.3 C 2.46 g/m*3 4.3 C 4.8 km/h
715 30-03-2020 12:30:00 4.4 C 2.48 g/m*3 2.4 C 8.1 km/h
716 30-03-2020 12:35:00 4.6 C 2.51 g/m*3 1.91 C 11.3 km/h
717 30-03-2020 12:40:00 4.8 C 2.48 g/m*3 2.87 C 8.1 km/h
718 30-03-2020 12:45:00 4.9 C 2.5 g/m*3 4.9 C 3.2 km/h
719 30-03-2020 12:50:00 5.1 C 2.6 g/m*3 2.51 C 11.3 km/h
720 30-03-2020 12:55:00 5.1 C 2.46 g/m*3 5.1 C 4.8 km/h
721 30-03-2020 13:00:00 5.3 C 2.5 g/m*3 5.3 C 4.8 km/h
722 30-03-2020 13:05:00 5.5 C 2.6 g/m*3 3.7 C 8.1 km/h
723 30-03-2020 13:10:00 5.7 C 2.7 g/m*3 4.4 C 6.4 km/h
724 30-03-2020 13:15:00 5.9 C 2.74 g/m*3 4.63 C 6.4 km/h
725 30-03-2020 13:20:00 5.9 C 2.67 g/m*3 3.48 C 11.3 km/h
Sensor: Nr:Datum:Temp:Abs-Feuchte:Windchill:Wind:
Aussen-T/F 726 30-03-2020 13:25:00 5.9 C 2.6 g/m*3 3.8 C 9.7 km/h
727 30-03-2020 13:30:00 6 C 2.76 g/m*3 3.92 C 9.7 km/h
728 30-03-2020 13:35:00 6.2 C 2.72 g/m*3 4.15 C 9.7 km/h
729 30-03-2020 13:40:00 6.3 C 2.66 g/m*3 3.96 C 11.3 km/h
730 30-03-2020 13:45:00 6.4 C 2.68 g/m*3 6.4 C 3.2 km/h
731 30-03-2020 13:50:00 6.3 C 2.66 g/m*3 3.2 C 16.1 km/h
732 30-03-2020 13:55:00 6.4 C 2.68 g/m*3 4.75 C 8.1 km/h
733 30-03-2020 14:00:00 6.6 C 2.64 g/m*3 6.6 C 4.8 km/h
734 30-03-2020 14:05:00 6.7 C 2.66 g/m*3 5.56 C 6.4 km/h
735 30-03-2020 14:10:00 6.8 C 2.52 g/m*3 5.22 C 8.1 km/h
736 30-03-2020 14:15:00 6.8 C 2.52 g/m*3 5.67 C 6.4 km/h
737 30-03-2020 14:20:00 7.1 C 2.57 g/m*3 4.41 C 14.5 km/h
738 30-03-2020 14:25:00 7.3 C 2.61 g/m*3 4.23 C 17.7 km/h
739 30-03-2020 14:30:00 7.3 C 2.77 g/m*3 4.66 C 14.5 km/h
740 30-03-2020 14:35:00 7.3 C 2.69 g/m*3 5.47 C 9.7 km/h
741 30-03-2020 14:40:00 7.4 C 2.62 g/m*3 5.02 C 12.9 km/h
742 30-03-2020 14:45:00 7.6 C 2.82 g/m*3 5.53 C 11.3 km/h
743 30-03-2020 14:50:00 7.7 C 2.84 g/m*3 5.94 C 9.7 km/h
744 30-03-2020 14:55:00 7.9 C 2.96 g/m*3 5.89 C 11.3 km/h
745 30-03-2020 15:00:00 8.1 C 2.91 g/m*3 6.75 C 8.1 km/h
746 30-03-2020 15:05:00 7.9 C 2.87 g/m*3 5.18 C 16.1 km/h
747 30-03-2020 15:10:00 7.8 C 2.94 g/m*3 5.77 C 11.3 km/h
748 30-03-2020 15:15:00 7.8 C 2.94 g/m*3 5.06 C 16.1 km/h
749 30-03-2020 15:20:00 8 C 2.98 g/m*3 5.75 C 12.9 km/h
750 30-03-2020 15:25:00 8 C 2.98 g/m*3 5.3 C 16.1 km/h
Sensor: Nr:Datum:Temp:Abs-Feuchte:Windchill:Wind:
Aussen-T/F 751 30-03-2020 15:30:00 8 C 3.14 g/m*3 6.64 C 8.1 km/h
752 30-03-2020 15:35:00 8.2 C 3.18 g/m*3 5.99 C 12.9 km/h
753 30-03-2020 15:40:00 8.2 C 3.1 g/m*3 5.99 C 12.9 km/h
754 30-03-2020 15:45:00 8.3 C 3.12 g/m*3 5.68 C 16.1 km/h
755 30-03-2020 15:50:00 8.3 C 3.2 g/m*3 6.37 C 11.3 km/h
756 30-03-2020 15:55:00 8.3 C 3.12 g/m*3 6.12 C 12.9 km/h
757 30-03-2020 16:00:00 8.4 C 3.14 g/m*3 6.01 C 14.5 km/h
758 30-03-2020 16:05:00 8.6 C 3.35 g/m*3 6.48 C 12.9 km/h
759 30-03-2020 16:10:00 8.8 C 3.31 g/m*3 6.5 C 14.5 km/h
760 30-03-2020 16:15:00 9.2 C 3.3 g/m*3 6.99 C 14.5 km/h
761 30-03-2020 16:20:00 9.2 C 3.39 g/m*3 6.99 C 14.5 km/h
762 30-03-2020 16:25:00 9.3 C 3.42 g/m*3 7.33 C 12.9 km/h
763 30-03-2020 16:30:00 9 C 3.35 g/m*3 7.21 C 11.3 km/h
764 30-03-2020 16:35:00 8.8 C 3.39 g/m*3 6.97 C 11.3 km/h
765 30-03-2020 16:40:00 9.1 C 3.55 g/m*3 7.33 C 11.3 km/h
766 30-03-2020 16:45:00 9.4 C 3.62 g/m*3 7.97 C 9.7 km/h
767 30-03-2020 16:50:00 9.5 C 3.55 g/m*3 7.58 C 12.9 km/h
768 30-03-2020 16:55:00 9.4 C 3.62 g/m*3 7.46 C 12.9 km/h
769 30-03-2020 17:00:00 9.1 C 3.55 g/m*3 6.87 C 14.5 km/h
770 30-03-2020 17:05:00 9.2 C 3.75 g/m*3 6.99 C 14.5 km/h
771 30-03-2020 17:10:00 9.8 C 3.71 g/m*3 7.54 C 16.1 km/h
772 30-03-2020 17:15:00 9.9 C 3.73 g/m*3 7.48 C 17.7 km/h
773 30-03-2020 17:20:00 9.8 C 3.62 g/m*3 7.54 C 16.1 km/h
774 30-03-2020 17:25:00 9.9 C 3.64 g/m*3 7.85 C 14.5 km/h
775 30-03-2020 17:30:00 9.6 C 3.66 g/m*3 7.29 C 16.1 km/h
Sensor: Nr:Datum:Temp:Abs-Feuchte:Windchill:Wind:
Aussen-T/F 776 30-03-2020 17:35:00 9.7 C 3.78 g/m*3 7.41 C 16.1 km/h
777 30-03-2020 17:40:00 9.7 C 3.87 g/m*3 7.23 C 17.7 km/h
778 30-03-2020 17:45:00 9.4 C 3.89 g/m*3 7.24 C 14.5 km/h
779 30-03-2020 17:50:00 9.2 C 3.93 g/m*3 6.61 C 17.7 km/h
780 30-03-2020 17:55:00 8.9 C 3.94 g/m*3 6.85 C 12.9 km/h
781 30-03-2020 18:00:00 8.8 C 4 g/m*3 5.34 C 25.7 km/h
782 30-03-2020 18:05:00 8.5 C 3.93 g/m*3 6.36 C 12.9 km/h
783 30-03-2020 18:10:00 8.2 C 3.94 g/m*3 6.25 C 11.3 km/h
784 30-03-2020 18:15:00 7.9 C 4.02 g/m*3 6.18 C 9.7 km/h
785 30-03-2020 18:20:00 8.1 C 4.16 g/m*3 6.13 C 11.3 km/h
786 30-03-2020 18:25:00 8.4 C 4.16 g/m*3 6.24 C 12.9 km/h
787 30-03-2020 18:30:00 8.7 C 4.15 g/m*3 6.85 C 11.3 km/h
788 30-03-2020 18:35:00 8.9 C 4.2 g/m*3 7.09 C 11.3 km/h
789 30-03-2020 18:40:00 8.8 C 4.09 g/m*3 6.3 C 16.1 km/h
790 30-03-2020 18:45:00 8.7 C 4.15 g/m*3 6.6 C 12.9 km/h
791 30-03-2020 18:50:00 8.7 C 4.24 g/m*3 7.46 C 8.1 km/h
792 30-03-2020 18:55:00 8.8 C 4.26 g/m*3 6.97 C 11.3 km/h
793 30-03-2020 19:00:00 8.6 C 4.21 g/m*3 6.73 C 11.3 km/h
794 30-03-2020 19:05:00 8.5 C 4.27 g/m*3 6.36 C 12.9 km/h
795 30-03-2020 19:10:00 8.3 C 4.21 g/m*3 5.89 C 14.5 km/h
796 30-03-2020 19:15:00 8.1 C 4.24 g/m*3 6.42 C 9.7 km/h
797 30-03-2020 19:20:00 7.8 C 4.24 g/m*3 7.8 C 4.8 km/h
798 30-03-2020 19:25:00 7.6 C 4.19 g/m*3 6.16 C 8.1 km/h
799 30-03-2020 19:30:00 7.4 C 4.21 g/m*3 5.58 C 9.7 km/h
800 30-03-2020 19:35:00 7.3 C 4.27 g/m*3 5.81 C 8.1 km/h
Sensor: Nr:Datum:Temp:Abs-Feuchte:Windchill:Wind:
Aussen-T/F 801 30-03-2020 19:40:00 7.2 C 4.24 g/m*3 7.2 C 4.8 km/h
802 30-03-2020 19:45:00 7 C 4.26 g/m*3 7 C 3.2 km/h
803 30-03-2020 19:50:00 6.8 C 4.28 g/m*3 6.8 C 1.6 km/h
804 30-03-2020 19:55:00 6.4 C 4.32 g/m*3 6.4 C 0 km/h
805 30-03-2020 20:00:00 5.9 C 4.25 g/m*3 5.9 C 0 km/h
806 30-03-2020 20:05:00 5.4 C 4.26 g/m*3 5.4 C 0 km/h
807 30-03-2020 20:10:00 4.9 C 4.19 g/m*3 4.9 C 0 km/h
808 30-03-2020 20:15:00 4.6 C 4.23 g/m*3 4.6 C 0 km/h
809 30-03-2020 20:20:00 4.3 C 4.22 g/m*3 4.3 C 1.6 km/h
810 30-03-2020 20:25:00 4.2 C 4.32 g/m*3 4.2 C 1.6 km/h
811 30-03-2020 20:30:00 4.1 C 4.35 g/m*3 4.1 C 3.2 km/h
812 30-03-2020 20:35:00 3.9 C 4.36 g/m*3 3.9 C 4.8 km/h
813 30-03-2020 20:40:00 3.8 C 4.33 g/m*3 3.8 C 4.8 km/h
814 30-03-2020 20:45:00 3.7 C 4.3 g/m*3 3.7 C 1.6 km/h
815 30-03-2020 20:50:00 3.6 C 4.33 g/m*3 3.6 C 4.8 km/h
816 30-03-2020 20:55:00 3.6 C 4.39 g/m*3 3.6 C 4.8 km/h
817 30-03-2020 21:00:00 3.5 C 4.43 g/m*3 1.86 C 6.4 km/h
818 30-03-2020 21:05:00 3.6 C 4.52 g/m*3 3.6 C 4.8 km/h
819 30-03-2020 21:10:00 3.6 C 4.52 g/m*3 3.6 C 4.8 km/h
820 30-03-2020 21:15:00 3.7 C 4.55 g/m*3 3.7 C 4.8 km/h
821 30-03-2020 21:20:00 3.7 C 4.61 g/m*3 3.7 C 4.8 km/h
822 30-03-2020 21:25:00 3.8 C 4.64 g/m*3 3.8 C 4.8 km/h
823 30-03-2020 21:30:00 3.8 C 4.64 g/m*3 3.8 C 3.2 km/h
824 30-03-2020 21:35:00 3.9 C 4.67 g/m*3 3.9 C 1.6 km/h
825 30-03-2020 21:40:00 4 C 4.7 g/m*3 4 C 0 km/h
Sensor: Nr:Datum:Temp:Abs-Feuchte:Windchill:Wind:
Aussen-T/F 826 30-03-2020 21:45:00 4 C 4.7 g/m*3 4 C 3.2 km/h
827 30-03-2020 21:50:00 4 C 4.7 g/m*3 4 C 3.2 km/h
828 30-03-2020 21:55:00 4.1 C 4.74 g/m*3 4.1 C 1.6 km/h
829 30-03-2020 22:00:00 4 C 4.7 g/m*3 4 C 0 km/h
830 30-03-2020 22:05:00 4 C 4.77 g/m*3 4 C 0 km/h
831 30-03-2020 22:10:00 3.9 C 4.74 g/m*3 3.9 C 0 km/h
832 30-03-2020 22:15:00 4 C 4.7 g/m*3 4 C 3.2 km/h
833 30-03-2020 22:20:00 4 C 4.7 g/m*3 4 C 0 km/h
834 30-03-2020 22:25:00 4.1 C 4.8 g/m*3 4.1 C 0 km/h
835 30-03-2020 22:30:00 4.1 C 4.67 g/m*3 4.1 C 3.2 km/h
836 30-03-2020 22:35:00 4.1 C 4.67 g/m*3 4.1 C 0 km/h
837 30-03-2020 22:40:00 4.2 C 4.7 g/m*3 4.2 C 0 km/h
838 30-03-2020 22:45:00 4.2 C 4.64 g/m*3 4.2 C 3.2 km/h
839 30-03-2020 22:50:00 4.3 C 4.67 g/m*3 4.3 C 1.6 km/h
840 30-03-2020 22:55:00 4.3 C 4.74 g/m*3 4.3 C 0 km/h
841 30-03-2020 23:00:00 4.3 C 4.67 g/m*3 4.3 C 4.8 km/h
842 30-03-2020 23:05:00 4.3 C 4.67 g/m*3 4.3 C 0 km/h
843 30-03-2020 23:10:00 4.3 C 4.67 g/m*3 4.3 C 3.2 km/h
844 30-03-2020 23:15:00 4.4 C 4.7 g/m*3 4.4 C 0 km/h
845 30-03-2020 23:20:00 4.4 C 4.77 g/m*3 4.4 C 0 km/h
846 30-03-2020 23:25:00 4.4 C 4.7 g/m*3 4.4 C 1.6 km/h
847 30-03-2020 23:30:00 4.4 C 4.7 g/m*3 4.4 C 0 km/h
848 30-03-2020 23:35:00 4.4 C 4.7 g/m*3 4.4 C 3.2 km/h
849 30-03-2020 23:40:00 4.4 C 4.77 g/m*3 4.4 C 1.6 km/h
850 30-03-2020 23:45:00 4.4 C 4.77 g/m*3 4.4 C 1.6 km/h
Sensor: Nr:Datum:Temp:Abs-Feuchte:Windchill:Wind:
Aussen-T/F 851 30-03-2020 23:50:00 4.4 C 4.77 g/m*3 4.4 C 0 km/h
852 30-03-2020 23:55:00 4.4 C 4.7 g/m*3 4.4 C 1.6 km/h
853 31-03-2020 00:00:00 4.4 C 4.7 g/m*3 4.4 C 1.6 km/h
854 31-03-2020 00:05:00 4.4 C 4.7 g/m*3 4.4 C 0 km/h
855 31-03-2020 00:10:00 4.4 C 4.7 g/m*3 4.4 C 0 km/h
856 31-03-2020 00:15:00 4.5 C 4.73 g/m*3 4.5 C 3.2 km/h
857 31-03-2020 00:20:00 4.5 C 4.73 g/m*3 4.5 C 3.2 km/h
858 31-03-2020 00:25:00 4.5 C 4.8 g/m*3 4.5 C 3.2 km/h
859 31-03-2020 00:30:00 4.5 C 4.8 g/m*3 4.5 C 1.6 km/h
860 31-03-2020 00:35:00 4.4 C 4.77 g/m*3 4.4 C 0 km/h
861 31-03-2020 00:40:00 4.5 C 4.8 g/m*3 4.5 C 0 km/h
862 31-03-2020 00:45:00 4.5 C 4.8 g/m*3 4.5 C 0 km/h
863 31-03-2020 00:50:00 4.6 C 4.83 g/m*3 4.6 C 0 km/h
864 31-03-2020 00:55:00 4.6 C 4.96 g/m*3 4.6 C 4.8 km/h
865 31-03-2020 01:00:00 4.7 C 5 g/m*3 4.7 C 0 km/h
866 31-03-2020 01:05:00 4.7 C 5.06 g/m*3 4.7 C 1.6 km/h
867 31-03-2020 01:10:00 4.7 C 5.06 g/m*3 4.7 C 1.6 km/h
868 31-03-2020 01:15:00 4.7 C 5.06 g/m*3 4.7 C 1.6 km/h
869 31-03-2020 01:20:00 4.7 C 5.13 g/m*3 4.7 C 1.6 km/h
870 31-03-2020 01:25:00 4.6 C 5.16 g/m*3 4.6 C 1.6 km/h
871 31-03-2020 01:30:00 4.5 C 5.19 g/m*3 4.5 C 3.2 km/h
872 31-03-2020 01:35:00 4.5 C 5.26 g/m*3 4.5 C 0 km/h
873 31-03-2020 01:40:00 4.5 C 5.26 g/m*3 3.02 C 6.4 km/h
874 31-03-2020 01:45:00 4.5 C 5.32 g/m*3 4.5 C 1.6 km/h
875 31-03-2020 01:50:00 4.6 C 5.36 g/m*3 4.6 C 1.6 km/h
Sensor: Nr:Datum:Temp:Abs-Feuchte:Windchill:Wind:
Aussen-T/F 876 31-03-2020 01:55:00 4.6 C 5.43 g/m*3 4.6 C 4.8 km/h
877 31-03-2020 02:00:00 4.6 C 5.43 g/m*3 4.6 C 3.2 km/h
878 31-03-2020 02:05:00 4.5 C 5.32 g/m*3 4.5 C 0 km/h
879 31-03-2020 02:10:00 4.4 C 5.35 g/m*3 4.4 C 4.8 km/h
880 31-03-2020 02:15:00 4.3 C 5.32 g/m*3 4.3 C 4.8 km/h
881 31-03-2020 02:20:00 4.2 C 5.35 g/m*3 4.2 C 3.2 km/h
882 31-03-2020 02:25:00 4.1 C 5.31 g/m*3 4.1 C 0 km/h
883 31-03-2020 02:30:00 4.1 C 5.38 g/m*3 4.1 C 0 km/h
884 31-03-2020 02:35:00 4.1 C 5.38 g/m*3 4.1 C 0 km/h
885 31-03-2020 02:40:00 4 C 5.34 g/m*3 4 C 0 km/h
886 31-03-2020 02:45:00 3.9 C 5.31 g/m*3 3.9 C 0 km/h
887 31-03-2020 02:50:00 3.8 C 5.27 g/m*3 3.8 C 0 km/h
888 31-03-2020 02:55:00 3.6 C 5.2 g/m*3 3.6 C 0 km/h
889 31-03-2020 03:00:00 3.4 C 5.19 g/m*3 3.4 C 1.6 km/h
890 31-03-2020 03:05:00 3.4 C 5.25 g/m*3 3.4 C 0 km/h
891 31-03-2020 03:10:00 3.3 C 5.22 g/m*3 3.3 C 0 km/h
892 31-03-2020 03:15:00 3.2 C 5.18 g/m*3 3.2 C 3.2 km/h
893 31-03-2020 03:20:00 3.2 C 5.24 g/m*3 3.2 C 3.2 km/h
894 31-03-2020 03:25:00 3.1 C 5.21 g/m*3 3.1 C 1.6 km/h
895 31-03-2020 03:30:00 3.1 C 5.27 g/m*3 3.1 C 1.6 km/h
896 31-03-2020 03:35:00 3.1 C 5.27 g/m*3 3.1 C 1.6 km/h
897 31-03-2020 03:40:00 3.1 C 5.27 g/m*3 3.1 C 0 km/h
898 31-03-2020 03:45:00 3 C 5.23 g/m*3 3 C 0 km/h
899 31-03-2020 03:50:00 2.9 C 5.2 g/m*3 2.9 C 0 km/h
900 31-03-2020 03:55:00 2.9 C 5.26 g/m*3 2.9 C 0 km/h
Sensor: Nr:Datum:Temp:Abs-Feuchte:Windchill:Wind:
Aussen-T/F 901 31-03-2020 04:00:00 3 C 5.29 g/m*3 3 C 0 km/h
902 31-03-2020 04:05:00 3.1 C 5.39 g/m*3 3.1 C 0 km/h
903 31-03-2020 04:10:00 3.2 C 5.42 g/m*3 3.2 C 0 km/h
904 31-03-2020 04:15:00 3.2 C 5.42 g/m*3 3.2 C 0 km/h
905 31-03-2020 04:20:00 3.3 C 5.46 g/m*3 3.3 C 1.6 km/h
906 31-03-2020 04:25:00 3.4 C 5.5 g/m*3 3.4 C 0 km/h
907 31-03-2020 04:30:00 3.4 C 5.5 g/m*3 3.4 C 0 km/h
908 31-03-2020 04:35:00 3.4 C 5.5 g/m*3 3.4 C 0 km/h
909 31-03-2020 04:40:00 3.5 C 5.53 g/m*3 3.5 C 0 km/h
910 31-03-2020 04:45:00 3.5 C 5.53 g/m*3 3.5 C 0 km/h
911 31-03-2020 04:50:00 3.6 C 5.57 g/m*3 3.6 C 1.6 km/h
912 31-03-2020 04:55:00 3.6 C 5.57 g/m*3 3.6 C 0 km/h
913 31-03-2020 05:00:00 3.7 C 5.61 g/m*3 3.7 C 0 km/h
914 31-03-2020 05:05:00 3.7 C 5.61 g/m*3 3.7 C 0 km/h
915 31-03-2020 05:10:00 3.7 C 5.55 g/m*3 3.7 C 0 km/h
916 31-03-2020 05:15:00 3.7 C 5.55 g/m*3 3.7 C 0 km/h
917 31-03-2020 05:20:00 3.6 C 5.51 g/m*3 3.6 C 0 km/h
918 31-03-2020 05:25:00 3.4 C 5.44 g/m*3 3.4 C 0 km/h
919 31-03-2020 05:30:00 3.3 C 5.4 g/m*3 3.3 C 0 km/h
920 31-03-2020 05:35:00 3.2 C 5.36 g/m*3 3.2 C 1.6 km/h
921 31-03-2020 05:40:00 3.1 C 5.27 g/m*3 3.1 C 1.6 km/h
922 31-03-2020 05:45:00 2.8 C 5.16 g/m*3 2.8 C 1.6 km/h
923 31-03-2020 05:50:00 2.7 C 5.13 g/m*3 2.7 C 0 km/h
924 31-03-2020 05:55:00 2.4 C 5.02 g/m*3 2.4 C 3.2 km/h
925 31-03-2020 06:00:00 2.3 C 4.99 g/m*3 2.3 C 3.2 km/h
Sensor: Nr:Datum:Temp:Abs-Feuchte:Windchill:Wind:
Aussen-T/F 926 31-03-2020 06:05:00 2.2 C 5.01 g/m*3 2.2 C 1.6 km/h
927 31-03-2020 06:10:00 2.1 C 4.98 g/m*3 2.1 C 1.6 km/h
928 31-03-2020 06:15:00 1.9 C 4.91 g/m*3 1.9 C 0 km/h
929 31-03-2020 06:20:00 1.9 C 4.97 g/m*3 1.9 C 0 km/h
930 31-03-2020 06:25:00 1.9 C 4.97 g/m*3 1.9 C 0 km/h
931 31-03-2020 06:30:00 2 C 5.06 g/m*3 2 C 0 km/h
932 31-03-2020 06:35:00 2.2 C 5.18 g/m*3 2.2 C 0 km/h
933 31-03-2020 06:40:00 2.3 C 5.22 g/m*3 2.3 C 0 km/h
934 31-03-2020 06:45:00 2.3 C 5.22 g/m*3 2.3 C 0 km/h
935 31-03-2020 06:50:00 2.4 C 5.25 g/m*3 2.4 C 0 km/h
936 31-03-2020 06:55:00 2.5 C 5.29 g/m*3 2.5 C 0 km/h
937 31-03-2020 07:00:00 2.6 C 5.32 g/m*3 2.6 C 0 km/h
938 31-03-2020 07:05:00 2.6 C 5.32 g/m*3 2.6 C 0 km/h
939 31-03-2020 07:10:00 2.7 C 5.36 g/m*3 2.7 C 0 km/h
940 31-03-2020 07:15:00 2.7 C 5.36 g/m*3 2.7 C 0 km/h
941 31-03-2020 07:20:00 2.7 C 5.36 g/m*3 2.7 C 0 km/h
942 31-03-2020 07:25:00 2.7 C 5.36 g/m*3 2.7 C 0 km/h
943 31-03-2020 07:30:00 2.7 C 5.36 g/m*3 2.7 C 0 km/h
944 31-03-2020 07:35:00 2.7 C 5.36 g/m*3 2.7 C 0 km/h
945 31-03-2020 07:40:00 2.7 C 5.36 g/m*3 2.7 C 0 km/h
946 31-03-2020 07:45:00 2.6 C 5.27 g/m*3 2.6 C 0 km/h
947 31-03-2020 07:50:00 2.6 C 5.32 g/m*3 2.6 C 0 km/h
948 31-03-2020 07:55:00 2.6 C 5.32 g/m*3 2.6 C 0 km/h
949 31-03-2020 08:00:00 2.7 C 5.36 g/m*3 2.7 C 0 km/h
950 31-03-2020 08:05:00 2.8 C 5.4 g/m*3 2.8 C 0 km/h
Sensor: Nr:Datum:Temp:Abs-Feuchte:Windchill:Wind:
Aussen-T/F 951 31-03-2020 08:10:00 2.9 C 5.43 g/m*3 2.9 C 0 km/h
952 31-03-2020 08:15:00 3.1 C 5.57 g/m*3 3.1 C 0 km/h
953 31-03-2020 08:20:00 3.3 C 5.58 g/m*3 3.3 C 0 km/h
954 31-03-2020 08:25:00 3.4 C 5.62 g/m*3 3.4 C 0 km/h
955 31-03-2020 08:30:00 3.6 C 5.63 g/m*3 3.6 C 0 km/h
956 31-03-2020 08:35:00 3.7 C 5.67 g/m*3 3.7 C 1.6 km/h
957 31-03-2020 08:40:00 3.8 C 5.58 g/m*3 2.21 C 6.4 km/h
958 31-03-2020 08:45:00 3.9 C 5.49 g/m*3 1.82 C 8.1 km/h
959 31-03-2020 08:50:00 4.1 C 5.44 g/m*3 2.05 C 8.1 km/h
960 31-03-2020 08:55:00 4.2 C 5.35 g/m*3 2.67 C 6.4 km/h
961 31-03-2020 09:00:00 4.3 C 5.25 g/m*3 1.55 C 11.3 km/h
962 31-03-2020 09:05:00 4.4 C 5.22 g/m*3 2.4 C 8.1 km/h
963 31-03-2020 09:10:00 4.4 C 5.09 g/m*3 4.4 C 4.8 km/h
964 31-03-2020 09:15:00 4.4 C 5.09 g/m*3 2.9 C 6.4 km/h
965 31-03-2020 09:20:00 4.4 C 5.03 g/m*3 2.01 C 9.7 km/h
966 31-03-2020 09:25:00 4.5 C 5.06 g/m*3 2.52 C 8.1 km/h
967 31-03-2020 09:30:00 4.5 C 5.06 g/m*3 4.5 C 4.8 km/h
968 31-03-2020 09:35:00 4.6 C 5.03 g/m*3 2.64 C 8.1 km/h
969 31-03-2020 09:40:00 4.6 C 4.96 g/m*3 3.13 C 6.4 km/h
970 31-03-2020 09:45:00 4.6 C 5.03 g/m*3 4.6 C 4.8 km/h
971 31-03-2020 09:50:00 4.7 C 4.86 g/m*3 1.73 C 12.9 km/h
972 31-03-2020 09:55:00 4.8 C 5.03 g/m*3 4.8 C 4.8 km/h
973 31-03-2020 10:00:00 4.9 C 5 g/m*3 3.48 C 6.4 km/h
974 31-03-2020 10:05:00 4.9 C 4.86 g/m*3 2.27 C 11.3 km/h
975 31-03-2020 10:10:00 4.9 C 4.93 g/m*3 2.27 C 11.3 km/h
Sensor: Nr:Datum:Temp:Abs-Feuchte:Windchill:Wind:
Aussen-T/F 976 31-03-2020 10:15:00 4.9 C 4.93 g/m*3 2.99 C 8.1 km/h
977 31-03-2020 10:20:00 4.9 C 4.93 g/m*3 2.27 C 11.3 km/h
978 31-03-2020 10:25:00 4.9 C 4.86 g/m*3 4.9 C 4.8 km/h
979 31-03-2020 10:30:00 4.8 C 4.83 g/m*3 4.8 C 4.8 km/h
980 31-03-2020 10:35:00 4.8 C 4.83 g/m*3 1.58 C 14.5 km/h
981 31-03-2020 10:40:00 4.8 C 4.76 g/m*3 2.49 C 9.7 km/h
982 31-03-2020 10:45:00 4.8 C 4.76 g/m*3 2.49 C 9.7 km/h
983 31-03-2020 10:50:00 4.8 C 4.69 g/m*3 2.87 C 8.1 km/h
984 31-03-2020 10:55:00 4.8 C 4.69 g/m*3 2.49 C 9.7 km/h
985 31-03-2020 11:00:00 4.8 C 4.69 g/m*3 2.49 C 9.7 km/h
986 31-03-2020 11:05:00 4.8 C 4.69 g/m*3 2.87 C 8.1 km/h
987 31-03-2020 11:10:00 4.8 C 4.63 g/m*3 1.11 C 17.7 km/h
988 31-03-2020 11:15:00 4.9 C 4.59 g/m*3 2.61 C 9.7 km/h
989 31-03-2020 11:20:00 5.1 C 4.65 g/m*3 2.84 C 9.7 km/h
990 31-03-2020 11:25:00 5.2 C 4.61 g/m*3 2.96 C 9.7 km/h
991 31-03-2020 11:30:00 5.4 C 4.6 g/m*3 4.06 C 6.4 km/h
992 31-03-2020 11:35:00 5.5 C 4.57 g/m*3 3.32 C 9.7 km/h
993 31-03-2020 11:40:00 5.6 C 4.52 g/m*3 2.83 C 12.9 km/h
994 31-03-2020 11:45:00 5.6 C 4.52 g/m*3 2.83 C 12.9 km/h
995 31-03-2020 11:50:00 5.6 C 4.52 g/m*3 2.33 C 16.1 km/h
996 31-03-2020 11:55:00 5.7 C 4.41 g/m*3 2.95 C 12.9 km/h
997 31-03-2020 12:00:00 5.8 C 4.44 g/m*3 4.52 C 6.4 km/h
998 31-03-2020 12:05:00 5.9 C 4.4 g/m*3 4.17 C 8.1 km/h
999 31-03-2020 12:10:00 6 C 4.43 g/m*3 6 C 3.2 km/h
1000 31-03-2020 12:15:00 6.3 C 4.29 g/m*3 3.68 C 12.9 km/h
Sensor: Nr:Datum:Temp:Abs-Feuchte:Windchill:Wind:
Aussen-T/F 1001 31-03-2020 12:20:00 6.6 C 4.23 g/m*3 4.32 C 11.3 km/h
1002 31-03-2020 12:25:00 6.6 C 4.15 g/m*3 3.57 C 16.1 km/h
1003 31-03-2020 12:30:00 6.8 C 4.21 g/m*3 4.29 C 12.9 km/h
1004 31-03-2020 12:35:00 6.9 C 4.08 g/m*3 4.68 C 11.3 km/h
1005 31-03-2020 12:40:00 7.2 C 4.24 g/m*3 4.31 C 16.1 km/h
1006 31-03-2020 12:45:00 7.2 C 4.16 g/m*3 4.77 C 12.9 km/h
1007 31-03-2020 12:50:00 7.2 C 4.16 g/m*3 5.04 C 11.3 km/h
1008 31-03-2020 12:55:00 7.2 C 4.24 g/m*3 5.35 C 9.7 km/h
1009 31-03-2020 13:00:00 7.2 C 4.08 g/m*3 4.53 C 14.5 km/h
1010 31-03-2020 13:05:00 7.1 C 3.98 g/m*3 5.23 C 9.7 km/h
1011 31-03-2020 13:10:00 6.9 C 3.93 g/m*3 5.34 C 8.1 km/h
1012 31-03-2020 13:15:00 7 C 3.95 g/m*3 5.11 C 9.7 km/h
1013 31-03-2020 13:20:00 7 C 3.8 g/m*3 4.8 C 11.3 km/h
1014 31-03-2020 13:25:00 7.1 C 3.82 g/m*3 4.65 C 12.9 km/h
1015 31-03-2020 13:30:00 7.2 C 3.77 g/m*3 5.69 C 8.1 km/h
1016 31-03-2020 13:35:00 7.4 C 3.82 g/m*3 5.02 C 12.9 km/h
1017 31-03-2020 13:40:00 7.7 C 3.73 g/m*3 4.73 C 17.7 km/h
1018 31-03-2020 13:45:00 7.7 C 3.57 g/m*3 5.38 C 12.9 km/h
1019 31-03-2020 13:50:00 7.8 C 3.59 g/m*3 5.51 C 12.9 km/h
1020 31-03-2020 13:55:00 8 C 3.55 g/m*3 5.75 C 12.9 km/h
1021 31-03-2020 14:00:00 8.2 C 3.6 g/m*3 5.55 C 16.1 km/h
1022 31-03-2020 14:05:00 8.2 C 3.6 g/m*3 5.99 C 12.9 km/h
1023 31-03-2020 14:10:00 8.2 C 3.68 g/m*3 5.76 C 14.5 km/h
1024 31-03-2020 14:15:00 8.5 C 3.76 g/m*3 6.61 C 11.3 km/h
1025 31-03-2020 14:20:00 8.8 C 3.92 g/m*3 6.97 C 11.3 km/h
Sensor: Nr:Datum:Temp:Abs-Feuchte:Windchill:Wind:
Aussen-T/F 1026 31-03-2020 14:25:00 8.8 C 3.83 g/m*3 5.93 C 19.3 km/h
1027 31-03-2020 14:30:00 8.7 C 3.81 g/m*3 6.17 C 16.1 km/h
1028 31-03-2020 14:35:00 8.8 C 3.74 g/m*3 6.72 C 12.9 km/h
1029 31-03-2020 14:40:00 8.7 C 3.63 g/m*3 6.17 C 16.1 km/h
1030 31-03-2020 14:45:00 8.8 C 3.66 g/m*3 6.72 C 12.9 km/h
1031 31-03-2020 14:50:00 8.8 C 3.66 g/m*3 6.5 C 14.5 km/h
1032 31-03-2020 14:55:00 8.8 C 3.66 g/m*3 6.97 C 11.3 km/h
1033 31-03-2020 15:00:00 8.9 C 3.68 g/m*3 6.85 C 12.9 km/h
1034 31-03-2020 15:05:00 8.9 C 3.42 g/m*3 7.09 C 11.3 km/h
1035 31-03-2020 15:10:00 8.8 C 3.66 g/m*3 6.3 C 16.1 km/h
1036 31-03-2020 15:15:00 8.9 C 3.59 g/m*3 6.62 C 14.5 km/h
1037 31-03-2020 15:20:00 8.9 C 3.59 g/m*3 6.62 C 14.5 km/h
1038 31-03-2020 15:25:00 9 C 3.61 g/m*3 8.21 C 6.4 km/h
1039 31-03-2020 15:30:00 9.1 C 3.64 g/m*3 7.33 C 11.3 km/h
1040 31-03-2020 15:35:00 9.1 C 3.55 g/m*3 7.33 C 11.3 km/h
1041 31-03-2020 15:40:00 9.1 C 3.55 g/m*3 6.31 C 19.3 km/h
1042 31-03-2020 15:45:00 9.2 C 3.57 g/m*3 7.21 C 12.9 km/h
1043 31-03-2020 15:50:00 9.3 C 3.5 g/m*3 7.12 C 14.5 km/h
1044 31-03-2020 15:55:00 9.3 C 3.5 g/m*3 7.33 C 12.9 km/h
1045 31-03-2020 16:00:00 9.5 C 3.64 g/m*3 7.58 C 12.9 km/h
1046 31-03-2020 16:05:00 9.6 C 3.57 g/m*3 7.94 C 11.3 km/h
1047 31-03-2020 16:10:00 9.6 C 3.48 g/m*3 6.94 C 19.3 km/h
1048 31-03-2020 16:15:00 9.6 C 3.57 g/m*3 8.52 C 8.1 km/h
1049 31-03-2020 16:20:00 9.7 C 3.6 g/m*3 7.41 C 16.1 km/h
1050 31-03-2020 16:25:00 9.8 C 3.43 g/m*3 7.54 C 16.1 km/h
Sensor: Nr:Datum:Temp:Abs-Feuchte:Windchill:Wind:
Aussen-T/F 1051 31-03-2020 16:30:00 9.9 C 3.45 g/m*3 7.66 C 16.1 km/h
1052 31-03-2020 16:35:00 10 C 3.66 g/m*3 8.19 C 12.9 km/h
1053 31-03-2020 16:40:00 10.1 C 3.5 g/m*3 7.42 C 20.9 km/h
1054 31-03-2020 16:45:00 9.9 C 3.36 g/m*3 8.06 C 12.9 km/h
1055 31-03-2020 16:50:00 10 C 3.57 g/m*3 7.61 C 17.7 km/h
1056 31-03-2020 16:55:00 10.1 C 3.5 g/m*3 7.57 C 19.3 km/h
1057 31-03-2020 17:00:00 10 C 3.38 g/m*3 8.42 C 11.3 km/h
1058 31-03-2020 17:05:00 10.2 C 3.71 g/m*3 9.22 C 8.1 km/h
1059 31-03-2020 17:10:00 10.6 C 3.51 g/m*3 9.69 C 8.1 km/h
1060 31-03-2020 17:15:00 10.9 C 3.58 g/m*3 10.04 C 8.1 km/h
1061 31-03-2020 17:20:00 11.2 C 3.65 g/m*3 11.2 C 9.7 km/h
1062 31-03-2020 17:25:00 11.3 C 3.67 g/m*3 11.3 C 9.7 km/h
1063 31-03-2020 17:30:00 11.3 C 3.47 g/m*3 11.3 C 6.4 km/h
1064 31-03-2020 17:35:00 11.1 C 3.53 g/m*3 11.1 C 16.1 km/h
1065 31-03-2020 17:40:00 11.1 C 3.53 g/m*3 11.1 C 6.4 km/h
1066 31-03-2020 17:45:00 11 C 3.6 g/m*3 9.4 C 12.9 km/h
1067 31-03-2020 17:50:00 10.9 C 3.38 g/m*3 8.9 C 16.1 km/h
1068 31-03-2020 17:55:00 10.5 C 3.39 g/m*3 8.59 C 14.5 km/h
1069 31-03-2020 18:00:00 10.5 C 3.39 g/m*3 8.8 C 12.9 km/h
1070 31-03-2020 18:05:00 10.7 C 3.44 g/m*3 8.65 C 16.1 km/h
1071 31-03-2020 18:10:00 10.8 C 3.56 g/m*3 10.8 C 4.8 km/h
1072 31-03-2020 18:15:00 11.2 C 3.65 g/m*3 11.2 C 3.2 km/h
1073 31-03-2020 18:20:00 11.3 C 3.57 g/m*3 11.3 C 16.1 km/h
1074 31-03-2020 18:25:00 10.9 C 3.48 g/m*3 9.28 C 12.9 km/h
1075 31-03-2020 18:30:00 10.7 C 3.63 g/m*3 9.52 C 9.7 km/h
Sensor: Nr:Datum:Temp:Abs-Feuchte:Windchill:Wind:
Aussen-T/F 1076 31-03-2020 18:35:00 10.7 C 3.54 g/m*3 9.81 C 8.1 km/h
1077 31-03-2020 18:40:00 10.6 C 3.51 g/m*3 9.14 C 11.3 km/h
1078 31-03-2020 18:45:00 10.6 C 3.61 g/m*3 10.6 C 4.8 km/h
1079 31-03-2020 18:50:00 10.7 C 3.44 g/m*3 10.18 C 6.4 km/h
1080 31-03-2020 18:55:00 10.6 C 3.51 g/m*3 10.6 C 4.8 km/h
1081 31-03-2020 19:00:00 10.6 C 3.51 g/m*3 9.69 C 8.1 km/h
1082 31-03-2020 19:05:00 10.3 C 3.54 g/m*3 8.78 C 11.3 km/h
1083 31-03-2020 19:10:00 10.1 C 3.4 g/m*3 8.8 C 9.7 km/h
1084 31-03-2020 19:15:00 10.1 C 3.5 g/m*3 10.1 C 3.2 km/h
1085 31-03-2020 19:20:00 10.1 C 3.5 g/m*3 9.1 C 8.1 km/h
1086 31-03-2020 19:25:00 9.9 C 3.45 g/m*3 9.9 C 3.2 km/h
1087 31-03-2020 19:30:00 9.8 C 3.53 g/m*3 9.8 C 4.8 km/h
1088 31-03-2020 19:35:00 9.7 C 3.78 g/m*3 9.7 C 1.6 km/h
1089 31-03-2020 19:40:00 9.4 C 3.71 g/m*3 9.4 C 1.6 km/h
1090 31-03-2020 19:45:00 9.2 C 3.93 g/m*3 9.2 C 1.6 km/h
1091 31-03-2020 19:50:00 8.7 C 4.06 g/m*3 8.7 C 3.2 km/h
1092 31-03-2020 19:55:00 8.2 C 4.02 g/m*3 8.2 C 3.2 km/h
1093 31-03-2020 20:00:00 7.6 C 4.11 g/m*3 7.6 C 4.8 km/h
1094 31-03-2020 20:05:00 7 C 4.03 g/m*3 7 C 4.8 km/h
1095 31-03-2020 20:10:00 6.5 C 4.05 g/m*3 6.5 C 3.2 km/h
1096 31-03-2020 20:15:00 6.1 C 4.09 g/m*3 6.1 C 3.2 km/h
1097 31-03-2020 20:20:00 5.7 C 3.99 g/m*3 5.7 C 4.8 km/h
1098 31-03-2020 20:25:00 5.3 C 4.02 g/m*3 5.3 C 4.8 km/h
1099 31-03-2020 20:30:00 5.1 C 4.04 g/m*3 5.1 C 4.8 km/h
1100 31-03-2020 20:35:00 4.8 C 4.02 g/m*3 4.8 C 3.2 km/h
Sensor: Nr:Datum:Temp:Abs-Feuchte:Windchill:Wind:
Aussen-T/F 1101 31-03-2020 20:40:00 4.6 C 4.04 g/m*3 4.6 C 3.2 km/h
1102 31-03-2020 20:45:00 4.4 C 3.98 g/m*3 4.4 C 3.2 km/h
1103 31-03-2020 20:50:00 4.2 C 3.99 g/m*3 4.2 C 4.8 km/h
1104 31-03-2020 20:55:00 4.1 C 4.03 g/m*3 4.1 C 4.8 km/h
1105 31-03-2020 21:00:00 3.9 C 3.98 g/m*3 3.9 C 4.8 km/h
1106 31-03-2020 21:05:00 3.8 C 4.02 g/m*3 3.8 C 3.2 km/h
1107 31-03-2020 21:10:00 3.7 C 3.99 g/m*3 3.7 C 1.6 km/h
1108 31-03-2020 21:15:00 3.6 C 3.96 g/m*3 3.6 C 3.2 km/h
1109 31-03-2020 21:20:00 3.5 C 3.94 g/m*3 3.5 C 4.8 km/h
1110 31-03-2020 21:25:00 3.4 C 3.97 g/m*3 3.4 C 4.8 km/h
1111 31-03-2020 21:30:00 3.3 C 3.88 g/m*3 3.3 C 3.2 km/h
1112 31-03-2020 21:35:00 3.3 C 3.94 g/m*3 3.3 C 3.2 km/h
1113 31-03-2020 21:40:00 3.2 C 3.98 g/m*3 3.2 C 3.2 km/h
1114 31-03-2020 21:45:00 3.1 C 3.95 g/m*3 1.4 C 6.4 km/h
1115 31-03-2020 21:50:00 3 C 3.92 g/m*3 3 C 4.8 km/h
1116 31-03-2020 21:55:00 2.9 C 3.9 g/m*3 2.9 C 3.2 km/h
1117 31-03-2020 22:00:00 2.8 C 3.87 g/m*3 2.8 C 4.8 km/h
1118 31-03-2020 22:05:00 2.8 C 3.93 g/m*3 2.8 C 3.2 km/h
1119 31-03-2020 22:10:00 2.7 C 3.9 g/m*3 2.7 C 4.8 km/h
1120 31-03-2020 22:15:00 2.6 C 3.94 g/m*3 2.6 C 4.8 km/h
1121 31-03-2020 22:20:00 2.5 C 3.91 g/m*3 2.5 C 4.8 km/h
1122 31-03-2020 22:25:00 2.4 C 3.88 g/m*3 2.4 C 4.8 km/h
1123 31-03-2020 22:30:00 2.3 C 3.86 g/m*3 2.3 C 4.8 km/h
1124 31-03-2020 22:35:00 2.3 C 3.91 g/m*3 2.3 C 4.8 km/h
1125 31-03-2020 22:40:00 2.2 C 3.89 g/m*3 2.2 C 4.8 km/h
Sensor: Nr:Datum:Temp:Abs-Feuchte:Windchill:Wind:
Aussen-T/F 1126 31-03-2020 22:45:00 2.2 C 3.94 g/m*3 2.2 C 4.8 km/h
1127 31-03-2020 22:50:00 2.1 C 3.86 g/m*3 2.1 C 4.8 km/h
1128 31-03-2020 22:55:00 2 C 3.89 g/m*3 2 C 3.2 km/h
1129 31-03-2020 23:00:00 1.9 C 3.86 g/m*3 1.9 C 4.8 km/h
1130 31-03-2020 23:05:00 1.8 C 3.89 g/m*3 1.8 C 3.2 km/h
1131 31-03-2020 23:10:00 1.7 C 3.87 g/m*3 1.7 C 4.8 km/h
1132 31-03-2020 23:15:00 1.7 C 3.92 g/m*3 1.7 C 4.8 km/h
1133 31-03-2020 23:20:00 1.6 C 3.89 g/m*3 1.6 C 3.2 km/h
1134 31-03-2020 23:25:00 1.4 C 3.89 g/m*3 1.4 C 3.2 km/h
1135 31-03-2020 23:30:00 1.3 C 3.87 g/m*3 1.3 C 4.8 km/h
1136 31-03-2020 23:35:00 1.2 C 3.84 g/m*3 1.2 C 4.8 km/h
1137 31-03-2020 23:40:00 1.2 C 3.89 g/m*3 1.2 C 4.8 km/h
1138 31-03-2020 23:45:00 1.1 C 3.87 g/m*3 1.1 C 3.2 km/h
1139 31-03-2020 23:50:00 1.1 C 3.87 g/m*3 1.1 C 3.2 km/h
1140 31-03-2020 23:55:00 1.1 C 3.87 g/m*3 1.1 C 3.2 km/h
1141 01-04-2020 00:00:00 1 C 3.84 g/m*3 1 C 3.2 km/h
1142 01-04-2020 00:05:00 0.9 C 3.81 g/m*3 0.9 C 1.6 km/h
1143 01-04-2020 00:10:00 0.8 C 3.84 g/m*3 0.8 C 1.6 km/h
1144 01-04-2020 00:15:00 0.8 C 3.84 g/m*3 0.8 C 3.2 km/h
1145 01-04-2020 00:20:00 0.7 C 3.81 g/m*3 0.7 C 3.2 km/h
1146 01-04-2020 00:25:00 0.6 C 3.79 g/m*3 0.6 C 4.8 km/h
1147 01-04-2020 00:30:00 0.6 C 3.79 g/m*3 0.6 C 4.8 km/h
1148 01-04-2020 00:35:00 0.4 C 3.74 g/m*3 0.4 C 1.6 km/h
1149 01-04-2020 00:40:00 0.4 C 3.74 g/m*3 0.4 C 3.2 km/h
1150 01-04-2020 00:45:00 0.3 C 3.76 g/m*3 0.3 C 4.8 km/h
Sensor: Nr:Datum:Temp:Abs-Feuchte:Windchill:Wind:
Aussen-T/F 1151 01-04-2020 00:50:00 0.3 C 3.71 g/m*3 0.3 C 0 km/h
1152 01-04-2020 00:55:00 0.3 C 3.76 g/m*3 0.3 C 3.2 km/h
1153 01-04-2020 01:00:00 0.2 C 3.73 g/m*3 0.2 C 3.2 km/h
1154 01-04-2020 01:05:00 0.2 C 3.78 g/m*3 0.2 C 3.2 km/h
1155 01-04-2020 01:10:00 0.1 C 3.76 g/m*3 0.1 C 3.2 km/h
1156 01-04-2020 01:15:00 0.1 C 3.81 g/m*3 0.1 C 0 km/h
1157 01-04-2020 01:20:00 0 C 3.78 g/m*3 0 C 0 km/h
1158 01-04-2020 01:25:00 -0.1 C 3.75 g/m*3 -0.1 C 0 km/h
1159 01-04-2020 01:30:00 -0.2 C 3.73 g/m*3 -0.2 C 0 km/h
1160 01-04-2020 01:35:00 -0.2 C 3.73 g/m*3 -0.2 C 1.6 km/h
1161 01-04-2020 01:40:00 -0.3 C 3.75 g/m*3 -0.3 C 0 km/h
1162 01-04-2020 01:45:00 -0.4 C 3.72 g/m*3 -0.4 C 0 km/h
1163 01-04-2020 01:50:00 -0.5 C 3.7 g/m*3 -0.5 C 0 km/h
1164 01-04-2020 01:55:00 -0.6 C 3.67 g/m*3 -0.6 C 0 km/h
1165 01-04-2020 02:00:00 -0.7 C 3.65 g/m*3 -0.7 C 0 km/h
1166 01-04-2020 02:05:00 -0.8 C 3.62 g/m*3 -0.8 C 0 km/h
1167 01-04-2020 02:10:00 -0.8 C 3.67 g/m*3 -0.8 C 0 km/h
1168 01-04-2020 02:15:00 -0.9 C 3.64 g/m*3 -0.9 C 0 km/h
1169 01-04-2020 02:20:00 -0.9 C 3.64 g/m*3 -0.9 C 0 km/h
1170 01-04-2020 02:25:00 -1 C 3.62 g/m*3 -1 C 0 km/h
1171 01-04-2020 02:30:00 -1.1 C 3.59 g/m*3 -1.1 C 0 km/h
1172 01-04-2020 02:35:00 -1.1 C 3.59 g/m*3 -1.1 C 0 km/h
1173 01-04-2020 02:40:00 -1.2 C 3.57 g/m*3 -1.2 C 0 km/h
1174 01-04-2020 02:45:00 -1.2 C 3.61 g/m*3 -1.2 C 0 km/h
1175 01-04-2020 02:50:00 -1.3 C 3.59 g/m*3 -1.3 C 0 km/h
Sensor: Nr:Datum:Temp:Abs-Feuchte:Windchill:Wind:
Aussen-T/F 1176 01-04-2020 02:55:00 -1.3 C 3.59 g/m*3 -1.3 C 0 km/h
1177 01-04-2020 03:00:00 -1.3 C 3.59 g/m*3 -1.3 C 0 km/h
1178 01-04-2020 03:05:00 -1.4 C 3.52 g/m*3 -1.4 C 0 km/h
1179 01-04-2020 03:10:00 -1.4 C 3.52 g/m*3 -1.4 C 0 km/h
1180 01-04-2020 03:15:00 -1.5 C 3.49 g/m*3 -1.5 C 0 km/h
1181 01-04-2020 03:20:00 -1.6 C 3.51 g/m*3 -1.6 C 0 km/h
1182 01-04-2020 03:25:00 -1.7 C 3.49 g/m*3 -1.7 C 0 km/h
1183 01-04-2020 03:30:00 -1.7 C 3.49 g/m*3 -1.7 C 0 km/h
1184 01-04-2020 03:35:00 -1.7 C 3.49 g/m*3 -1.7 C 0 km/h
1185 01-04-2020 03:40:00 -1.8 C 3.46 g/m*3 -1.8 C 0 km/h
1186 01-04-2020 03:45:00 -1.8 C 3.42 g/m*3 -1.8 C 0 km/h
1187 01-04-2020 03:50:00 -1.9 C 3.44 g/m*3 -1.9 C 0 km/h
1188 01-04-2020 03:55:00 -1.9 C 3.44 g/m*3 -1.9 C 0 km/h
1189 01-04-2020 04:00:00 -1.9 C 3.44 g/m*3 -1.9 C 0 km/h
1190 01-04-2020 04:05:00 -1.9 C 3.44 g/m*3 -1.9 C 0 km/h
1191 01-04-2020 04:10:00 -2 C 3.41 g/m*3 -2 C 0 km/h
1192 01-04-2020 04:15:00 -2.1 C 3.39 g/m*3 -2.1 C 0 km/h
1193 01-04-2020 04:20:00 -2.1 C 3.39 g/m*3 -2.1 C 0 km/h
1194 01-04-2020 04:25:00 -2.2 C 3.33 g/m*3 -2.2 C 0 km/h
1195 01-04-2020 04:30:00 -2.2 C 3.37 g/m*3 -2.2 C 0 km/h
1196 01-04-2020 04:35:00 -2.3 C 3.34 g/m*3 -2.3 C 0 km/h
1197 01-04-2020 04:40:00 -2.3 C 3.34 g/m*3 -2.3 C 0 km/h
1198 01-04-2020 04:45:00 -2.3 C 3.34 g/m*3 -2.3 C 0 km/h
1199 01-04-2020 04:50:00 -2.4 C 3.32 g/m*3 -2.4 C 0 km/h
1200 01-04-2020 04:55:00 -2.4 C 3.32 g/m*3 -2.4 C 0 km/h
Sensor: Nr:Datum:Temp:Abs-Feuchte:Windchill:Wind:
Aussen-T/F 1201 01-04-2020 05:00:00 -2.4 C 3.36 g/m*3 -2.4 C 0 km/h
1202 01-04-2020 05:05:00 -2.5 C 3.34 g/m*3 -2.5 C 0 km/h
1203 01-04-2020 05:10:00 -2.6 C 3.31 g/m*3 -2.6 C 0 km/h
1204 01-04-2020 05:15:00 -2.6 C 3.31 g/m*3 -2.6 C 0 km/h
1205 01-04-2020 05:20:00 -2.7 C 3.29 g/m*3 -2.7 C 0 km/h
1206 01-04-2020 05:25:00 -2.7 C 3.33 g/m*3 -2.7 C 0 km/h
1207 01-04-2020 05:30:00 -2.7 C 3.33 g/m*3 -2.7 C 0 km/h
1208 01-04-2020 05:35:00 -2.7 C 3.33 g/m*3 -2.7 C 0 km/h
1209 01-04-2020 05:40:00 -2.7 C 3.33 g/m*3 -2.7 C 0 km/h
1210 01-04-2020 05:45:00 -2.8 C 3.31 g/m*3 -2.8 C 0 km/h
1211 01-04-2020 05:50:00 -2.8 C 3.31 g/m*3 -2.8 C 0 km/h
1212 01-04-2020 05:55:00 -2.8 C 3.31 g/m*3 -2.8 C 0 km/h
1213 01-04-2020 06:00:00 -2.9 C 3.28 g/m*3 -2.9 C 0 km/h
1214 01-04-2020 06:05:00 -2.9 C 3.28 g/m*3 -2.9 C 0 km/h
1215 01-04-2020 06:10:00 -2.9 C 3.32 g/m*3 -2.9 C 0 km/h
1216 01-04-2020 06:15:00 -3 C 3.3 g/m*3 -3 C 0 km/h
1217 01-04-2020 06:20:00 -3 C 3.3 g/m*3 -3 C 0 km/h
1218 01-04-2020 06:25:00 -3.1 C 3.28 g/m*3 -3.1 C 0 km/h
1219 01-04-2020 06:30:00 -3.1 C 3.28 g/m*3 -3.1 C 0 km/h
1220 01-04-2020 06:35:00 -3.1 C 3.32 g/m*3 -3.1 C 0 km/h
1221 01-04-2020 06:40:00 -3.1 C 3.32 g/m*3 -3.1 C 0 km/h
1222 01-04-2020 06:45:00 -3.1 C 3.32 g/m*3 -3.1 C 0 km/h
1223 01-04-2020 06:50:00 -3.2 C 3.29 g/m*3 -3.2 C 0 km/h
1224 01-04-2020 06:55:00 -3.2 C 3.29 g/m*3 -3.2 C 0 km/h
1225 01-04-2020 07:00:00 -3.2 C 3.29 g/m*3 -3.2 C 0 km/h
Sensor: Nr:Datum:Temp:Abs-Feuchte:Windchill:Wind:
Aussen-T/F 1226 01-04-2020 07:05:00 -3.3 C 3.27 g/m*3 -3.3 C 0 km/h
1227 01-04-2020 07:10:00 -3.3 C 3.27 g/m*3 -3.3 C 0 km/h
1228 01-04-2020 07:15:00 -3.4 C 3.25 g/m*3 -3.4 C 0 km/h
1229 01-04-2020 07:20:00 -3.4 C 3.25 g/m*3 -3.4 C 0 km/h
1230 01-04-2020 07:25:00 -3.4 C 3.25 g/m*3 -3.4 C 0 km/h
1231 01-04-2020 07:30:00 -3.4 C 3.28 g/m*3 -3.4 C 0 km/h
1232 01-04-2020 07:35:00 -3.3 C 3.31 g/m*3 -3.3 C 0 km/h
1233 01-04-2020 07:40:00 -3.3 C 3.27 g/m*3 -3.3 C 0 km/h
1234 01-04-2020 07:45:00 -3.3 C 3.27 g/m*3 -3.3 C 0 km/h
1235 01-04-2020 07:50:00 -3.3 C 3.31 g/m*3 -3.3 C 0 km/h
1236 01-04-2020 07:55:00 -3.3 C 3.31 g/m*3 -3.3 C 0 km/h
1237 01-04-2020 08:00:00 -3.2 C 3.33 g/m*3 -3.2 C 0 km/h
1238 01-04-2020 08:05:00 -3.2 C 3.33 g/m*3 -3.2 C 0 km/h
1239 01-04-2020 08:10:00 -3.2 C 3.33 g/m*3 -3.2 C 0 km/h
1240 01-04-2020 08:15:00 -3.1 C 3.39 g/m*3 -3.1 C 0 km/h
1241 01-04-2020 08:20:00 -2.9 C 3.44 g/m*3 -2.9 C 0 km/h
1242 01-04-2020 08:25:00 -2.9 C 3.44 g/m*3 -2.9 C 0 km/h
1243 01-04-2020 08:30:00 -2.9 C 3.4 g/m*3 -2.9 C 0 km/h
1244 01-04-2020 08:35:00 -2.8 C 3.43 g/m*3 -2.8 C 0 km/h
1245 01-04-2020 08:40:00 -2.8 C 3.43 g/m*3 -2.8 C 0 km/h
1246 01-04-2020 08:45:00 -2.8 C 3.43 g/m*3 -2.8 C 0 km/h
1247 01-04-2020 08:50:00 -2.8 C 3.43 g/m*3 -2.8 C 0 km/h
1248 01-04-2020 08:55:00 -2.7 C 3.45 g/m*3 -2.7 C 0 km/h
1249 01-04-2020 09:00:00 -2.6 C 3.43 g/m*3 -2.6 C 0 km/h
1250 01-04-2020 09:05:00 -2.6 C 3.43 g/m*3 -2.6 C 0 km/h
Sensor: Nr:Datum:Temp:Abs-Feuchte:Windchill:Wind:
Aussen-T/F 1251 01-04-2020 09:10:00 -2.4 C 3.48 g/m*3 -2.4 C 0 km/h
1252 01-04-2020 09:15:00 -2.3 C 3.51 g/m*3 -2.3 C 0 km/h
1253 01-04-2020 09:20:00 -2.3 C 3.51 g/m*3 -2.3 C 0 km/h
1254 01-04-2020 09:25:00 -2.2 C 3.53 g/m*3 -2.2 C 0 km/h
1255 01-04-2020 09:30:00 -2.1 C 3.56 g/m*3 -2.1 C 0 km/h
1256 01-04-2020 09:35:00 -1.9 C 3.57 g/m*3 -1.9 C 0 km/h
1257 01-04-2020 09:40:00 -1.8 C 3.59 g/m*3 -1.8 C 0 km/h
1258 01-04-2020 09:45:00 -1.7 C 3.62 g/m*3 -1.7 C 1.6 km/h
1259 01-04-2020 09:50:00 -1.7 C 3.62 g/m*3 -1.7 C 1.6 km/h
1260 01-04-2020 09:55:00 -1.6 C 3.64 g/m*3 -1.6 C 0 km/h
1261 01-04-2020 10:00:00 -1.4 C 3.69 g/m*3 -1.4 C 1.6 km/h
1262 01-04-2020 10:05:00 -1.3 C 3.72 g/m*3 -1.3 C 0 km/h
1263 01-04-2020 10:10:00 -1.1 C 3.77 g/m*3 -1.1 C 0 km/h
1264 01-04-2020 10:15:00 -0.9 C 3.82 g/m*3 -0.9 C 0 km/h
1265 01-04-2020 10:20:00 -0.6 C 3.9 g/m*3 -0.6 C 0 km/h
1266 01-04-2020 10:25:00 -0.3 C 3.94 g/m*3 -0.3 C 0 km/h
1267 01-04-2020 10:30:00 -0.1 C 3.99 g/m*3 -0.1 C 0 km/h
1268 01-04-2020 10:35:00 0.2 C 4.03 g/m*3 0.2 C 0 km/h
1269 01-04-2020 10:40:00 0.6 C 4.14 g/m*3 0.6 C 0 km/h
1270 01-04-2020 10:45:00 0.9 C 4.18 g/m*3 0.9 C 0 km/h
1271 01-04-2020 10:50:00 1.3 C 4.19 g/m*3 1.3 C 0 km/h
1272 01-04-2020 10:55:00 1.8 C 4.28 g/m*3 1.8 C 0 km/h
1273 01-04-2020 11:00:00 2.3 C 4.31 g/m*3 2.3 C 0 km/h
1274 01-04-2020 11:05:00 2.6 C 4.34 g/m*3 2.6 C 0 km/h
1275 01-04-2020 11:10:00 2.8 C 4.34 g/m*3 2.8 C 0 km/h
Sensor: Nr:Datum:Temp:Abs-Feuchte:Windchill:Wind:
Aussen-T/F 1276 01-04-2020 11:15:00 3.1 C 4.25 g/m*3 3.1 C 0 km/h
1277 01-04-2020 11:20:00 3.3 C 4.19 g/m*3 3.3 C 0 km/h
1278 01-04-2020 11:25:00 3.7 C 3.99 g/m*3 3.7 C 0 km/h
1279 01-04-2020 11:30:00 3.9 C 3.92 g/m*3 3.9 C 3.2 km/h
1280 01-04-2020 11:35:00 4.3 C 3.76 g/m*3 4.3 C 1.6 km/h
1281 01-04-2020 11:40:00 4.7 C 3.93 g/m*3 4.7 C 3.2 km/h
1282 01-04-2020 11:45:00 5.1 C 3.9 g/m*3 5.1 C 3.2 km/h
1283 01-04-2020 11:50:00 5.4 C 3.77 g/m*3 5.4 C 0 km/h
1284 01-04-2020 11:55:00 5.7 C 3.56 g/m*3 5.7 C 3.2 km/h
1285 01-04-2020 12:00:00 6 C 3.63 g/m*3 6 C 1.6 km/h
1286 01-04-2020 12:05:00 6.3 C 3.55 g/m*3 6.3 C 1.6 km/h
1287 01-04-2020 12:10:00 6.7 C 3.65 g/m*3 5.56 C 6.4 km/h
1288 01-04-2020 12:15:00 6.8 C 3.59 g/m*3 6.8 C 4.8 km/h
1289 01-04-2020 12:20:00 7.1 C 3.59 g/m*3 5.23 C 9.7 km/h
1290 01-04-2020 12:25:00 7.3 C 3.71 g/m*3 5.47 C 9.7 km/h
1291 01-04-2020 12:30:00 7.6 C 3.63 g/m*3 6.6 C 6.4 km/h
1292 01-04-2020 12:35:00 7.7 C 3.65 g/m*3 7.7 C 4.8 km/h
1293 01-04-2020 12:40:00 7.8 C 3.59 g/m*3 6.83 C 6.4 km/h
1294 01-04-2020 12:45:00 7.9 C 3.53 g/m*3 7.9 C 4.8 km/h
1295 01-04-2020 12:50:00 8.1 C 3.66 g/m*3 7.17 C 6.4 km/h
1296 01-04-2020 12:55:00 8.2 C 3.6 g/m*3 7.29 C 6.4 km/h
1297 01-04-2020 13:00:00 8.3 C 3.71 g/m*3 7.41 C 6.4 km/h
1298 01-04-2020 13:05:00 8.6 C 3.61 g/m*3 7.75 C 6.4 km/h
1299 01-04-2020 13:10:00 8.6 C 3.61 g/m*3 8.6 C 4.8 km/h
1300 01-04-2020 13:15:00 8.7 C 3.63 g/m*3 8.7 C 4.8 km/h
Sensor: Nr:Datum:Temp:Abs-Feuchte:Windchill:Wind:
Aussen-T/F 1301 01-04-2020 13:20:00 8.8 C 3.57 g/m*3 6.72 C 12.9 km/h
1302 01-04-2020 13:25:00 8.7 C 3.46 g/m*3 6.6 C 12.9 km/h
1303 01-04-2020 13:30:00 8.7 C 3.55 g/m*3 7.46 C 8.1 km/h
1304 01-04-2020 13:35:00 8.8 C 3.57 g/m*3 8.8 C 3.2 km/h
1305 01-04-2020 13:40:00 8.9 C 3.59 g/m*3 8.9 C 3.2 km/h
1306 01-04-2020 13:45:00 9.2 C 3.57 g/m*3 9.2 C 4.8 km/h
1307 01-04-2020 13:50:00 9.2 C 3.57 g/m*3 8.45 C 6.4 km/h
1308 01-04-2020 13:55:00 9.2 C 3.57 g/m*3 8.05 C 8.1 km/h
1309 01-04-2020 14:00:00 9.2 C 3.57 g/m*3 7.73 C 9.7 km/h
1310 01-04-2020 14:05:00 9.3 C 3.59 g/m*3 8.16 C 8.1 km/h
1311 01-04-2020 14:10:00 9.4 C 3.62 g/m*3 8.68 C 6.4 km/h
1312 01-04-2020 14:15:00 9.5 C 3.55 g/m*3 8.79 C 6.4 km/h
1313 01-04-2020 14:20:00 9.8 C 3.71 g/m*3 8.45 C 9.7 km/h
1314 01-04-2020 14:25:00 9.9 C 3.73 g/m*3 8.87 C 8.1 km/h
1315 01-04-2020 14:30:00 10.1 C 3.59 g/m*3 10.1 C 4.8 km/h
1316 01-04-2020 14:35:00 10.3 C 3.54 g/m*3 8.34 C 14.5 km/h
1317 01-04-2020 14:40:00 10.3 C 3.45 g/m*3 9.34 C 8.1 km/h
1318 01-04-2020 14:45:00 10.3 C 3.54 g/m*3 9.72 C 6.4 km/h
1319 01-04-2020 14:50:00 10.3 C 3.26 g/m*3 9.04 C 9.7 km/h
1320 01-04-2020 14:55:00 10.3 C 3.26 g/m*3 9.72 C 6.4 km/h
1321 01-04-2020 15:00:00 10.3 C 3.26 g/m*3 9.34 C 8.1 km/h
1322 01-04-2020 15:05:00 10.2 C 3.24 g/m*3 10.2 C 4.8 km/h
1323 01-04-2020 15:10:00 10.3 C 3.35 g/m*3 9.72 C 6.4 km/h
1324 01-04-2020 15:15:00 10.4 C 3.47 g/m*3 9.46 C 8.1 km/h
1325 01-04-2020 15:20:00 10.7 C 3.34 g/m*3 10.18 C 6.4 km/h
Sensor: Nr:Datum:Temp:Abs-Feuchte:Windchill:Wind:
Aussen-T/F 1326 01-04-2020 15:25:00 10.8 C 3.26 g/m*3 9.64 C 9.7 km/h
1327 01-04-2020 15:30:00 10.7 C 3.24 g/m*3 10.18 C 6.4 km/h
1328 01-04-2020 15:35:00 10.7 C 3.24 g/m*3 10.7 C 3.2 km/h
1329 01-04-2020 15:40:00 10.8 C 3.26 g/m*3 9.93 C 8.1 km/h
1330 01-04-2020 15:45:00 10.9 C 3.08 g/m*3 9.76 C 9.7 km/h
1331 01-04-2020 15:50:00 11 C 3.1 g/m*3 10.52 C 6.4 km/h
1332 01-04-2020 15:55:00 11.1 C 3.12 g/m*3 11.1 C 4.8 km/h
1333 01-04-2020 16:00:00 11.1 C 3.32 g/m*3 11.1 C 6.4 km/h
1334 01-04-2020 16:05:00 11.1 C 3.32 g/m*3 11.1 C 3.2 km/h
1335 01-04-2020 16:10:00 11.2 C 3.45 g/m*3 11.2 C 4.8 km/h
1336 01-04-2020 16:15:00 11.4 C 3.39 g/m*3 11.4 C 8.1 km/h
1337 01-04-2020 16:20:00 11.5 C 3.31 g/m*3 11.5 C 8.1 km/h
1338 01-04-2020 16:25:00 11.6 C 3.22 g/m*3 11.6 C 4.8 km/h
1339 01-04-2020 16:30:00 11.6 C 3.22 g/m*3 11.6 C 6.4 km/h
1340 01-04-2020 16:35:00 11.7 C 3.14 g/m*3 11.7 C 4.8 km/h
1341 01-04-2020 16:40:00 11.8 C 3.47 g/m*3 11.8 C 3.2 km/h
1342 01-04-2020 16:45:00 12.2 C 3.45 g/m*3 12.2 C 3.2 km/h
1343 01-04-2020 16:50:00 12.6 C 3.54 g/m*3 12.6 C 9.7 km/h
1344 01-04-2020 16:55:00 12.6 C 3.65 g/m*3 12.6 C 8.1 km/h
1345 01-04-2020 17:00:00 12.6 C 3.54 g/m*3 12.6 C 8.1 km/h
1346 01-04-2020 17:05:00 12.4 C 3.5 g/m*3 12.4 C 9.7 km/h
1347 01-04-2020 17:10:00 12.9 C 4.06 g/m*3 12.9 C 3.2 km/h
1348 01-04-2020 17:15:00 13.2 C 3.79 g/m*3 13.2 C 6.4 km/h
1349 01-04-2020 17:20:00 13.2 C 3.67 g/m*3 13.2 C 6.4 km/h
1350 01-04-2020 17:25:00 13.3 C 3.81 g/m*3 13.3 C 8.1 km/h
Sensor: Nr:Datum:Temp:Abs-Feuchte:Windchill:Wind:
Aussen-T/F 1351 01-04-2020 17:30:00 13.2 C 3.56 g/m*3 13.2 C 6.4 km/h
1352 01-04-2020 17:35:00 13.3 C 3.58 g/m*3 13.3 C 3.2 km/h
1353 01-04-2020 17:40:00 13.3 C 3.58 g/m*3 13.3 C 8.1 km/h
1354 01-04-2020 17:45:00 13.2 C 3.67 g/m*3 13.2 C 6.4 km/h
1355 01-04-2020 17:50:00 13.2 C 3.67 g/m*3 13.2 C 4.8 km/h
1356 01-04-2020 17:55:00 13.1 C 3.65 g/m*3 13.1 C 9.7 km/h
1357 01-04-2020 18:00:00 12.9 C 3.61 g/m*3 12.9 C 8.1 km/h
1358 01-04-2020 18:05:00 12.6 C 3.65 g/m*3 12.6 C 9.7 km/h
1359 01-04-2020 18:10:00 12.5 C 3.63 g/m*3 12.5 C 8.1 km/h
1360 01-04-2020 18:15:00 12.6 C 3.65 g/m*3 12.6 C 8.1 km/h
1361 01-04-2020 18:20:00 12.7 C 3.67 g/m*3 12.7 C 6.4 km/h
1362 01-04-2020 18:25:00 12.9 C 3.72 g/m*3 12.9 C 6.4 km/h
1363 01-04-2020 18:30:00 12.9 C 3.61 g/m*3 12.9 C 4.8 km/h
1364 01-04-2020 18:35:00 13 C 3.74 g/m*3 13 C 4.8 km/h
1365 01-04-2020 18:40:00 13.1 C 3.77 g/m*3 13.1 C 4.8 km/h
1366 01-04-2020 18:45:00 13.2 C 3.67 g/m*3 13.2 C 4.8 km/h
1367 01-04-2020 18:50:00 13.2 C 3.67 g/m*3 13.2 C 4.8 km/h
1368 01-04-2020 18:55:00 13.2 C 3.79 g/m*3 13.2 C 3.2 km/h
1369 01-04-2020 19:00:00 13.3 C 3.7 g/m*3 13.3 C 6.4 km/h
1370 01-04-2020 19:05:00 13 C 3.74 g/m*3 13 C 4.8 km/h
1371 01-04-2020 19:10:00 12.8 C 3.7 g/m*3 12.8 C 6.4 km/h
1372 01-04-2020 19:15:00 12.7 C 3.67 g/m*3 12.7 C 6.4 km/h
1373 01-04-2020 19:20:00 12.4 C 3.71 g/m*3 12.4 C 6.4 km/h
1374 01-04-2020 19:25:00 12.2 C 3.67 g/m*3 12.2 C 6.4 km/h
1375 01-04-2020 19:30:00 11.8 C 3.58 g/m*3 11.8 C 9.7 km/h
Sensor: Nr:Datum:Temp:Abs-Feuchte:Windchill:Wind:
Aussen-T/F 1376 01-04-2020 19:35:00 11.5 C 3.62 g/m*3 11.5 C 4.8 km/h
1377 01-04-2020 19:40:00 11.2 C 3.55 g/m*3 11.2 C 4.8 km/h
1378 01-04-2020 19:45:00 10.9 C 3.58 g/m*3 10.04 C 8.1 km/h
1379 01-04-2020 19:50:00 10.7 C 3.54 g/m*3 10.7 C 4.8 km/h
1380 01-04-2020 19:55:00 10.4 C 3.76 g/m*3 10.4 C 1.6 km/h
1381 01-04-2020 20:00:00 10.1 C 3.59 g/m*3 9.48 C 6.4 km/h
1382 01-04-2020 20:05:00 9.7 C 3.69 g/m*3 9.7 C 4.8 km/h
1383 01-04-2020 20:10:00 9.4 C 3.8 g/m*3 9.4 C 1.6 km/h
1384 01-04-2020 20:15:00 9.2 C 3.48 g/m*3 7.46 C 11.3 km/h
1385 01-04-2020 20:20:00 9.1 C 3.46 g/m*3 8.33 C 6.4 km/h
1386 01-04-2020 20:25:00 9.1 C 3.64 g/m*3 9.1 C 4.8 km/h
1387 01-04-2020 20:30:00 8.8 C 3.83 g/m*3 8.8 C 1.6 km/h
1388 01-04-2020 20:35:00 8.4 C 3.9 g/m*3 8.4 C 0 km/h
1389 01-04-2020 20:40:00 7.8 C 4 g/m*3 6.83 C 6.4 km/h
1390 01-04-2020 20:45:00 7.4 C 4.06 g/m*3 7.4 C 4.8 km/h
1391 01-04-2020 20:50:00 6.9 C 4.16 g/m*3 5.79 C 6.4 km/h
1392 01-04-2020 20:55:00 6.6 C 4.08 g/m*3 5.44 C 6.4 km/h
1393 01-04-2020 21:00:00 6.3 C 4.07 g/m*3 5.1 C 6.4 km/h
1394 01-04-2020 21:05:00 6 C 4.06 g/m*3 6 C 4.8 km/h
1395 01-04-2020 21:10:00 5.7 C 4.06 g/m*3 4.4 C 6.4 km/h
1396 01-04-2020 21:15:00 5.6 C 4.03 g/m*3 4.29 C 6.4 km/h
1397 01-04-2020 21:20:00 5.4 C 4.12 g/m*3 5.4 C 4.8 km/h
1398 01-04-2020 21:25:00 5.3 C 4.09 g/m*3 5.3 C 4.8 km/h
1399 01-04-2020 21:30:00 5.2 C 4.06 g/m*3 5.2 C 4.8 km/h
1400 01-04-2020 21:35:00 5.1 C 4.1 g/m*3 5.1 C 4.8 km/h
Sensor: Nr:Datum:Temp:Abs-Feuchte:Windchill:Wind:
Aussen-T/F 1401 01-04-2020 21:40:00 5 C 4.08 g/m*3 3.59 C 6.4 km/h
1402 01-04-2020 21:45:00 4.9 C 4.12 g/m*3 4.9 C 1.6 km/h
1403 01-04-2020 21:50:00 4.7 C 4.13 g/m*3 4.7 C 3.2 km/h
1404 01-04-2020 21:55:00 4.6 C 4.17 g/m*3 4.6 C 4.8 km/h
1405 01-04-2020 22:00:00 4.4 C 4.05 g/m*3 4.4 C 4.8 km/h
1406 01-04-2020 22:05:00 4.3 C 4.09 g/m*3 4.3 C 4.8 km/h
1407 01-04-2020 22:10:00 4.2 C 4.12 g/m*3 4.2 C 4.8 km/h
1408 01-04-2020 22:15:00 4 C 4.07 g/m*3 4 C 4.8 km/h
1409 01-04-2020 22:20:00 3.9 C 4.11 g/m*3 3.9 C 3.2 km/h
1410 01-04-2020 22:25:00 3.7 C 4.11 g/m*3 3.7 C 1.6 km/h
1411 01-04-2020 22:30:00 3.6 C 4.09 g/m*3 3.6 C 3.2 km/h
1412 01-04-2020 22:35:00 3.5 C 4.06 g/m*3 3.5 C 3.2 km/h
1413 01-04-2020 22:40:00 3.5 C 4.06 g/m*3 3.5 C 0 km/h
1414 01-04-2020 22:45:00 3.4 C 4.03 g/m*3 3.4 C 1.6 km/h
1415 01-04-2020 22:50:00 3.3 C 4.06 g/m*3 3.3 C 0 km/h
1416 01-04-2020 22:55:00 3.2 C 4.1 g/m*3 3.2 C 0 km/h
1417 01-04-2020 23:00:00 3.1 C 4.13 g/m*3 3.1 C 1.6 km/h
1418 01-04-2020 23:05:00 2.9 C 4.13 g/m*3 2.9 C 1.6 km/h
1419 01-04-2020 23:10:00 2.7 C 4.08 g/m*3 2.7 C 1.6 km/h
1420 01-04-2020 23:15:00 2.7 C 4.14 g/m*3 2.7 C 0 km/h
1421 01-04-2020 23:20:00 2.7 C 4.14 g/m*3 2.7 C 0 km/h
1422 01-04-2020 23:25:00 2.6 C 4.17 g/m*3 2.6 C 0 km/h
1423 01-04-2020 23:30:00 2.4 C 4.05 g/m*3 2.4 C 0 km/h
1424 01-04-2020 23:35:00 2.3 C 4.03 g/m*3 2.3 C 0 km/h
1425 01-04-2020 23:40:00 2.2 C 4.06 g/m*3 2.2 C 0 km/h
Sensor: Nr:Datum:Temp:Abs-Feuchte:Windchill:Wind:
Aussen-T/F 1426 01-04-2020 23:45:00 2 C 4.06 g/m*3 2 C 1.6 km/h
1427 01-04-2020 23:50:00 1.9 C 4.03 g/m*3 1.9 C 1.6 km/h
1428 01-04-2020 23:55:00 1.8 C 4 g/m*3 1.8 C 3.2 km/h
1429 02-04-2020 00:00:00 1.8 C 4 g/m*3 1.8 C 1.6 km/h
1430 02-04-2020 00:05:00 1.6 C 4 g/m*3 1.6 C 0 km/h
1431 02-04-2020 00:10:00 1.4 C 3.95 g/m*3 1.4 C 0 km/h
1432 02-04-2020 00:15:00 1.3 C 3.92 g/m*3 1.3 C 0 km/h
1433 02-04-2020 00:20:00 1.3 C 3.92 g/m*3 1.3 C 0 km/h
1434 02-04-2020 00:25:00 1.2 C 3.89 g/m*3 1.2 C 0 km/h
1435 02-04-2020 00:30:00 1.1 C 3.92 g/m*3 1.1 C 3.2 km/h
1436 02-04-2020 00:35:00 1 C 3.89 g/m*3 1 C 1.6 km/h
1437 02-04-2020 00:40:00 1 C 3.94 g/m*3 1 C 3.2 km/h
1438 02-04-2020 00:45:00 1 C 3.94 g/m*3 1 C 3.2 km/h
1439 02-04-2020 00:50:00 1 C 3.94 g/m*3 1 C 0 km/h
1440 02-04-2020 00:55:00 0.9 C 3.92 g/m*3 0.9 C 1.6 km/h
1441 02-04-2020 01:00:00 0.8 C 3.94 g/m*3 0.8 C 0 km/h
1442 02-04-2020 01:05:00 0.8 C 3.94 g/m*3 0.8 C 0 km/h
1443 02-04-2020 01:10:00 0.7 C 3.92 g/m*3 0.7 C 0 km/h
1444 02-04-2020 01:15:00 0.6 C 3.94 g/m*3 0.6 C 0 km/h
1445 02-04-2020 01:20:00 0.5 C 3.91 g/m*3 0.5 C 0 km/h
1446 02-04-2020 01:25:00 0.3 C 3.91 g/m*3 0.3 C 0 km/h
1447 02-04-2020 01:30:00 0.3 C 3.91 g/m*3 0.3 C 0 km/h
1448 02-04-2020 01:35:00 0.2 C 3.88 g/m*3 0.2 C 0 km/h
1449 02-04-2020 01:40:00 0.2 C 3.88 g/m*3 0.2 C 0 km/h
1450 02-04-2020 01:45:00 0.2 C 3.88 g/m*3 0.2 C 0 km/h
Sensor: Nr:Datum:Temp:Abs-Feuchte:Windchill:Wind:
Aussen-T/F 1451 02-04-2020 01:50:00 0.1 C 3.9 g/m*3 0.1 C 0 km/h
1452 02-04-2020 01:55:00 0.1 C 3.9 g/m*3 0.1 C 0 km/h
1453 02-04-2020 02:00:00 0 C 3.88 g/m*3 0 C 0 km/h
1454 02-04-2020 02:05:00 0 C 3.88 g/m*3 0 C 0 km/h
1455 02-04-2020 02:10:00 0.1 C 3.9 g/m*3 0.1 C 0 km/h
1456 02-04-2020 02:15:00 0 C 3.88 g/m*3 0 C 0 km/h
1457 02-04-2020 02:20:00 -0.1 C 3.85 g/m*3 -0.1 C 0 km/h
1458 02-04-2020 02:25:00 -0.1 C 3.85 g/m*3 -0.1 C 0 km/h
1459 02-04-2020 02:30:00 -0.2 C 3.87 g/m*3 -0.2 C 0 km/h
1460 02-04-2020 02:35:00 -0.3 C 3.84 g/m*3 -0.3 C 0 km/h
1461 02-04-2020 02:40:00 -0.3 C 3.84 g/m*3 -0.3 C 0 km/h
1462 02-04-2020 02:45:00 -0.4 C 3.82 g/m*3 -0.4 C 0 km/h
1463 02-04-2020 02:50:00 -0.4 C 3.82 g/m*3 -0.4 C 0 km/h
1464 02-04-2020 02:55:00 -0.5 C 3.84 g/m*3 -0.5 C 0 km/h
1465 02-04-2020 03:00:00 -0.6 C 3.81 g/m*3 -0.6 C 0 km/h
1466 02-04-2020 03:05:00 -0.6 C 3.81 g/m*3 -0.6 C 0 km/h
1467 02-04-2020 03:10:00 -0.6 C 3.81 g/m*3 -0.6 C 0 km/h
1468 02-04-2020 03:15:00 -0.5 C 3.84 g/m*3 -0.5 C 1.6 km/h
1469 02-04-2020 03:20:00 -0.5 C 3.84 g/m*3 -0.5 C 0 km/h
1470 02-04-2020 03:25:00 -0.5 C 3.84 g/m*3 -0.5 C 0 km/h
1471 02-04-2020 03:30:00 -0.6 C 3.81 g/m*3 -0.6 C 0 km/h
1472 02-04-2020 03:35:00 -0.6 C 3.81 g/m*3 -0.6 C 0 km/h
1473 02-04-2020 03:40:00 -0.6 C 3.81 g/m*3 -0.6 C 0 km/h
1474 02-04-2020 03:45:00 -0.6 C 3.81 g/m*3 -0.6 C 0 km/h
1475 02-04-2020 03:50:00 -0.6 C 3.86 g/m*3 -0.6 C 0 km/h
Sensor: Nr:Datum:Temp:Abs-Feuchte:Windchill:Wind:
Aussen-T/F 1476 02-04-2020 03:55:00 -0.7 C 3.83 g/m*3 -0.7 C 0 km/h
1477 02-04-2020 04:00:00 -0.7 C 3.78 g/m*3 -0.7 C 0 km/h
1478 02-04-2020 04:05:00 -0.8 C 3.8 g/m*3 -0.8 C 0 km/h
1479 02-04-2020 04:10:00 -0.7 C 3.83 g/m*3 -0.7 C 1.6 km/h
1480 02-04-2020 04:15:00 -0.7 C 3.83 g/m*3 -0.7 C 0 km/h
1481 02-04-2020 04:20:00 -0.6 C 3.86 g/m*3 -0.6 C 0 km/h
1482 02-04-2020 04:25:00 -0.6 C 3.86 g/m*3 -0.6 C 0 km/h
1483 02-04-2020 04:30:00 -0.6 C 3.86 g/m*3 -0.6 C 0 km/h
1484 02-04-2020 04:35:00 -0.7 C 3.78 g/m*3 -0.7 C 0 km/h
1485 02-04-2020 04:40:00 -0.9 C 3.73 g/m*3 -0.9 C 0 km/h
1486 02-04-2020 04:45:00 -1.1 C 3.73 g/m*3 -1.1 C 1.6 km/h
1487 02-04-2020 04:50:00 -1.2 C 3.7 g/m*3 -1.2 C 0 km/h
1488 02-04-2020 04:55:00 -1.3 C 3.67 g/m*3 -1.3 C 0 km/h
1489 02-04-2020 05:00:00 -1.4 C 3.69 g/m*3 -1.4 C 0 km/h
1490 02-04-2020 05:05:00 -1.4 C 3.69 g/m*3 -1.4 C 0 km/h
1491 02-04-2020 05:10:00 -1.5 C 3.67 g/m*3 -1.5 C 0 km/h
1492 02-04-2020 05:15:00 -1.6 C 3.68 g/m*3 -1.6 C 0 km/h
1493 02-04-2020 05:20:00 -1.6 C 3.68 g/m*3 -1.6 C 0 km/h
1494 02-04-2020 05:25:00 -1.6 C 3.68 g/m*3 -1.6 C 0 km/h
1495 02-04-2020 05:30:00 -1.6 C 3.68 g/m*3 -1.6 C 0 km/h
1496 02-04-2020 05:35:00 -1.6 C 3.68 g/m*3 -1.6 C 0 km/h
1497 02-04-2020 05:40:00 -1.7 C 3.66 g/m*3 -1.7 C 0 km/h
1498 02-04-2020 05:45:00 -1.7 C 3.7 g/m*3 -1.7 C 0 km/h
1499 02-04-2020 05:50:00 -1.6 C 3.73 g/m*3 -1.6 C 0 km/h
1500 02-04-2020 05:55:00 -1.5 C 3.75 g/m*3 -1.5 C 0 km/h
Sensor: Nr:Datum:Temp:Abs-Feuchte:Windchill:Wind:
Aussen-T/F 1501 02-04-2020 06:00:00 -1.5 C 3.75 g/m*3 -1.5 C 0 km/h
1502 02-04-2020 06:05:00 -1.6 C 3.73 g/m*3 -1.6 C 0 km/h
1503 02-04-2020 06:10:00 -1.6 C 3.73 g/m*3 -1.6 C 0 km/h
1504 02-04-2020 06:15:00 -1.7 C 3.66 g/m*3 -1.7 C 0 km/h
1505 02-04-2020 06:20:00 -1.8 C 3.63 g/m*3 -1.8 C 0 km/h
1506 02-04-2020 06:25:00 -1.8 C 3.68 g/m*3 -1.8 C 0 km/h
1507 02-04-2020 06:30:00 -1.8 C 3.72 g/m*3 -1.8 C 0 km/h
1508 02-04-2020 06:35:00 -1.7 C 3.75 g/m*3 -1.7 C 0 km/h
1509 02-04-2020 06:40:00 -1.8 C 3.68 g/m*3 -1.8 C 0 km/h
1510 02-04-2020 06:45:00 -1.8 C 3.68 g/m*3 -1.8 C 0 km/h
1511 02-04-2020 06:50:00 -1.8 C 3.72 g/m*3 -1.8 C 0 km/h
1512 02-04-2020 06:55:00 -1.8 C 3.72 g/m*3 -1.8 C 0 km/h
1513 02-04-2020 07:00:00 -1.8 C 3.68 g/m*3 -1.8 C 0 km/h
1514 02-04-2020 07:05:00 -1.9 C 3.65 g/m*3 -1.9 C 0 km/h
1515 02-04-2020 07:10:00 -2 C 3.63 g/m*3 -2 C 0 km/h
1516 02-04-2020 07:15:00 -2 C 3.67 g/m*3 -2 C 0 km/h
1517 02-04-2020 07:20:00 -1.9 C 3.69 g/m*3 -1.9 C 0 km/h
1518 02-04-2020 07:25:00 -1.9 C 3.69 g/m*3 -1.9 C 0 km/h
1519 02-04-2020 07:30:00 -1.9 C 3.69 g/m*3 -1.9 C 0 km/h
1520 02-04-2020 07:35:00 -1.9 C 3.74 g/m*3 -1.9 C 1.6 km/h
1521 02-04-2020 07:40:00 -1.9 C 3.69 g/m*3 -1.9 C 1.6 km/h
1522 02-04-2020 07:45:00 -1.9 C 3.69 g/m*3 -1.9 C 0 km/h
1523 02-04-2020 07:50:00 -1.9 C 3.69 g/m*3 -1.9 C 1.6 km/h
1524 02-04-2020 07:55:00 -1.8 C 3.76 g/m*3 -1.8 C 0 km/h
1525 02-04-2020 08:00:00 -1.8 C 3.76 g/m*3 -1.8 C 0 km/h
Sensor: Nr:Datum:Temp:Abs-Feuchte:Windchill:Wind:
Aussen-T/F 1526 02-04-2020 08:05:00 -1.7 C 3.79 g/m*3 -1.7 C 0 km/h
1527 02-04-2020 08:10:00 -1.5 C 3.84 g/m*3 -1.5 C 1.6 km/h
1528 02-04-2020 08:15:00 -1.3 C 3.9 g/m*3 -1.3 C 0 km/h
1529 02-04-2020 08:20:00 -1.3 C 3.85 g/m*3 -1.3 C 0 km/h
1530 02-04-2020 08:25:00 -1.3 C 3.85 g/m*3 -1.3 C 0 km/h
1531 02-04-2020 08:30:00 -1.3 C 3.85 g/m*3 -1.3 C 0 km/h
1532 02-04-2020 08:35:00 -1.3 C 3.85 g/m*3 -1.3 C 0 km/h
1533 02-04-2020 08:40:00 -1.3 C 3.85 g/m*3 -1.3 C 0 km/h
1534 02-04-2020 08:45:00 -1.2 C 3.88 g/m*3 -1.2 C 0 km/h
1535 02-04-2020 08:50:00 -1.2 C 3.88 g/m*3 -1.2 C 0 km/h
1536 02-04-2020 08:55:00 -1.1 C 3.91 g/m*3 -1.1 C 0 km/h
1537 02-04-2020 09:00:00 -1.1 C 3.91 g/m*3 -1.1 C 0 km/h
1538 02-04-2020 09:05:00 -1 C 3.93 g/m*3 -1 C 1.6 km/h
1539 02-04-2020 09:10:00 -1 C 3.93 g/m*3 -1 C 0 km/h
1540 02-04-2020 09:15:00 -0.9 C 3.96 g/m*3 -0.9 C 0 km/h
1541 02-04-2020 09:20:00 -0.8 C 3.99 g/m*3 -0.8 C 0 km/h
1542 02-04-2020 09:25:00 -0.7 C 4.02 g/m*3 -0.7 C 0 km/h
1543 02-04-2020 09:30:00 -0.7 C 4.02 g/m*3 -0.7 C 0 km/h
1544 02-04-2020 09:35:00 -0.6 C 4.04 g/m*3 -0.6 C 0 km/h
1545 02-04-2020 09:40:00 -0.4 C 4.1 g/m*3 -0.4 C 0 km/h
1546 02-04-2020 09:45:00 -0.3 C 4.13 g/m*3 -0.3 C 0 km/h
1547 02-04-2020 09:50:00 -0.2 C 4.16 g/m*3 -0.2 C 0 km/h
1548 02-04-2020 09:55:00 0 C 4.22 g/m*3 0 C 0 km/h
1549 02-04-2020 10:00:00 0.2 C 4.27 g/m*3 0.2 C 0 km/h
1550 02-04-2020 10:05:00 0.3 C 4.3 g/m*3 0.3 C 0 km/h
Sensor: Nr:Datum:Temp:Abs-Feuchte:Windchill:Wind:
Aussen-T/F 1551 02-04-2020 10:10:00 0.5 C 4.36 g/m*3 0.5 C 0 km/h
1552 02-04-2020 10:15:00 0.7 C 4.42 g/m*3 0.7 C 0 km/h
1553 02-04-2020 10:20:00 0.8 C 4.45 g/m*3 0.8 C 0 km/h
1554 02-04-2020 10:25:00 1.1 C 4.55 g/m*3 1.1 C 0 km/h
1555 02-04-2020 10:30:00 1.3 C 4.56 g/m*3 1.3 C 0 km/h
1556 02-04-2020 10:35:00 1.6 C 4.65 g/m*3 1.6 C 0 km/h
1557 02-04-2020 10:40:00 1.9 C 4.69 g/m*3 1.9 C 0 km/h
1558 02-04-2020 10:45:00 2.3 C 4.76 g/m*3 2.3 C 0 km/h
1559 02-04-2020 10:50:00 2.8 C 4.81 g/m*3 2.8 C 0 km/h
1560 02-04-2020 10:55:00 3.2 C 4.82 g/m*3 3.2 C 0 km/h
1561 02-04-2020 11:00:00 3.7 C 4.92 g/m*3 3.7 C 0 km/h
1562 02-04-2020 11:05:00 4 C 4.96 g/m*3 4 C 0 km/h
1563 02-04-2020 11:10:00 4.3 C 4.93 g/m*3 4.3 C 0 km/h
1564 02-04-2020 11:15:00 4.6 C 4.9 g/m*3 4.6 C 0 km/h
1565 02-04-2020 11:20:00 4.9 C 4.86 g/m*3 4.9 C 0 km/h
1566 02-04-2020 11:25:00 5.3 C 4.92 g/m*3 5.3 C 3.2 km/h
1567 02-04-2020 11:30:00 5.6 C 4.88 g/m*3 5.6 C 3.2 km/h
1568 02-04-2020 11:35:00 5.9 C 4.98 g/m*3 5.9 C 1.6 km/h
1569 02-04-2020 11:40:00 6.3 C 4.89 g/m*3 6.3 C 3.2 km/h
1570 02-04-2020 11:45:00 6.6 C 4.91 g/m*3 6.6 C 1.6 km/h
1571 02-04-2020 11:50:00 6.9 C 5 g/m*3 6.9 C 3.2 km/h
1572 02-04-2020 11:55:00 7.2 C 4.95 g/m*3 7.2 C 1.6 km/h
1573 02-04-2020 12:00:00 7.5 C 5.04 g/m*3 7.5 C 3.2 km/h
1574 02-04-2020 12:05:00 7.8 C 4.9 g/m*3 6.83 C 6.4 km/h
1575 02-04-2020 12:10:00 8.1 C 4.99 g/m*3 8.1 C 3.2 km/h
Sensor: Nr:Datum:Temp:Abs-Feuchte:Windchill:Wind:
Aussen-T/F 1576 02-04-2020 12:15:00 8.3 C 4.97 g/m*3 8.3 C 3.2 km/h
1577 02-04-2020 12:20:00 8.6 C 4.9 g/m*3 8.6 C 4.8 km/h
1578 02-04-2020 12:25:00 8.8 C 4.96 g/m*3 8.8 C 4.8 km/h
1579 02-04-2020 12:30:00 9.1 C 4.97 g/m*3 9.1 C 1.6 km/h
1580 02-04-2020 12:35:00 9.2 C 4.91 g/m*3 9.2 C 1.6 km/h
1581 02-04-2020 12:40:00 9.4 C 4.52 g/m*3 9.4 C 3.2 km/h
1582 02-04-2020 12:45:00 9.6 C 4.76 g/m*3 8.91 C 6.4 km/h
1583 02-04-2020 12:50:00 9.7 C 4.79 g/m*3 9.7 C 3.2 km/h
1584 02-04-2020 12:55:00 9.9 C 4.67 g/m*3 8.87 C 8.1 km/h
1585 02-04-2020 13:00:00 10 C 4.6 g/m*3 10 C 4.8 km/h
1586 02-04-2020 13:05:00 10.1 C 4.63 g/m*3 8.8 C 9.7 km/h
1587 02-04-2020 13:10:00 10.2 C 4.76 g/m*3 8.92 C 9.7 km/h
1588 02-04-2020 13:15:00 10.5 C 4.66 g/m*3 9.95 C 6.4 km/h
1589 02-04-2020 13:20:00 10.7 C 4.52 g/m*3 10.18 C 6.4 km/h
1590 02-04-2020 13:25:00 10.8 C 4.45 g/m*3 10.29 C 6.4 km/h
1591 02-04-2020 13:30:00 10.8 C 4.15 g/m*3 9.38 C 11.3 km/h
1592 02-04-2020 13:35:00 11 C 4.4 g/m*3 11 C 4.8 km/h
1593 02-04-2020 13:40:00 11.2 C 4.56 g/m*3 11.2 C 12.9 km/h
1594 02-04-2020 13:45:00 11.3 C 4.59 g/m*3 11.3 C 12.9 km/h
1595 02-04-2020 13:50:00 11.4 C 4.31 g/m*3 11.4 C 6.4 km/h
1596 02-04-2020 13:55:00 11.4 C 4.41 g/m*3 11.4 C 8.1 km/h
1597 02-04-2020 14:00:00 11.6 C 4.57 g/m*3 11.6 C 9.7 km/h
1598 02-04-2020 14:05:00 11.7 C 4.6 g/m*3 11.7 C 9.7 km/h
1599 02-04-2020 14:10:00 11.8 C 4.53 g/m*3 11.8 C 6.4 km/h
1600 02-04-2020 14:15:00 11.9 C 4.55 g/m*3 11.9 C 8.1 km/h
Sensor: Nr:Datum:Temp:Abs-Feuchte:Windchill:Wind:
Aussen-T/F 1601 02-04-2020 14:20:00 12.1 C 4.61 g/m*3 12.1 C 11.3 km/h
1602 02-04-2020 14:25:00 12.3 C 4.67 g/m*3 12.3 C 6.4 km/h
1603 02-04-2020 14:30:00 12.6 C 4.65 g/m*3 12.6 C 4.8 km/h
1604 02-04-2020 14:35:00 12.7 C 4.68 g/m*3 12.7 C 8.1 km/h
1605 02-04-2020 14:40:00 12.8 C 4.82 g/m*3 12.8 C 8.1 km/h
1606 02-04-2020 14:45:00 12.8 C 4.7 g/m*3 12.8 C 11.3 km/h
1607 02-04-2020 14:50:00 12.8 C 4.7 g/m*3 12.8 C 8.1 km/h
1608 02-04-2020 14:55:00 12.7 C 4.79 g/m*3 12.7 C 11.3 km/h
1609 02-04-2020 15:00:00 12.8 C 4.7 g/m*3 12.8 C 6.4 km/h
1610 02-04-2020 15:05:00 12.9 C 4.85 g/m*3 12.9 C 9.7 km/h
1611 02-04-2020 15:10:00 13.1 C 4.79 g/m*3 13.1 C 9.7 km/h
1612 02-04-2020 15:15:00 13.2 C 4.59 g/m*3 13.2 C 8.1 km/h
1613 02-04-2020 15:20:00 13.2 C 4.59 g/m*3 13.2 C 8.1 km/h
1614 02-04-2020 15:25:00 13.2 C 4.59 g/m*3 13.2 C 9.7 km/h
1615 02-04-2020 15:30:00 13.3 C 4.74 g/m*3 13.3 C 16.1 km/h
1616 02-04-2020 15:35:00 13.3 C 4.74 g/m*3 13.3 C 8.1 km/h
1617 02-04-2020 15:40:00 13.4 C 4.65 g/m*3 13.4 C 8.1 km/h
1618 02-04-2020 15:45:00 13.5 C 4.68 g/m*3 13.5 C 9.7 km/h
1619 02-04-2020 15:50:00 13.6 C 4.71 g/m*3 13.6 C 9.7 km/h
1620 02-04-2020 15:55:00 13.6 C 4.83 g/m*3 13.6 C 8.1 km/h
1621 02-04-2020 16:00:00 13.6 C 4.71 g/m*3 13.6 C 6.4 km/h
1622 02-04-2020 16:05:00 13.8 C 4.89 g/m*3 13.8 C 4.8 km/h
1623 02-04-2020 16:10:00 13.9 C 4.92 g/m*3 13.9 C 6.4 km/h
1624 02-04-2020 16:15:00 13.8 C 4.89 g/m*3 13.8 C 14.5 km/h
1625 02-04-2020 16:20:00 13.4 C 4.88 g/m*3 13.4 C 11.3 km/h
Sensor: Nr:Datum:Temp:Abs-Feuchte:Windchill:Wind:
Aussen-T/F 1626 02-04-2020 16:25:00 13.2 C 5.05 g/m*3 13.2 C 9.7 km/h
1627 02-04-2020 16:30:00 13.3 C 4.97 g/m*3 13.3 C 12.9 km/h
1628 02-04-2020 16:35:00 13.3 C 4.97 g/m*3 13.3 C 14.5 km/h
1629 02-04-2020 16:40:00 13.5 C 5.03 g/m*3 13.5 C 11.3 km/h
1630 02-04-2020 16:45:00 13.6 C 5.06 g/m*3 13.6 C 11.3 km/h
1631 02-04-2020 16:50:00 13.7 C 4.97 g/m*3 13.7 C 16.1 km/h
1632 02-04-2020 16:55:00 13.7 C 5.09 g/m*3 13.7 C 11.3 km/h
1633 02-04-2020 17:00:00 13.8 C 5.12 g/m*3 13.8 C 14.5 km/h
1634 02-04-2020 17:05:00 13.9 C 5.27 g/m*3 13.9 C 11.3 km/h
1635 02-04-2020 17:10:00 13.9 C 5.15 g/m*3 13.9 C 12.9 km/h
1636 02-04-2020 17:15:00 14 C 5.31 g/m*3 14 C 9.7 km/h
1637 02-04-2020 17:20:00 14 C 5.19 g/m*3 14 C 14.5 km/h
1638 02-04-2020 17:25:00 13.7 C 5.21 g/m*3 13.7 C 17.7 km/h
1639 02-04-2020 17:30:00 13.4 C 5.35 g/m*3 13.4 C 12.9 km/h
1640 02-04-2020 17:35:00 13.4 C 5.35 g/m*3 13.4 C 14.5 km/h
1641 02-04-2020 17:40:00 13.4 C 5.35 g/m*3 13.4 C 9.7 km/h
1642 02-04-2020 17:45:00 13.3 C 5.31 g/m*3 13.3 C 16.1 km/h
1643 02-04-2020 17:50:00 13.2 C 5.51 g/m*3 13.2 C 12.9 km/h
1644 02-04-2020 17:55:00 13 C 5.56 g/m*3 13 C 12.9 km/h
1645 02-04-2020 18:00:00 12.8 C 5.6 g/m*3 12.8 C 16.1 km/h
1646 02-04-2020 18:05:00 12.7 C 5.57 g/m*3 12.7 C 14.5 km/h
1647 02-04-2020 18:10:00 12.5 C 5.5 g/m*3 12.5 C 14.5 km/h
1648 02-04-2020 18:15:00 12.4 C 5.57 g/m*3 12.4 C 11.3 km/h
1649 02-04-2020 18:20:00 12.4 C 5.57 g/m*3 12.4 C 14.5 km/h
1650 02-04-2020 18:25:00 12.3 C 5.43 g/m*3 12.3 C 9.7 km/h
Sensor: Nr:Datum:Temp:Abs-Feuchte:Windchill:Wind:
Aussen-T/F 1651 02-04-2020 18:30:00 12.2 C 5.5 g/m*3 12.2 C 17.7 km/h
1652 02-04-2020 18:35:00 12.1 C 5.36 g/m*3 12.1 C 9.7 km/h
1653 02-04-2020 18:40:00 11.9 C 5.4 g/m*3 11.9 C 14.5 km/h
1654 02-04-2020 18:45:00 11.8 C 5.26 g/m*3 11.8 C 14.5 km/h
1655 02-04-2020 18:50:00 11.7 C 5.33 g/m*3 11.7 C 9.7 km/h
1656 02-04-2020 18:55:00 11.6 C 5.3 g/m*3 11.6 C 9.7 km/h
1657 02-04-2020 19:00:00 11.4 C 5.13 g/m*3 11.4 C 11.3 km/h
1658 02-04-2020 19:05:00 11.3 C 5.2 g/m*3 11.3 C 12.9 km/h
1659 02-04-2020 19:10:00 11.3 C 5.2 g/m*3 11.3 C 6.4 km/h
1660 02-04-2020 19:15:00 11.1 C 5.14 g/m*3 11.1 C 8.1 km/h
1661 02-04-2020 19:20:00 10.9 C 5.07 g/m*3 10.04 C 8.1 km/h
1662 02-04-2020 19:25:00 10.8 C 5.14 g/m*3 10.29 C 6.4 km/h
1663 02-04-2020 19:30:00 10.7 C 5.11 g/m*3 9.04 C 12.9 km/h
1664 02-04-2020 19:35:00 10.5 C 5.04 g/m*3 9.28 C 9.7 km/h
1665 02-04-2020 19:40:00 10.3 C 5.08 g/m*3 10.3 C 4.8 km/h
1666 02-04-2020 19:45:00 10.1 C 5.01 g/m*3 9.48 C 6.4 km/h
1667 02-04-2020 19:50:00 10 C 4.98 g/m*3 9.37 C 6.4 km/h
1668 02-04-2020 19:55:00 9.8 C 4.92 g/m*3 9.14 C 6.4 km/h
1669 02-04-2020 20:00:00 9.6 C 5.04 g/m*3 9.6 C 4.8 km/h
1670 02-04-2020 20:05:00 9.4 C 4.97 g/m*3 9.4 C 3.2 km/h
1671 02-04-2020 20:10:00 9.2 C 5 g/m*3 7.73 C 9.7 km/h
1672 02-04-2020 20:15:00 9.1 C 4.97 g/m*3 7.33 C 11.3 km/h
1673 02-04-2020 20:20:00 9 C 5.03 g/m*3 7.21 C 11.3 km/h
1674 02-04-2020 20:25:00 8.9 C 5.08 g/m*3 8.9 C 1.6 km/h
1675 02-04-2020 20:30:00 8.7 C 5.02 g/m*3 7.46 C 8.1 km/h
Sensor: Nr:Datum:Temp:Abs-Feuchte:Windchill:Wind:
Aussen-T/F 1676 02-04-2020 20:35:00 8.6 C 5.07 g/m*3 6.73 C 11.3 km/h
1677 02-04-2020 20:40:00 8.5 C 5.04 g/m*3 8.5 C 1.6 km/h
1678 02-04-2020 20:45:00 8.3 C 5.06 g/m*3 8.3 C 3.2 km/h
1679 02-04-2020 20:50:00 8.2 C 5.02 g/m*3 7.29 C 6.4 km/h
1680 02-04-2020 20:55:00 8 C 5.04 g/m*3 8 C 3.2 km/h
1681 02-04-2020 21:00:00 7.7 C 5.03 g/m*3 7.7 C 1.6 km/h
1682 02-04-2020 21:05:00 7.4 C 5.01 g/m*3 7.4 C 3.2 km/h
1683 02-04-2020 21:10:00 7.3 C 5.06 g/m*3 7.3 C 3.2 km/h
1684 02-04-2020 21:15:00 7.1 C 5.07 g/m*3 7.1 C 3.2 km/h
1685 02-04-2020 21:20:00 6.8 C 5.05 g/m*3 6.8 C 4.8 km/h
1686 02-04-2020 21:25:00 6.6 C 5.06 g/m*3 6.6 C 4.8 km/h
1687 02-04-2020 21:30:00 6.4 C 5.07 g/m*3 6.4 C 4.8 km/h
1688 02-04-2020 21:35:00 6.2 C 5.07 g/m*3 6.2 C 4.8 km/h
1689 02-04-2020 21:40:00 6.2 C 5.07 g/m*3 6.2 C 4.8 km/h
1690 02-04-2020 21:45:00 6.1 C 5.04 g/m*3 6.1 C 4.8 km/h
1691 02-04-2020 21:50:00 6 C 5.08 g/m*3 6 C 3.2 km/h
1692 02-04-2020 21:55:00 5.9 C 5.05 g/m*3 5.9 C 4.8 km/h
1693 02-04-2020 22:00:00 5.8 C 5.01 g/m*3 5.8 C 3.2 km/h
1694 02-04-2020 22:05:00 5.9 C 5.05 g/m*3 5.9 C 4.8 km/h
1695 02-04-2020 22:10:00 5.9 C 5.05 g/m*3 5.9 C 3.2 km/h
1696 02-04-2020 22:15:00 6 C 5.08 g/m*3 6 C 3.2 km/h
1697 02-04-2020 22:20:00 6.1 C 5.11 g/m*3 6.1 C 3.2 km/h
1698 02-04-2020 22:25:00 6 C 5.08 g/m*3 6 C 3.2 km/h
1699 02-04-2020 22:30:00 5.9 C 5.12 g/m*3 5.9 C 3.2 km/h
1700 02-04-2020 22:35:00 5.9 C 5.12 g/m*3 5.9 C 3.2 km/h
Sensor: Nr:Datum:Temp:Abs-Feuchte:Windchill:Wind:
Aussen-T/F 1701 02-04-2020 22:40:00 5.8 C 5.09 g/m*3 5.8 C 4.8 km/h
1702 02-04-2020 22:45:00 5.7 C 5.12 g/m*3 5.7 C 4.8 km/h
1703 02-04-2020 22:50:00 5.7 C 5.12 g/m*3 5.7 C 4.8 km/h
1704 02-04-2020 22:55:00 5.7 C 5.12 g/m*3 5.7 C 3.2 km/h
1705 02-04-2020 23:00:00 5.6 C 5.16 g/m*3 5.6 C 4.8 km/h
1706 02-04-2020 23:05:00 5.6 C 5.16 g/m*3 5.6 C 4.8 km/h
1707 02-04-2020 23:10:00 5.6 C 5.16 g/m*3 5.6 C 4.8 km/h
1708 02-04-2020 23:15:00 5.6 C 5.16 g/m*3 5.6 C 4.8 km/h
1709 02-04-2020 23:20:00 5.6 C 5.23 g/m*3 5.6 C 4.8 km/h
1710 02-04-2020 23:25:00 5.5 C 5.2 g/m*3 5.5 C 4.8 km/h
1711 02-04-2020 23:30:00 5.4 C 5.16 g/m*3 5.4 C 4.8 km/h
1712 02-04-2020 23:35:00 5.3 C 5.2 g/m*3 5.3 C 4.8 km/h
1713 02-04-2020 23:40:00 5.1 C 5.13 g/m*3 5.1 C 3.2 km/h
1714 02-04-2020 23:45:00 4.9 C 5.06 g/m*3 4.9 C 0 km/h
1715 02-04-2020 23:50:00 4.6 C 5.03 g/m*3 4.6 C 1.6 km/h
1716 02-04-2020 23:55:00 4.3 C 4.99 g/m*3 4.3 C 1.6 km/h
1717 03-04-2020 00:00:00 4.2 C 5.03 g/m*3 4.2 C 1.6 km/h
1718 03-04-2020 00:05:00 3.9 C 4.93 g/m*3 3.9 C 0 km/h
1719 03-04-2020 00:10:00 3.7 C 4.92 g/m*3 3.7 C 0 km/h
1720 03-04-2020 00:15:00 3.4 C 4.89 g/m*3 3.4 C 0 km/h
1721 03-04-2020 00:20:00 3.3 C 4.85 g/m*3 3.3 C 1.6 km/h
1722 03-04-2020 00:25:00 3.3 C 4.91 g/m*3 3.3 C 3.2 km/h
1723 03-04-2020 00:30:00 3.3 C 4.97 g/m*3 3.3 C 1.6 km/h
1724 03-04-2020 00:35:00 3.3 C 4.91 g/m*3 3.3 C 0 km/h
1725 03-04-2020 00:40:00 3.3 C 4.91 g/m*3 3.3 C 3.2 km/h
Sensor: Nr:Datum:Temp:Abs-Feuchte:Windchill:Wind:
Aussen-T/F 1726 03-04-2020 00:45:00 3.4 C 5.01 g/m*3 3.4 C 3.2 km/h
1727 03-04-2020 00:50:00 3.4 C 4.95 g/m*3 3.4 C 1.6 km/h
1728 03-04-2020 00:55:00 3.2 C 4.88 g/m*3 1.51 C 6.4 km/h
1729 03-04-2020 01:00:00 3.2 C 4.88 g/m*3 3.2 C 1.6 km/h
1730 03-04-2020 01:05:00 3.1 C 4.85 g/m*3 3.1 C 3.2 km/h
1731 03-04-2020 01:10:00 2.9 C 4.84 g/m*3 2.9 C 3.2 km/h
1732 03-04-2020 01:15:00 3 C 4.88 g/m*3 1.28 C 6.4 km/h
1733 03-04-2020 01:20:00 2.9 C 4.84 g/m*3 2.9 C 1.6 km/h
1734 03-04-2020 01:25:00 2.9 C 4.9 g/m*3 0.64 C 8.1 km/h
1735 03-04-2020 01:30:00 3 C 4.93 g/m*3 0.76 C 8.1 km/h
1736 03-04-2020 01:35:00 3.1 C 4.97 g/m*3 0.87 C 8.1 km/h
1737 03-04-2020 01:40:00 3.2 C 4.94 g/m*3 0.58 C 9.7 km/h
1738 03-04-2020 01:45:00 3.1 C 4.91 g/m*3 3.1 C 3.2 km/h
1739 03-04-2020 01:50:00 3 C 4.88 g/m*3 0.76 C 8.1 km/h
1740 03-04-2020 01:55:00 2.9 C 4.84 g/m*3 2.9 C 4.8 km/h
1741 03-04-2020 02:00:00 2.9 C 4.9 g/m*3 2.9 C 1.6 km/h
1742 03-04-2020 02:05:00 2.8 C 4.87 g/m*3 2.8 C 1.6 km/h
1743 03-04-2020 02:10:00 2.8 C 4.87 g/m*3 2.8 C 1.6 km/h
1744 03-04-2020 02:15:00 2.8 C 4.87 g/m*3 1.05 C 6.4 km/h
1745 03-04-2020 02:20:00 2.9 C 4.96 g/m*3 2.9 C 4.8 km/h
1746 03-04-2020 02:25:00 3.1 C 4.97 g/m*3 3.1 C 4.8 km/h
1747 03-04-2020 02:30:00 3.2 C 5 g/m*3 3.2 C 4.8 km/h
1748 03-04-2020 02:35:00 3.3 C 5.04 g/m*3 3.3 C 1.6 km/h
1749 03-04-2020 02:40:00 3.4 C 5.01 g/m*3 3.4 C 3.2 km/h
1750 03-04-2020 02:45:00 3.3 C 4.97 g/m*3 3.3 C 0 km/h
Sensor: Nr:Datum:Temp:Abs-Feuchte:Windchill:Wind:
Aussen-T/F 1751 03-04-2020 02:50:00 3.3 C 4.97 g/m*3 3.3 C 1.6 km/h
1752 03-04-2020 02:55:00 3.4 C 5.01 g/m*3 3.4 C 3.2 km/h
1753 03-04-2020 03:00:00 3.4 C 5.07 g/m*3 3.4 C 0 km/h
1754 03-04-2020 03:05:00 3.6 C 5.14 g/m*3 3.6 C 1.6 km/h
1755 03-04-2020 03:10:00 3.7 C 5.17 g/m*3 3.7 C 1.6 km/h
1756 03-04-2020 03:15:00 3.8 C 5.14 g/m*3 3.8 C 1.6 km/h
1757 03-04-2020 03:20:00 3.9 C 5.18 g/m*3 3.9 C 0 km/h
1758 03-04-2020 03:25:00 4.1 C 5.25 g/m*3 4.1 C 4.8 km/h
1759 03-04-2020 03:30:00 4.2 C 5.28 g/m*3 4.2 C 1.6 km/h
1760 03-04-2020 03:35:00 4.4 C 5.29 g/m*3 2.9 C 6.4 km/h
1761 03-04-2020 03:40:00 4.7 C 5.26 g/m*3 2.76 C 8.1 km/h
1762 03-04-2020 03:45:00 4.8 C 5.3 g/m*3 3.36 C 6.4 km/h
1763 03-04-2020 03:50:00 4.9 C 5.33 g/m*3 3.48 C 6.4 km/h
1764 03-04-2020 03:55:00 4.9 C 5.33 g/m*3 4.9 C 3.2 km/h
1765 03-04-2020 04:00:00 4.9 C 5.33 g/m*3 4.9 C 4.8 km/h
1766 03-04-2020 04:05:00 5.1 C 5.4 g/m*3 3.71 C 6.4 km/h
1767 03-04-2020 04:10:00 5.3 C 5.41 g/m*3 5.3 C 3.2 km/h
1768 03-04-2020 04:15:00 5.4 C 5.37 g/m*3 3.2 C 9.7 km/h
1769 03-04-2020 04:20:00 5.4 C 5.3 g/m*3 3.58 C 8.1 km/h
1770 03-04-2020 04:25:00 5.4 C 5.3 g/m*3 5.4 C 1.6 km/h
1771 03-04-2020 04:30:00 5.4 C 5.3 g/m*3 5.4 C 1.6 km/h
1772 03-04-2020 04:35:00 5.4 C 5.37 g/m*3 5.4 C 0 km/h
1773 03-04-2020 04:40:00 5.4 C 5.44 g/m*3 5.4 C 0 km/h
1774 03-04-2020 04:45:00 5.3 C 5.41 g/m*3 5.3 C 0 km/h
1775 03-04-2020 04:50:00 5.2 C 5.37 g/m*3 5.2 C 0 km/h
Sensor: Nr:Datum:Temp:Abs-Feuchte:Windchill:Wind:
Aussen-T/F 1776 03-04-2020 04:55:00 5.2 C 5.44 g/m*3 5.2 C 0 km/h
1777 03-04-2020 05:00:00 5.1 C 5.4 g/m*3 5.1 C 0 km/h
1778 03-04-2020 05:05:00 5.1 C 5.4 g/m*3 5.1 C 0 km/h
1779 03-04-2020 05:10:00 5.1 C 5.4 g/m*3 5.1 C 1.6 km/h
1780 03-04-2020 05:15:00 5.2 C 5.44 g/m*3 5.2 C 0 km/h
1781 03-04-2020 05:20:00 5.2 C 5.44 g/m*3 5.2 C 3.2 km/h
1782 03-04-2020 05:25:00 5.3 C 5.48 g/m*3 5.3 C 1.6 km/h
1783 03-04-2020 05:30:00 5.3 C 5.48 g/m*3 5.3 C 0 km/h
1784 03-04-2020 05:35:00 5.3 C 5.41 g/m*3 5.3 C 1.6 km/h
1785 03-04-2020 05:40:00 5.4 C 5.44 g/m*3 4.06 C 6.4 km/h
1786 03-04-2020 05:45:00 5.5 C 5.48 g/m*3 5.5 C 1.6 km/h
1787 03-04-2020 05:50:00 5.6 C 5.51 g/m*3 4.29 C 6.4 km/h
1788 03-04-2020 05:55:00 5.6 C 5.59 g/m*3 5.6 C 4.8 km/h
1789 03-04-2020 06:00:00 5.7 C 5.55 g/m*3 4.4 C 6.4 km/h
1790 03-04-2020 06:05:00 5.7 C 5.48 g/m*3 4.4 C 6.4 km/h
1791 03-04-2020 06:10:00 5.8 C 5.59 g/m*3 5.8 C 4.8 km/h
1792 03-04-2020 06:15:00 5.7 C 5.55 g/m*3 5.7 C 3.2 km/h
1793 03-04-2020 06:20:00 5.7 C 5.55 g/m*3 5.7 C 3.2 km/h
1794 03-04-2020 06:25:00 5.7 C 5.55 g/m*3 5.7 C 4.8 km/h
1795 03-04-2020 06:30:00 5.7 C 5.55 g/m*3 5.7 C 3.2 km/h
1796 03-04-2020 06:35:00 5.7 C 5.62 g/m*3 5.7 C 0 km/h
1797 03-04-2020 06:40:00 5.6 C 5.59 g/m*3 5.6 C 3.2 km/h
1798 03-04-2020 06:45:00 5.6 C 5.59 g/m*3 5.6 C 0 km/h
1799 03-04-2020 06:50:00 5.6 C 5.59 g/m*3 4.29 C 6.4 km/h
1800 03-04-2020 06:55:00 5.7 C 5.55 g/m*3 3.56 C 9.7 km/h
Sensor: Nr:Datum:Temp:Abs-Feuchte:Windchill:Wind:
Aussen-T/F 1801 03-04-2020 07:00:00 5.8 C 5.59 g/m*3 4.05 C 8.1 km/h
1802 03-04-2020 07:05:00 6 C 5.59 g/m*3 3.92 C 9.7 km/h
1803 03-04-2020 07:10:00 6 C 5.59 g/m*3 4.28 C 8.1 km/h
1804 03-04-2020 07:15:00 6.1 C 5.55 g/m*3 3.43 C 12.9 km/h
1805 03-04-2020 07:20:00 6.1 C 5.55 g/m*3 3.72 C 11.3 km/h
1806 03-04-2020 07:25:00 6.1 C 5.55 g/m*3 4.86 C 6.4 km/h
1807 03-04-2020 07:30:00 6.1 C 5.63 g/m*3 4.4 C 8.1 km/h
1808 03-04-2020 07:35:00 6.1 C 5.63 g/m*3 4.86 C 6.4 km/h
1809 03-04-2020 07:40:00 6.1 C 5.63 g/m*3 4.86 C 6.4 km/h
1810 03-04-2020 07:45:00 6.1 C 5.63 g/m*3 6.1 C 4.8 km/h
1811 03-04-2020 07:50:00 6.1 C 5.7 g/m*3 6.1 C 4.8 km/h
1812 03-04-2020 07:55:00 6.1 C 5.7 g/m*3 6.1 C 1.6 km/h
1813 03-04-2020 08:00:00 6.1 C 5.7 g/m*3 4.4 C 8.1 km/h
1814 03-04-2020 08:05:00 6.2 C 5.66 g/m*3 4.52 C 8.1 km/h
1815 03-04-2020 08:10:00 6.2 C 5.66 g/m*3 4.15 C 9.7 km/h
1816 03-04-2020 08:15:00 6.3 C 5.7 g/m*3 4.27 C 9.7 km/h
1817 03-04-2020 08:20:00 6.3 C 5.7 g/m*3 3.96 C 11.3 km/h
1818 03-04-2020 08:25:00 6.3 C 5.7 g/m*3 4.27 C 9.7 km/h
1819 03-04-2020 08:30:00 6.4 C 5.74 g/m*3 4.75 C 8.1 km/h
1820 03-04-2020 08:35:00 6.4 C 5.74 g/m*3 4.08 C 11.3 km/h
1821 03-04-2020 08:40:00 6.4 C 5.74 g/m*3 3.8 C 12.9 km/h
1822 03-04-2020 08:45:00 6.6 C 5.81 g/m*3 4.63 C 9.7 km/h
1823 03-04-2020 08:50:00 6.7 C 5.85 g/m*3 4.75 C 9.7 km/h
1824 03-04-2020 08:55:00 6.8 C 5.89 g/m*3 4.87 C 9.7 km/h
1825 03-04-2020 09:00:00 7 C 5.97 g/m*3 5.46 C 8.1 km/h
Sensor: Nr:Datum:Temp:Abs-Feuchte:Windchill:Wind:
Aussen-T/F 1826 03-04-2020 09:05:00 7.1 C 5.93 g/m*3 5.23 C 9.7 km/h
1827 03-04-2020 09:10:00 7.2 C 5.97 g/m*3 5.35 C 9.7 km/h
1828 03-04-2020 09:15:00 7.3 C 6 g/m*3 5.81 C 8.1 km/h
1829 03-04-2020 09:20:00 7.4 C 6.04 g/m*3 6.37 C 6.4 km/h
1830 03-04-2020 09:25:00 7.6 C 6.12 g/m*3 5.82 C 9.7 km/h
1831 03-04-2020 09:30:00 7.7 C 6.16 g/m*3 6.28 C 8.1 km/h
1832 03-04-2020 09:35:00 7.8 C 6.12 g/m*3 5.77 C 11.3 km/h
1833 03-04-2020 09:40:00 7.8 C 6.12 g/m*3 6.83 C 6.4 km/h
1834 03-04-2020 09:45:00 8 C 6.2 g/m*3 8 C 4.8 km/h
1835 03-04-2020 09:50:00 8.1 C 6.24 g/m*3 7.17 C 6.4 km/h
1836 03-04-2020 09:55:00 8.2 C 6.2 g/m*3 7.29 C 6.4 km/h
1837 03-04-2020 10:00:00 8.3 C 6.32 g/m*3 6.99 C 8.1 km/h
1838 03-04-2020 10:05:00 8.5 C 6.4 g/m*3 7.22 C 8.1 km/h
1839 03-04-2020 10:10:00 8.7 C 6.4 g/m*3 7.87 C 6.4 km/h
1840 03-04-2020 10:15:00 8.8 C 6.44 g/m*3 7.58 C 8.1 km/h
1841 03-04-2020 10:20:00 8.9 C 6.48 g/m*3 7.69 C 8.1 km/h
1842 03-04-2020 10:25:00 9.1 C 6.48 g/m*3 7.93 C 8.1 km/h
1843 03-04-2020 10:30:00 9.2 C 6.52 g/m*3 7.73 C 9.7 km/h
1844 03-04-2020 10:35:00 9.2 C 6.52 g/m*3 7.46 C 11.3 km/h
1845 03-04-2020 10:40:00 9.3 C 6.56 g/m*3 8.16 C 8.1 km/h
1846 03-04-2020 10:45:00 9.4 C 6.6 g/m*3 7.97 C 9.7 km/h
1847 03-04-2020 10:50:00 9.6 C 6.6 g/m*3 7.94 C 11.3 km/h
1848 03-04-2020 10:55:00 9.8 C 6.68 g/m*3 7.94 C 12.9 km/h
1849 03-04-2020 11:00:00 9.9 C 6.72 g/m*3 8.56 C 9.7 km/h
1850 03-04-2020 11:05:00 10.3 C 6.8 g/m*3 9.04 C 9.7 km/h
Sensor: Nr:Datum:Temp:Abs-Feuchte:Windchill:Wind:
Aussen-T/F 1851 03-04-2020 11:10:00 10.6 C 6.73 g/m*3 9.4 C 9.7 km/h
1852 03-04-2020 11:15:00 10.8 C 6.82 g/m*3 9.64 C 9.7 km/h
1853 03-04-2020 11:20:00 10.9 C 6.76 g/m*3 9.51 C 11.3 km/h
1854 03-04-2020 11:25:00 10.9 C 6.66 g/m*3 9.51 C 11.3 km/h
1855 03-04-2020 11:30:00 10.8 C 6.52 g/m*3 10.29 C 6.4 km/h
1856 03-04-2020 11:35:00 10.9 C 6.47 g/m*3 10.04 C 8.1 km/h
1857 03-04-2020 11:40:00 11.2 C 6.49 g/m*3 11.2 C 14.5 km/h
1858 03-04-2020 11:45:00 11.3 C 6.43 g/m*3 11.3 C 14.5 km/h
1859 03-04-2020 11:50:00 11.3 C 6.43 g/m*3 11.3 C 12.9 km/h
1860 03-04-2020 11:55:00 11.3 C 6.43 g/m*3 11.3 C 16.1 km/h
1861 03-04-2020 12:00:00 11.2 C 6.39 g/m*3 11.2 C 19.3 km/h
1862 03-04-2020 12:05:00 11.2 C 6.49 g/m*3 11.2 C 11.3 km/h
1863 03-04-2020 12:10:00 11.2 C 6.39 g/m*3 11.2 C 9.7 km/h
1864 03-04-2020 12:15:00 11.2 C 6.39 g/m*3 11.2 C 9.7 km/h
1865 03-04-2020 12:20:00 11.3 C 6.43 g/m*3 11.3 C 9.7 km/h
1866 03-04-2020 12:25:00 11.5 C 6.3 g/m*3 11.5 C 12.9 km/h
1867 03-04-2020 12:30:00 11.7 C 6.38 g/m*3 11.7 C 8.1 km/h
1868 03-04-2020 12:35:00 11.6 C 6.13 g/m*3 11.6 C 12.9 km/h
1869 03-04-2020 12:40:00 11.5 C 6.09 g/m*3 11.5 C 12.9 km/h
1870 03-04-2020 12:45:00 11.3 C 6.22 g/m*3 11.3 C 12.9 km/h
1871 03-04-2020 12:50:00 11.3 C 6.12 g/m*3 11.3 C 11.3 km/h
1872 03-04-2020 12:55:00 11.2 C 6.18 g/m*3 11.2 C 11.3 km/h
1873 03-04-2020 13:00:00 11.2 C 6.28 g/m*3 11.2 C 9.7 km/h
1874 03-04-2020 13:05:00 11.3 C 6.43 g/m*3 11.3 C 11.3 km/h
1875 03-04-2020 13:10:00 11.4 C 6.36 g/m*3 11.4 C 9.7 km/h
Sensor: Nr:Datum:Temp:Abs-Feuchte:Windchill:Wind:
Aussen-T/F 1876 03-04-2020 13:15:00 11.5 C 6.3 g/m*3 11.5 C 12.9 km/h
1877 03-04-2020 13:20:00 11.6 C 6.13 g/m*3 11.6 C 11.3 km/h
1878 03-04-2020 13:25:00 11.7 C 6.17 g/m*3 11.7 C 11.3 km/h
1879 03-04-2020 13:30:00 11.7 C 5.96 g/m*3 11.7 C 12.9 km/h
1880 03-04-2020 13:35:00 11.6 C 6.03 g/m*3 11.6 C 12.9 km/h
1881 03-04-2020 13:40:00 11.6 C 6.03 g/m*3 11.6 C 16.1 km/h
1882 03-04-2020 13:45:00 11.7 C 6.28 g/m*3 11.7 C 8.1 km/h
1883 03-04-2020 13:50:00 11.8 C 6.31 g/m*3 11.8 C 9.7 km/h
1884 03-04-2020 13:55:00 11.8 C 6.1 g/m*3 11.8 C 11.3 km/h
1885 03-04-2020 14:00:00 11.8 C 5.89 g/m*3 11.8 C 11.3 km/h
1886 03-04-2020 14:05:00 11.8 C 5.89 g/m*3 11.8 C 12.9 km/h
1887 03-04-2020 14:10:00 11.7 C 5.86 g/m*3 11.7 C 11.3 km/h
1888 03-04-2020 14:15:00 11.7 C 5.86 g/m*3 11.7 C 12.9 km/h
1889 03-04-2020 14:20:00 11.6 C 5.82 g/m*3 11.6 C 12.9 km/h
1890 03-04-2020 14:25:00 11.6 C 5.92 g/m*3 11.6 C 8.1 km/h
1891 03-04-2020 14:30:00 11.7 C 6.38 g/m*3 11.7 C 6.4 km/h
1892 03-04-2020 14:35:00 11.6 C 6.44 g/m*3 11.6 C 8.1 km/h
1893 03-04-2020 14:40:00 11.6 C 6.24 g/m*3 11.6 C 12.9 km/h
1894 03-04-2020 14:45:00 11.6 C 6.13 g/m*3 11.6 C 9.7 km/h
1895 03-04-2020 14:50:00 11.6 C 5.92 g/m*3 11.6 C 8.1 km/h
1896 03-04-2020 14:55:00 11.7 C 5.86 g/m*3 11.7 C 12.9 km/h
1897 03-04-2020 15:00:00 11.7 C 5.75 g/m*3 11.7 C 11.3 km/h
1898 03-04-2020 15:05:00 11.8 C 5.79 g/m*3 11.8 C 12.9 km/h
1899 03-04-2020 15:10:00 11.8 C 5.79 g/m*3 11.8 C 14.5 km/h
1900 03-04-2020 15:15:00 11.7 C 5.75 g/m*3 11.7 C 12.9 km/h
Sensor: Nr:Datum:Temp:Abs-Feuchte:Windchill:Wind:
Aussen-T/F 1901 03-04-2020 15:20:00 11.7 C 5.65 g/m*3 11.7 C 11.3 km/h
1902 03-04-2020 15:25:00 11.7 C 5.86 g/m*3 11.7 C 9.7 km/h
1903 03-04-2020 15:30:00 11.7 C 6.07 g/m*3 11.7 C 9.7 km/h
1904 03-04-2020 15:35:00 11.7 C 6.07 g/m*3 11.7 C 8.1 km/h
1905 03-04-2020 15:40:00 11.7 C 6.07 g/m*3 11.7 C 8.1 km/h
1906 03-04-2020 15:45:00 11.8 C 6 g/m*3 11.8 C 11.3 km/h
1907 03-04-2020 15:50:00 11.8 C 6.1 g/m*3 11.8 C 11.3 km/h
1908 03-04-2020 15:55:00 11.9 C 5.72 g/m*3 11.9 C 11.3 km/h
1909 03-04-2020 16:00:00 12.1 C 5.79 g/m*3 12.1 C 11.3 km/h
1910 03-04-2020 16:05:00 12.2 C 5.61 g/m*3 12.2 C 11.3 km/h
1911 03-04-2020 16:10:00 12.2 C 5.5 g/m*3 12.2 C 9.7 km/h
1912 03-04-2020 16:15:00 12.3 C 5.43 g/m*3 12.3 C 11.3 km/h
1913 03-04-2020 16:20:00 12.3 C 5.43 g/m*3 12.3 C 12.9 km/h
1914 03-04-2020 16:25:00 12.2 C 5.4 g/m*3 12.2 C 14.5 km/h
1915 03-04-2020 16:30:00 12.2 C 5.5 g/m*3 12.2 C 14.5 km/h
1916 03-04-2020 16:35:00 12.3 C 5.32 g/m*3 12.3 C 12.9 km/h
1917 03-04-2020 16:40:00 12.3 C 5.43 g/m*3 12.3 C 11.3 km/h
1918 03-04-2020 16:45:00 12.3 C 5.32 g/m*3 12.3 C 16.1 km/h
1919 03-04-2020 16:50:00 12.3 C 5.32 g/m*3 12.3 C 9.7 km/h
1920 03-04-2020 16:55:00 12.3 C 5.21 g/m*3 12.3 C 17.7 km/h
1921 03-04-2020 17:00:00 12.1 C 5.15 g/m*3 12.1 C 16.1 km/h
1922 03-04-2020 17:05:00 12.1 C 5.36 g/m*3 12.1 C 11.3 km/h
1923 03-04-2020 17:10:00 12.1 C 5.36 g/m*3 12.1 C 11.3 km/h
1924 03-04-2020 17:15:00 12.1 C 5.25 g/m*3 12.1 C 14.5 km/h
1925 03-04-2020 17:20:00 12.1 C 5.25 g/m*3 12.1 C 14.5 km/h
Sensor: Nr:Datum:Temp:Abs-Feuchte:Windchill:Wind:
Aussen-T/F 1926 03-04-2020 17:25:00 12.2 C 5.29 g/m*3 12.2 C 9.7 km/h
1927 03-04-2020 17:30:00 12.2 C 5.4 g/m*3 12.2 C 9.7 km/h
1928 03-04-2020 17:35:00 12.2 C 5.29 g/m*3 12.2 C 16.1 km/h
1929 03-04-2020 17:40:00 12.3 C 5.21 g/m*3 12.3 C 9.7 km/h
1930 03-04-2020 17:45:00 12.2 C 5.29 g/m*3 12.2 C 11.3 km/h
1931 03-04-2020 17:50:00 12.1 C 5.36 g/m*3 12.1 C 14.5 km/h
1932 03-04-2020 17:55:00 11.9 C 5.3 g/m*3 11.9 C 12.9 km/h
1933 03-04-2020 18:00:00 11.8 C 5.26 g/m*3 11.8 C 14.5 km/h
1934 03-04-2020 18:05:00 11.7 C 5.33 g/m*3 11.7 C 16.1 km/h
1935 03-04-2020 18:10:00 11.7 C 5.33 g/m*3 11.7 C 8.1 km/h
1936 03-04-2020 18:15:00 11.7 C 5.44 g/m*3 11.7 C 9.7 km/h
1937 03-04-2020 18:20:00 11.7 C 5.44 g/m*3 11.7 C 12.9 km/h
1938 03-04-2020 18:25:00 11.6 C 5.51 g/m*3 11.6 C 16.1 km/h
1939 03-04-2020 18:30:00 11.5 C 5.37 g/m*3 11.5 C 9.7 km/h
1940 03-04-2020 18:35:00 11.4 C 5.44 g/m*3 11.4 C 9.7 km/h
1941 03-04-2020 18:40:00 11.4 C 5.34 g/m*3 11.4 C 8.1 km/h
1942 03-04-2020 18:45:00 11.3 C 5.41 g/m*3 11.3 C 9.7 km/h
1943 03-04-2020 18:50:00 11.2 C 5.47 g/m*3 11.2 C 12.9 km/h
1944 03-04-2020 18:55:00 11.2 C 5.47 g/m*3 11.2 C 11.3 km/h
1945 03-04-2020 19:00:00 11.2 C 5.57 g/m*3 11.2 C 9.7 km/h
1946 03-04-2020 19:05:00 11.1 C 5.64 g/m*3 11.1 C 6.4 km/h
1947 03-04-2020 19:10:00 11 C 5.61 g/m*3 9.88 C 9.7 km/h
1948 03-04-2020 19:15:00 10.9 C 5.57 g/m*3 9.51 C 11.3 km/h
1949 03-04-2020 19:20:00 10.8 C 5.63 g/m*3 9.38 C 11.3 km/h
1950 03-04-2020 19:25:00 10.8 C 5.44 g/m*3 9.93 C 8.1 km/h
Sensor: Nr:Datum:Temp:Abs-Feuchte:Windchill:Wind:
Aussen-T/F 1951 03-04-2020 19:30:00 10.7 C 5.4 g/m*3 9.52 C 9.7 km/h
1952 03-04-2020 19:35:00 10.6 C 5.27 g/m*3 8.92 C 12.9 km/h
1953 03-04-2020 19:40:00 10.6 C 5.37 g/m*3 9.4 C 9.7 km/h
1954 03-04-2020 19:45:00 10.4 C 5.3 g/m*3 9.16 C 9.7 km/h
1955 03-04-2020 19:50:00 10.4 C 5.3 g/m*3 9.16 C 9.7 km/h
1956 03-04-2020 19:55:00 10.3 C 5.36 g/m*3 9.34 C 8.1 km/h
1957 03-04-2020 20:00:00 10.3 C 5.36 g/m*3 9.04 C 9.7 km/h
1958 03-04-2020 20:05:00 10.2 C 5.42 g/m*3 10.2 C 3.2 km/h
1959 03-04-2020 20:10:00 10.1 C 5.39 g/m*3 9.1 C 8.1 km/h
1960 03-04-2020 20:15:00 9.9 C 5.32 g/m*3 9.25 C 6.4 km/h
1961 03-04-2020 20:20:00 9.9 C 5.32 g/m*3 9.9 C 4.8 km/h
1962 03-04-2020 20:25:00 9.8 C 5.2 g/m*3 7.94 C 12.9 km/h
1963 03-04-2020 20:30:00 9.8 C 5.1 g/m*3 7.94 C 12.9 km/h
1964 03-04-2020 20:35:00 9.8 C 5.2 g/m*3 9.14 C 6.4 km/h
1965 03-04-2020 20:40:00 9.8 C 5.2 g/m*3 9.8 C 4.8 km/h
1966 03-04-2020 20:45:00 9.7 C 5.16 g/m*3 9.7 C 4.8 km/h
1967 03-04-2020 20:50:00 9.7 C 4.98 g/m*3 9.7 C 3.2 km/h
1968 03-04-2020 20:55:00 9.6 C 5.13 g/m*3 9.6 C 4.8 km/h
1969 03-04-2020 21:00:00 9.6 C 5.04 g/m*3 8.91 C 6.4 km/h
1970 03-04-2020 21:05:00 9.5 C 4.82 g/m*3 7.82 C 11.3 km/h
1971 03-04-2020 21:10:00 9.5 C 4.82 g/m*3 8.4 C 8.1 km/h
1972 03-04-2020 21:15:00 9.5 C 4.82 g/m*3 9.5 C 4.8 km/h
1973 03-04-2020 21:20:00 9.4 C 4.88 g/m*3 8.68 C 6.4 km/h
1974 03-04-2020 21:25:00 9.4 C 4.97 g/m*3 9.4 C 0 km/h
1975 03-04-2020 21:30:00 9.2 C 5.09 g/m*3 9.2 C 1.6 km/h
Sensor: Nr:Datum:Temp:Abs-Feuchte:Windchill:Wind:
Aussen-T/F 1976 03-04-2020 21:35:00 9.1 C 4.88 g/m*3 8.33 C 6.4 km/h
1977 03-04-2020 21:40:00 9 C 4.94 g/m*3 9 C 3.2 km/h
1978 03-04-2020 21:45:00 8.9 C 5.08 g/m*3 8.9 C 3.2 km/h
1979 03-04-2020 21:50:00 8.8 C 5.05 g/m*3 8.8 C 3.2 km/h
1980 03-04-2020 21:55:00 8.8 C 4.96 g/m*3 8.8 C 3.2 km/h
1981 03-04-2020 22:00:00 8.7 C 5.02 g/m*3 8.7 C 4.8 km/h
1982 03-04-2020 22:05:00 8.6 C 4.9 g/m*3 8.6 C 1.6 km/h
1983 03-04-2020 22:10:00 8.6 C 5.07 g/m*3 8.6 C 3.2 km/h
1984 03-04-2020 22:15:00 8.5 C 5.04 g/m*3 8.5 C 3.2 km/h
1985 03-04-2020 22:20:00 8.4 C 5.09 g/m*3 8.4 C 4.8 km/h
1986 03-04-2020 22:25:00 8.2 C 5.11 g/m*3 8.2 C 4.8 km/h
1987 03-04-2020 22:30:00 7.9 C 5.01 g/m*3 7.9 C 3.2 km/h
1988 03-04-2020 22:35:00 7.7 C 5.03 g/m*3 7.7 C 4.8 km/h
1989 03-04-2020 22:40:00 7.5 C 5.04 g/m*3 7.5 C 3.2 km/h
1990 03-04-2020 22:45:00 7.3 C 5.06 g/m*3 7.3 C 4.8 km/h
1991 03-04-2020 22:50:00 7.1 C 4.99 g/m*3 7.1 C 4.8 km/h
1992 03-04-2020 22:55:00 7.1 C 4.91 g/m*3 7.1 C 4.8 km/h
1993 03-04-2020 23:00:00 7 C 4.88 g/m*3 7 C 4.8 km/h
1994 03-04-2020 23:05:00 7 C 4.88 g/m*3 7 C 3.2 km/h
1995 03-04-2020 23:10:00 7.2 C 4.87 g/m*3 7.2 C 4.8 km/h
1996 03-04-2020 23:15:00 7.4 C 4.85 g/m*3 7.4 C 4.8 km/h
1997 03-04-2020 23:20:00 7.6 C 4.99 g/m*3 7.6 C 0 km/h
1998 03-04-2020 23:25:00 7.4 C 4.93 g/m*3 7.4 C 1.6 km/h
1999 03-04-2020 23:30:00 7 C 4.88 g/m*3 7 C 0 km/h
2000 03-04-2020 23:35:00 6.6 C 4.91 g/m*3 6.6 C 4.8 km/h
Sensor: Nr:Datum:Temp:Abs-Feuchte:Windchill:Wind:
Aussen-T/F 2001 03-04-2020 23:40:00 6.4 C 4.84 g/m*3 6.4 C 1.6 km/h
2002 03-04-2020 23:45:00 6.2 C 4.85 g/m*3 6.2 C 0 km/h
2003 03-04-2020 23:50:00 6 C 4.86 g/m*3 6 C 3.2 km/h
2004 03-04-2020 23:55:00 5.8 C 4.8 g/m*3 5.8 C 3.2 km/h
2005 04-04-2020 00:00:00 5.7 C 4.84 g/m*3 5.7 C 3.2 km/h
2006 04-04-2020 00:05:00 5.7 C 4.84 g/m*3 5.7 C 3.2 km/h
2007 04-04-2020 00:10:00 5.7 C 4.84 g/m*3 5.7 C 1.6 km/h
2008 04-04-2020 00:15:00 5.7 C 4.77 g/m*3 5.7 C 0 km/h
2009 04-04-2020 00:20:00 5.7 C 4.77 g/m*3 5.7 C 4.8 km/h
2010 04-04-2020 00:25:00 5.8 C 4.73 g/m*3 5.8 C 4.8 km/h
2011 04-04-2020 00:30:00 5.8 C 4.73 g/m*3 5.8 C 4.8 km/h
2012 04-04-2020 00:35:00 5.8 C 4.73 g/m*3 5.8 C 3.2 km/h
2013 04-04-2020 00:40:00 5.7 C 4.7 g/m*3 5.7 C 0 km/h
2014 04-04-2020 00:45:00 5.6 C 4.74 g/m*3 5.6 C 3.2 km/h
2015 04-04-2020 00:50:00 5.4 C 4.74 g/m*3 5.4 C 4.8 km/h
2016 04-04-2020 00:55:00 5.2 C 4.68 g/m*3 5.2 C 1.6 km/h
2017 04-04-2020 01:00:00 5.1 C 4.72 g/m*3 3.71 C 6.4 km/h
2018 04-04-2020 01:05:00 5.1 C 4.72 g/m*3 3.71 C 6.4 km/h
2019 04-04-2020 01:10:00 5.1 C 4.72 g/m*3 5.1 C 3.2 km/h
2020 04-04-2020 01:15:00 5 C 4.69 g/m*3 5 C 3.2 km/h
2021 04-04-2020 01:20:00 4.9 C 4.66 g/m*3 4.9 C 1.6 km/h
2022 04-04-2020 01:25:00 4.9 C 4.73 g/m*3 4.9 C 1.6 km/h
2023 04-04-2020 01:30:00 4.8 C 4.76 g/m*3 4.8 C 4.8 km/h
2024 04-04-2020 01:35:00 4.7 C 4.8 g/m*3 4.7 C 3.2 km/h
2025 04-04-2020 01:40:00 4.5 C 4.8 g/m*3 4.5 C 3.2 km/h
Sensor: Nr:Datum:Temp:Abs-Feuchte:Windchill:Wind:
Aussen-T/F 2026 04-04-2020 01:45:00 4.3 C 4.74 g/m*3 4.3 C 3.2 km/h
2027 04-04-2020 01:50:00 4.1 C 4.74 g/m*3 4.1 C 0 km/h
2028 04-04-2020 01:55:00 3.8 C 4.71 g/m*3 3.8 C 1.6 km/h
2029 04-04-2020 02:00:00 3.6 C 4.7 g/m*3 3.6 C 0 km/h
2030 04-04-2020 02:05:00 3.3 C 4.67 g/m*3 3.3 C 0 km/h
2031 04-04-2020 02:10:00 3 C 4.64 g/m*3 3 C 0 km/h
2032 04-04-2020 02:15:00 2.8 C 4.58 g/m*3 2.8 C 0 km/h
2033 04-04-2020 02:20:00 2.6 C 4.57 g/m*3 2.6 C 0 km/h
2034 04-04-2020 02:25:00 2.5 C 4.6 g/m*3 2.5 C 0 km/h
2035 04-04-2020 02:30:00 2.3 C 4.54 g/m*3 2.3 C 0 km/h
2036 04-04-2020 02:35:00 2.2 C 4.56 g/m*3 2.2 C 1.6 km/h
2037 04-04-2020 02:40:00 2.1 C 4.53 g/m*3 2.1 C 0 km/h
2038 04-04-2020 02:45:00 1.9 C 4.53 g/m*3 1.9 C 0 km/h
2039 04-04-2020 02:50:00 1.9 C 4.58 g/m*3 1.9 C 0 km/h
2040 04-04-2020 02:55:00 1.9 C 4.58 g/m*3 1.9 C 0 km/h
2041 04-04-2020 03:00:00 1.8 C 4.55 g/m*3 1.8 C 0 km/h
2042 04-04-2020 03:05:00 1.7 C 4.52 g/m*3 1.7 C 0 km/h
2043 04-04-2020 03:10:00 1.7 C 4.52 g/m*3 1.7 C 0 km/h
2044 04-04-2020 03:15:00 1.5 C 4.46 g/m*3 1.5 C 0 km/h
2045 04-04-2020 03:20:00 1.4 C 4.48 g/m*3 1.4 C 0 km/h
2046 04-04-2020 03:25:00 1.3 C 4.5 g/m*3 1.3 C 3.2 km/h
2047 04-04-2020 03:30:00 1.3 C 4.5 g/m*3 1.3 C 3.2 km/h
2048 04-04-2020 03:35:00 1.4 C 4.59 g/m*3 1.4 C 3.2 km/h
2049 04-04-2020 03:40:00 1.4 C 4.59 g/m*3 1.4 C 0 km/h
2050 04-04-2020 03:45:00 1.3 C 4.5 g/m*3 1.3 C 0 km/h
Sensor: Nr:Datum:Temp:Abs-Feuchte:Windchill:Wind:
Aussen-T/F 2051 04-04-2020 03:50:00 1.2 C 4.47 g/m*3 1.2 C 0 km/h
2052 04-04-2020 03:55:00 1 C 4.41 g/m*3 1 C 0 km/h
2053 04-04-2020 04:00:00 0.9 C 4.38 g/m*3 0.9 C 0 km/h
2054 04-04-2020 04:05:00 0.8 C 4.4 g/m*3 0.8 C 0 km/h
2055 04-04-2020 04:10:00 0.7 C 4.37 g/m*3 0.7 C 0 km/h
2056 04-04-2020 04:15:00 0.6 C 4.34 g/m*3 0.6 C 0 km/h
2057 04-04-2020 04:20:00 0.5 C 4.36 g/m*3 0.5 C 0 km/h
2058 04-04-2020 04:25:00 0.4 C 4.33 g/m*3 0.4 C 0 km/h
2059 04-04-2020 04:30:00 0.4 C 4.33 g/m*3 0.4 C 0 km/h
2060 04-04-2020 04:35:00 0.3 C 4.3 g/m*3 0.3 C 1.6 km/h
2061 04-04-2020 04:40:00 0.3 C 4.35 g/m*3 0.3 C 0 km/h
2062 04-04-2020 04:45:00 0.3 C 4.35 g/m*3 0.3 C 0 km/h
2063 04-04-2020 04:50:00 0.2 C 4.27 g/m*3 0.2 C 0 km/h
2064 04-04-2020 04:55:00 0.2 C 4.32 g/m*3 0.2 C 0 km/h
2065 04-04-2020 05:00:00 0.2 C 4.32 g/m*3 0.2 C 1.6 km/h
2066 04-04-2020 05:05:00 0.2 C 4.32 g/m*3 0.2 C 0 km/h
2067 04-04-2020 05:10:00 0.1 C 4.29 g/m*3 0.1 C 0 km/h
2068 04-04-2020 05:15:00 0.1 C 4.29 g/m*3 0.1 C 0 km/h
2069 04-04-2020 05:20:00 -0.1 C 4.23 g/m*3 -0.1 C 0 km/h
2070 04-04-2020 05:25:00 -0.1 C 4.28 g/m*3 -0.1 C 0 km/h
2071 04-04-2020 05:30:00 -0.1 C 4.28 g/m*3 -0.1 C 0 km/h
2072 04-04-2020 05:35:00 -0.1 C 4.28 g/m*3 -0.1 C 0 km/h
2073 04-04-2020 05:40:00 -0.2 C 4.25 g/m*3 -0.2 C 1.6 km/h
2074 04-04-2020 05:45:00 -0.2 C 4.25 g/m*3 -0.2 C 0 km/h
2075 04-04-2020 05:50:00 -0.2 C 4.25 g/m*3 -0.2 C 0 km/h
Sensor: Nr:Datum:Temp:Abs-Feuchte:Windchill:Wind:
Aussen-T/F 2076 04-04-2020 05:55:00 -0.2 C 4.25 g/m*3 -0.2 C 0 km/h
2077 04-04-2020 06:00:00 -0.2 C 4.25 g/m*3 -0.2 C 0 km/h
2078 04-04-2020 06:05:00 -0.3 C 4.22 g/m*3 -0.3 C 0 km/h
2079 04-04-2020 06:10:00 -0.4 C 4.19 g/m*3 -0.4 C 0 km/h
2080 04-04-2020 06:15:00 -0.4 C 4.19 g/m*3 -0.4 C 0 km/h
2081 04-04-2020 06:20:00 -0.4 C 4.24 g/m*3 -0.4 C 0 km/h
2082 04-04-2020 06:25:00 -0.5 C 4.17 g/m*3 -0.5 C 0 km/h
2083 04-04-2020 06:30:00 -0.4 C 4.24 g/m*3 -0.4 C 0 km/h
2084 04-04-2020 06:35:00 -0.6 C 4.14 g/m*3 -0.6 C 3.2 km/h
2085 04-04-2020 06:40:00 -0.4 C 4.24 g/m*3 -2.64 C 6.4 km/h
2086 04-04-2020 06:45:00 -0.4 C 4.24 g/m*3 -0.4 C 0 km/h
2087 04-04-2020 06:50:00 -0.4 C 4.24 g/m*3 -0.4 C 0 km/h
2088 04-04-2020 06:55:00 -0.6 C 4.18 g/m*3 -0.6 C 0 km/h
2089 04-04-2020 07:00:00 -0.6 C 4.18 g/m*3 -0.6 C 0 km/h
2090 04-04-2020 07:05:00 -0.7 C 4.15 g/m*3 -0.7 C 0 km/h
2091 04-04-2020 07:10:00 -0.7 C 4.15 g/m*3 -0.7 C 0 km/h
2092 04-04-2020 07:15:00 -0.7 C 4.15 g/m*3 -0.7 C 0 km/h
2093 04-04-2020 07:20:00 -0.8 C 4.13 g/m*3 -0.8 C 0 km/h
2094 04-04-2020 07:25:00 -0.8 C 4.17 g/m*3 -0.8 C 1.6 km/h
2095 04-04-2020 07:30:00 -0.8 C 4.17 g/m*3 -0.8 C 0 km/h
2096 04-04-2020 07:35:00 -0.8 C 4.17 g/m*3 -0.8 C 0 km/h
2097 04-04-2020 07:40:00 -0.8 C 4.13 g/m*3 -0.8 C 0 km/h
2098 04-04-2020 07:45:00 -0.8 C 4.13 g/m*3 -0.8 C 0 km/h
2099 04-04-2020 07:50:00 -0.8 C 4.17 g/m*3 -0.8 C 0 km/h
2100 04-04-2020 07:55:00 -0.9 C 4.14 g/m*3 -0.9 C 0 km/h
Sensor: Nr:Datum:Temp:Abs-Feuchte:Windchill:Wind:
Aussen-T/F 2101 04-04-2020 08:00:00 -0.9 C 4.14 g/m*3 -0.9 C 1.6 km/h
2102 04-04-2020 08:05:00 -0.9 C 4.14 g/m*3 -0.9 C 0 km/h
2103 04-04-2020 08:10:00 -0.8 C 4.17 g/m*3 -0.8 C 0 km/h
2104 04-04-2020 08:15:00 -0.8 C 4.22 g/m*3 -0.8 C 0 km/h
2105 04-04-2020 08:20:00 -0.7 C 4.25 g/m*3 -0.7 C 0 km/h
2106 04-04-2020 08:25:00 -0.6 C 4.28 g/m*3 -0.6 C 0 km/h
2107 04-04-2020 08:30:00 -0.4 C 4.34 g/m*3 -0.4 C 0 km/h
2108 04-04-2020 08:35:00 -0.3 C 4.37 g/m*3 -0.3 C 0 km/h
2109 04-04-2020 08:40:00 -0.3 C 4.37 g/m*3 -0.3 C 0 km/h
2110 04-04-2020 08:45:00 -0.2 C 4.4 g/m*3 -0.2 C 0 km/h
2111 04-04-2020 08:50:00 -0.1 C 4.43 g/m*3 -0.1 C 0 km/h
2112 04-04-2020 08:55:00 -0.1 C 4.43 g/m*3 -0.1 C 0 km/h
2113 04-04-2020 09:00:00 0 C 4.46 g/m*3 0 C 0 km/h
2114 04-04-2020 09:05:00 0.1 C 4.49 g/m*3 0.1 C 1.6 km/h
2115 04-04-2020 09:10:00 0.2 C 4.47 g/m*3 0.2 C 0 km/h
2116 04-04-2020 09:15:00 0.3 C 4.5 g/m*3 0.3 C 0 km/h
2117 04-04-2020 09:20:00 0.3 C 4.5 g/m*3 0.3 C 0 km/h
2118 04-04-2020 09:25:00 0.4 C 4.53 g/m*3 0.4 C 0 km/h
2119 04-04-2020 09:30:00 0.5 C 4.56 g/m*3 0.5 C 3.2 km/h
2120 04-04-2020 09:35:00 0.7 C 4.63 g/m*3 0.7 C 0 km/h
2121 04-04-2020 09:40:00 0.8 C 4.66 g/m*3 0.8 C 1.6 km/h
2122 04-04-2020 09:45:00 1 C 4.72 g/m*3 1 C 3.2 km/h
2123 04-04-2020 09:50:00 1.1 C 4.76 g/m*3 1.1 C 0 km/h
2124 04-04-2020 09:55:00 1.3 C 4.82 g/m*3 1.3 C 0 km/h
2125 04-04-2020 10:00:00 1.5 C 4.89 g/m*3 1.5 C 0 km/h
Sensor: Nr:Datum:Temp:Abs-Feuchte:Windchill:Wind:
Aussen-T/F 2126 04-04-2020 10:05:00 1.8 C 4.99 g/m*3 1.8 C 0 km/h
2127 04-04-2020 10:10:00 2 C 5 g/m*3 2 C 0 km/h
2128 04-04-2020 10:15:00 2.2 C 5.07 g/m*3 2.2 C 0 km/h
2129 04-04-2020 10:20:00 2.3 C 5.05 g/m*3 2.3 C 0 km/h
2130 04-04-2020 10:25:00 2.6 C 5.15 g/m*3 2.6 C 0 km/h
2131 04-04-2020 10:30:00 2.7 C 5.13 g/m*3 2.7 C 0 km/h
2132 04-04-2020 10:35:00 3 C 5.23 g/m*3 3 C 0 km/h
2133 04-04-2020 10:40:00 3.3 C 5.34 g/m*3 3.3 C 0 km/h
2134 04-04-2020 10:45:00 3.7 C 5.42 g/m*3 3.7 C 0 km/h
2135 04-04-2020 10:50:00 4 C 5.47 g/m*3 4 C 0 km/h
2136 04-04-2020 10:55:00 4.3 C 5.45 g/m*3 4.3 C 0 km/h
2137 04-04-2020 11:00:00 4.8 C 5.57 g/m*3 4.8 C 1.6 km/h
2138 04-04-2020 11:05:00 5.2 C 5.65 g/m*3 5.2 C 0 km/h
2139 04-04-2020 11:10:00 5.7 C 5.69 g/m*3 5.7 C 0 km/h
2140 04-04-2020 11:15:00 6.1 C 5.7 g/m*3 6.1 C 0 km/h
2141 04-04-2020 11:20:00 6.5 C 5.7 g/m*3 6.5 C 1.6 km/h
2142 04-04-2020 11:25:00 6.8 C 5.81 g/m*3 6.8 C 1.6 km/h
2143 04-04-2020 11:30:00 7.2 C 5.73 g/m*3 7.2 C 4.8 km/h
2144 04-04-2020 11:35:00 7.4 C 5.49 g/m*3 7.4 C 0 km/h
2145 04-04-2020 11:40:00 7.8 C 5.55 g/m*3 7.8 C 3.2 km/h
2146 04-04-2020 11:45:00 8.2 C 5.61 g/m*3 8.2 C 3.2 km/h
2147 04-04-2020 11:50:00 8.5 C 5.64 g/m*3 8.5 C 3.2 km/h
2148 04-04-2020 11:55:00 8.8 C 5.48 g/m*3 6.97 C 11.3 km/h
2149 04-04-2020 12:00:00 9 C 5.55 g/m*3 9 C 3.2 km/h
2150 04-04-2020 12:05:00 9.2 C 5.45 g/m*3 9.2 C 4.8 km/h
Sensor: Nr:Datum:Temp:Abs-Feuchte:Windchill:Wind:
Aussen-T/F 2151 04-04-2020 12:10:00 9.3 C 5.48 g/m*3 9.3 C 3.2 km/h
2152 04-04-2020 12:15:00 9.6 C 5.5 g/m*3 9.6 C 4.8 km/h
2153 04-04-2020 12:20:00 9.9 C 5.51 g/m*3 8.87 C 8.1 km/h
2154 04-04-2020 12:25:00 10.1 C 5.39 g/m*3 9.48 C 6.4 km/h
2155 04-04-2020 12:30:00 10.3 C 5.27 g/m*3 10.3 C 3.2 km/h
2156 04-04-2020 12:35:00 10.3 C 5.17 g/m*3 9.04 C 9.7 km/h
2157 04-04-2020 12:40:00 10.3 C 5.27 g/m*3 9.04 C 9.7 km/h
2158 04-04-2020 12:45:00 10.3 C 5.27 g/m*3 8.78 C 11.3 km/h
2159 04-04-2020 12:50:00 10.4 C 5.2 g/m*3 9.16 C 9.7 km/h
2160 04-04-2020 12:55:00 10.6 C 5.37 g/m*3 9.4 C 9.7 km/h
2161 04-04-2020 13:00:00 10.7 C 5.21 g/m*3 9.26 C 11.3 km/h
2162 04-04-2020 13:05:00 10.8 C 5.24 g/m*3 9.93 C 8.1 km/h
2163 04-04-2020 13:10:00 10.9 C 5.37 g/m*3 10.41 C 6.4 km/h
2164 04-04-2020 13:15:00 11.2 C 5.47 g/m*3 11.2 C 8.1 km/h
2165 04-04-2020 13:20:00 11.3 C 5.3 g/m*3 11.3 C 9.7 km/h
2166 04-04-2020 13:25:00 11.4 C 5.44 g/m*3 11.4 C 9.7 km/h
2167 04-04-2020 13:30:00 11.5 C 5.27 g/m*3 11.5 C 12.9 km/h
2168 04-04-2020 13:35:00 11.6 C 5.3 g/m*3 11.6 C 9.7 km/h
2169 04-04-2020 13:40:00 11.7 C 5.44 g/m*3 11.7 C 9.7 km/h
2170 04-04-2020 13:45:00 11.8 C 5.26 g/m*3 11.8 C 9.7 km/h
2171 04-04-2020 13:50:00 12 C 5.44 g/m*3 12 C 11.3 km/h
2172 04-04-2020 13:55:00 12.2 C 5.29 g/m*3 12.2 C 17.7 km/h
2173 04-04-2020 14:00:00 12.1 C 5.15 g/m*3 12.1 C 16.1 km/h
2174 04-04-2020 14:05:00 12.1 C 5.25 g/m*3 12.1 C 11.3 km/h
2175 04-04-2020 14:10:00 12.3 C 5.1 g/m*3 12.3 C 12.9 km/h
Sensor: Nr:Datum:Temp:Abs-Feuchte:Windchill:Wind:
Aussen-T/F 2176 04-04-2020 14:15:00 12.6 C 5.31 g/m*3 12.6 C 12.9 km/h
2177 04-04-2020 14:20:00 12.7 C 5.23 g/m*3 12.7 C 19.3 km/h
2178 04-04-2020 14:25:00 12.8 C 5.26 g/m*3 12.8 C 14.5 km/h
2179 04-04-2020 14:30:00 12.9 C 5.3 g/m*3 12.9 C 12.9 km/h
2180 04-04-2020 14:35:00 13 C 5.33 g/m*3 13 C 12.9 km/h
2181 04-04-2020 14:40:00 13.1 C 5.25 g/m*3 13.1 C 12.9 km/h
2182 04-04-2020 14:45:00 13.2 C 5.4 g/m*3 13.2 C 12.9 km/h
2183 04-04-2020 14:50:00 13.2 C 5.28 g/m*3 13.2 C 14.5 km/h
2184 04-04-2020 14:55:00 13.2 C 5.4 g/m*3 13.2 C 8.1 km/h
2185 04-04-2020 15:00:00 13.3 C 5.2 g/m*3 13.3 C 16.1 km/h
2186 04-04-2020 15:05:00 13.2 C 5.4 g/m*3 13.2 C 8.1 km/h
2187 04-04-2020 15:10:00 13.3 C 5.31 g/m*3 13.3 C 12.9 km/h
2188 04-04-2020 15:15:00 13.3 C 5.2 g/m*3 13.3 C 12.9 km/h
2189 04-04-2020 15:20:00 13.3 C 5.2 g/m*3 13.3 C 12.9 km/h
2190 04-04-2020 15:25:00 13.3 C 5.31 g/m*3 13.3 C 12.9 km/h
2191 04-04-2020 15:30:00 13.6 C 5.41 g/m*3 13.6 C 11.3 km/h
2192 04-04-2020 15:35:00 13.7 C 5.45 g/m*3 13.7 C 9.7 km/h
2193 04-04-2020 15:40:00 13.8 C 5.36 g/m*3 13.8 C 6.4 km/h
2194 04-04-2020 15:45:00 13.9 C 5.39 g/m*3 13.9 C 14.5 km/h
2195 04-04-2020 15:50:00 14 C 5.31 g/m*3 14 C 16.1 km/h
2196 04-04-2020 15:55:00 14 C 5.31 g/m*3 14 C 14.5 km/h
2197 04-04-2020 16:00:00 14.2 C 5.37 g/m*3 14.2 C 12.9 km/h
2198 04-04-2020 16:05:00 14.4 C 5.32 g/m*3 14.4 C 14.5 km/h
2199 04-04-2020 16:10:00 14.4 C 5.32 g/m*3 14.4 C 12.9 km/h
2200 04-04-2020 16:15:00 14.7 C 5.41 g/m*3 14.7 C 6.4 km/h
Sensor: Nr:Datum:Temp:Abs-Feuchte:Windchill:Wind:
Aussen-T/F 2201 04-04-2020 16:20:00 14.8 C 5.32 g/m*3 14.8 C 11.3 km/h
2202 04-04-2020 16:25:00 14.7 C 5.29 g/m*3 14.7 C 12.9 km/h
2203 04-04-2020 16:30:00 14.7 C 5.41 g/m*3 14.7 C 11.3 km/h
2204 04-04-2020 16:35:00 14.9 C 5.48 g/m*3 14.9 C 8.1 km/h
2205 04-04-2020 16:40:00 15.2 C 5.58 g/m*3 15.2 C 8.1 km/h
2206 04-04-2020 16:45:00 15.3 C 5.48 g/m*3 15.3 C 9.7 km/h
2207 04-04-2020 16:50:00 15.4 C 5.52 g/m*3 15.4 C 9.7 km/h
2208 04-04-2020 16:55:00 15.6 C 5.45 g/m*3 15.6 C 8.1 km/h
2209 04-04-2020 17:00:00 15.7 C 5.62 g/m*3 15.7 C 9.7 km/h
2210 04-04-2020 17:05:00 15.9 C 5.69 g/m*3 15.9 C 8.1 km/h
2211 04-04-2020 17:10:00 16.1 C 5.48 g/m*3 16.1 C 8.1 km/h
2212 04-04-2020 17:15:00 16.1 C 5.62 g/m*3 16.1 C 9.7 km/h
2213 04-04-2020 17:20:00 15.9 C 5.55 g/m*3 15.9 C 9.7 km/h
2214 04-04-2020 17:25:00 15.9 C 5.55 g/m*3 15.9 C 12.9 km/h
2215 04-04-2020 17:30:00 15.8 C 5.65 g/m*3 15.8 C 8.1 km/h
2216 04-04-2020 17:35:00 15.8 C 5.52 g/m*3 15.8 C 11.3 km/h
2217 04-04-2020 17:40:00 15.7 C 5.75 g/m*3 15.7 C 8.1 km/h
2218 04-04-2020 17:45:00 15.9 C 5.82 g/m*3 15.9 C 8.1 km/h
2219 04-04-2020 17:50:00 16 C 5.72 g/m*3 16 C 11.3 km/h
2220 04-04-2020 17:55:00 16.1 C 5.76 g/m*3 16.1 C 6.4 km/h
2221 04-04-2020 18:00:00 16.3 C 6.1 g/m*3 16.3 C 6.4 km/h
2222 04-04-2020 18:05:00 16.5 C 5.76 g/m*3 16.5 C 11.3 km/h
2223 04-04-2020 18:10:00 16.5 C 6.04 g/m*3 16.5 C 8.1 km/h
2224 04-04-2020 18:15:00 16.5 C 5.9 g/m*3 16.5 C 9.7 km/h
2225 04-04-2020 18:20:00 16.4 C 5.86 g/m*3 16.4 C 16.1 km/h
Sensor: Nr:Datum:Temp:Abs-Feuchte:Windchill:Wind:
Aussen-T/F 2226 04-04-2020 18:25:00 16.3 C 5.97 g/m*3 16.3 C 8.1 km/h
2227 04-04-2020 18:30:00 16.1 C 5.89 g/m*3 16.1 C 12.9 km/h
2228 04-04-2020 18:35:00 16.1 C 6.03 g/m*3 16.1 C 9.7 km/h
2229 04-04-2020 18:40:00 16.2 C 6.07 g/m*3 16.2 C 6.4 km/h
2230 04-04-2020 18:45:00 16.3 C 5.97 g/m*3 16.3 C 8.1 km/h
2231 04-04-2020 18:50:00 16.1 C 6.03 g/m*3 16.1 C 11.3 km/h
2232 04-04-2020 18:55:00 16 C 5.99 g/m*3 16 C 6.4 km/h
2233 04-04-2020 19:00:00 16 C 6.13 g/m*3 16 C 8.1 km/h
2234 04-04-2020 19:05:00 16 C 5.99 g/m*3 16 C 6.4 km/h
2235 04-04-2020 19:10:00 15.9 C 5.96 g/m*3 15.9 C 9.7 km/h
2236 04-04-2020 19:15:00 15.8 C 5.92 g/m*3 15.8 C 6.4 km/h
2237 04-04-2020 19:20:00 15.6 C 5.98 g/m*3 15.6 C 6.4 km/h
2238 04-04-2020 19:25:00 15.4 C 6.31 g/m*3 15.4 C 1.6 km/h
2239 04-04-2020 19:30:00 15.3 C 6.01 g/m*3 15.3 C 3.2 km/h
2240 04-04-2020 19:35:00 15.1 C 6.32 g/m*3 15.1 C 0 km/h
2241 04-04-2020 19:40:00 14.9 C 6.5 g/m*3 14.9 C 3.2 km/h
2242 04-04-2020 19:45:00 14.4 C 6.43 g/m*3 14.4 C 3.2 km/h
2243 04-04-2020 19:50:00 13.9 C 6.35 g/m*3 13.9 C 4.8 km/h
2244 04-04-2020 19:55:00 13.2 C 6.2 g/m*3 13.2 C 4.8 km/h
2245 04-04-2020 20:00:00 12.6 C 6.2 g/m*3 12.6 C 6.4 km/h
2246 04-04-2020 20:05:00 12.1 C 6.11 g/m*3 12.1 C 6.4 km/h
2247 04-04-2020 20:10:00 11.7 C 6.07 g/m*3 11.7 C 4.8 km/h
2248 04-04-2020 20:15:00 11.3 C 6.02 g/m*3 11.3 C 6.4 km/h
2249 04-04-2020 20:20:00 10.9 C 6.07 g/m*3 10.41 C 6.4 km/h
2250 04-04-2020 20:25:00 10.6 C 6.05 g/m*3 10.6 C 4.8 km/h
Sensor: Nr:Datum:Temp:Abs-Feuchte:Windchill:Wind:
Aussen-T/F 2251 04-04-2020 20:30:00 10.3 C 6.03 g/m*3 9.72 C 6.4 km/h
2252 04-04-2020 20:35:00 9.9 C 5.88 g/m*3 9.25 C 6.4 km/h
2253 04-04-2020 20:40:00 9.7 C 5.81 g/m*3 9.02 C 6.4 km/h
2254 04-04-2020 20:45:00 9.4 C 5.7 g/m*3 9.4 C 4.8 km/h
2255 04-04-2020 20:50:00 9.2 C 5.63 g/m*3 8.45 C 6.4 km/h
2256 04-04-2020 20:55:00 9 C 5.64 g/m*3 8.21 C 6.4 km/h
2257 04-04-2020 21:00:00 8.8 C 5.57 g/m*3 7.58 C 8.1 km/h
2258 04-04-2020 21:05:00 8.7 C 5.53 g/m*3 7.87 C 6.4 km/h
2259 04-04-2020 21:10:00 8.6 C 5.59 g/m*3 8.6 C 4.8 km/h
2260 04-04-2020 21:15:00 8.5 C 5.55 g/m*3 7.64 C 6.4 km/h
2261 04-04-2020 21:20:00 8.4 C 5.51 g/m*3 8.4 C 4.8 km/h
2262 04-04-2020 21:25:00 8.3 C 5.48 g/m*3 8.3 C 4.8 km/h
2263 04-04-2020 21:30:00 8.2 C 5.53 g/m*3 8.2 C 4.8 km/h
2264 04-04-2020 21:35:00 8.1 C 5.57 g/m*3 8.1 C 4.8 km/h
2265 04-04-2020 21:40:00 8 C 5.54 g/m*3 8 C 3.2 km/h
2266 04-04-2020 21:45:00 7.8 C 5.55 g/m*3 7.8 C 1.6 km/h
2267 04-04-2020 21:50:00 7.7 C 5.51 g/m*3 7.7 C 3.2 km/h
2268 04-04-2020 21:55:00 7.5 C 5.52 g/m*3 7.5 C 3.2 km/h
2269 04-04-2020 22:00:00 7.3 C 5.45 g/m*3 7.3 C 1.6 km/h
2270 04-04-2020 22:05:00 7.1 C 5.46 g/m*3 7.1 C 1.6 km/h
2271 04-04-2020 22:10:00 6.8 C 5.43 g/m*3 6.8 C 0 km/h
2272 04-04-2020 22:15:00 6.6 C 5.36 g/m*3 6.6 C 0 km/h
2273 04-04-2020 22:20:00 6.4 C 5.36 g/m*3 6.4 C 0 km/h
2274 04-04-2020 22:25:00 6.2 C 5.37 g/m*3 6.2 C 0 km/h
2275 04-04-2020 22:30:00 6.2 C 5.44 g/m*3 6.2 C 0 km/h
Sensor: Nr:Datum:Temp:Abs-Feuchte:Windchill:Wind:
Aussen-T/F 2276 04-04-2020 22:35:00 6.2 C 5.44 g/m*3 6.2 C 0 km/h
2277 04-04-2020 22:40:00 6 C 5.37 g/m*3 6 C 0 km/h
2278 04-04-2020 22:45:00 5.8 C 5.3 g/m*3 5.8 C 0 km/h
2279 04-04-2020 22:50:00 5.7 C 5.27 g/m*3 5.7 C 0 km/h
2280 04-04-2020 22:55:00 5.6 C 5.23 g/m*3 5.6 C 0 km/h
2281 04-04-2020 23:00:00 5.4 C 5.16 g/m*3 5.4 C 0 km/h
2282 04-04-2020 23:05:00 5.3 C 5.13 g/m*3 5.3 C 0 km/h
2283 04-04-2020 23:10:00 5.2 C 5.1 g/m*3 5.2 C 0 km/h
2284 04-04-2020 23:15:00 5.1 C 5.13 g/m*3 5.1 C 0 km/h
2285 04-04-2020 23:20:00 4.9 C 5.06 g/m*3 4.9 C 0 km/h
2286 04-04-2020 23:25:00 4.8 C 5.1 g/m*3 4.8 C 0 km/h
2287 04-04-2020 23:30:00 4.6 C 5.1 g/m*3 4.6 C 0 km/h
2288 04-04-2020 23:35:00 4.4 C 5.03 g/m*3 4.4 C 0 km/h
2289 04-04-2020 23:40:00 4.4 C 5.09 g/m*3 4.4 C 0 km/h
2290 04-04-2020 23:45:00 4.3 C 5.06 g/m*3 4.3 C 0 km/h
2291 04-04-2020 23:50:00 4.3 C 5.06 g/m*3 4.3 C 0 km/h
2292 04-04-2020 23:55:00 4.2 C 5.03 g/m*3 4.2 C 0 km/h
2293 05-04-2020 00:00:00 4.1 C 4.99 g/m*3 4.1 C 0 km/h
2294 05-04-2020 00:05:00 4 C 4.96 g/m*3 4 C 0 km/h
2295 05-04-2020 00:10:00 3.9 C 4.99 g/m*3 3.9 C 0 km/h
2296 05-04-2020 00:15:00 3.8 C 4.96 g/m*3 3.8 C 0 km/h
2297 05-04-2020 00:20:00 3.7 C 4.99 g/m*3 3.7 C 0 km/h
2298 05-04-2020 00:25:00 3.6 C 5.01 g/m*3 3.6 C 0 km/h
2299 05-04-2020 00:30:00 3.5 C 4.98 g/m*3 3.5 C 0 km/h
2300 05-04-2020 00:35:00 3.4 C 4.95 g/m*3 3.4 C 0 km/h
Sensor: Nr:Datum:Temp:Abs-Feuchte:Windchill:Wind:
Aussen-T/F 2301 05-04-2020 00:40:00 3.3 C 4.97 g/m*3 3.3 C 0 km/h
2302 05-04-2020 00:45:00 3.3 C 4.97 g/m*3 3.3 C 0 km/h
2303 05-04-2020 00:50:00 3.3 C 4.97 g/m*3 3.3 C 0 km/h
2304 05-04-2020 00:55:00 3.2 C 4.94 g/m*3 3.2 C 0 km/h
2305 05-04-2020 01:00:00 3.1 C 4.91 g/m*3 3.1 C 0 km/h
2306 05-04-2020 01:05:00 3.1 C 4.97 g/m*3 3.1 C 0 km/h
2307 05-04-2020 01:10:00 2.9 C 4.9 g/m*3 2.9 C 0 km/h
2308 05-04-2020 01:15:00 2.9 C 4.96 g/m*3 2.9 C 0 km/h
2309 05-04-2020 01:20:00 2.9 C 4.96 g/m*3 2.9 C 0 km/h
2310 05-04-2020 01:25:00 2.9 C 4.96 g/m*3 2.9 C 0 km/h
2311 05-04-2020 01:30:00 2.9 C 5.02 g/m*3 2.9 C 0 km/h
2312 05-04-2020 01:35:00 2.9 C 5.02 g/m*3 2.9 C 0 km/h
2313 05-04-2020 01:40:00 2.9 C 4.96 g/m*3 2.9 C 0 km/h
2314 05-04-2020 01:45:00 2.8 C 4.93 g/m*3 2.8 C 0 km/h
2315 05-04-2020 01:50:00 2.8 C 4.99 g/m*3 2.8 C 0 km/h
2316 05-04-2020 01:55:00 2.7 C 4.89 g/m*3 2.7 C 0 km/h
2317 05-04-2020 02:00:00 2.6 C 4.92 g/m*3 2.6 C 0 km/h
2318 05-04-2020 02:05:00 2.5 C 4.89 g/m*3 2.5 C 0 km/h
2319 05-04-2020 02:10:00 2.4 C 4.91 g/m*3 2.4 C 0 km/h
2320 05-04-2020 02:15:00 2.3 C 4.88 g/m*3 2.3 C 0 km/h
2321 05-04-2020 02:20:00 2.3 C 4.93 g/m*3 2.3 C 0 km/h
2322 05-04-2020 02:25:00 2.3 C 4.93 g/m*3 2.3 C 0 km/h
2323 05-04-2020 02:30:00 2.3 C 4.93 g/m*3 2.3 C 0 km/h
2324 05-04-2020 02:35:00 2.3 C 4.88 g/m*3 2.3 C 0 km/h
2325 05-04-2020 02:40:00 2.3 C 4.93 g/m*3 2.3 C 0 km/h
Sensor: Nr:Datum:Temp:Abs-Feuchte:Windchill:Wind:
Aussen-T/F 2326 05-04-2020 02:45:00 2.2 C 4.84 g/m*3 2.2 C 0 km/h
2327 05-04-2020 02:50:00 2.2 C 4.9 g/m*3 2.2 C 0 km/h
2328 05-04-2020 02:55:00 2.1 C 4.87 g/m*3 2.1 C 3.2 km/h
2329 05-04-2020 03:00:00 2.1 C 4.87 g/m*3 2.1 C 3.2 km/h
2330 05-04-2020 03:05:00 2 C 4.83 g/m*3 2 C 0 km/h
2331 05-04-2020 03:10:00 1.9 C 4.8 g/m*3 1.9 C 0 km/h
2332 05-04-2020 03:15:00 1.9 C 4.8 g/m*3 1.9 C 0 km/h
2333 05-04-2020 03:20:00 1.9 C 4.86 g/m*3 1.9 C 0 km/h
2334 05-04-2020 03:25:00 1.9 C 4.86 g/m*3 1.9 C 0 km/h
2335 05-04-2020 03:30:00 1.8 C 4.82 g/m*3 1.8 C 0 km/h
2336 05-04-2020 03:35:00 1.8 C 4.82 g/m*3 1.8 C 0 km/h
2337 05-04-2020 03:40:00 1.7 C 4.79 g/m*3 1.7 C 0 km/h
2338 05-04-2020 03:45:00 1.6 C 4.76 g/m*3 1.6 C 0 km/h
2339 05-04-2020 03:50:00 1.6 C 4.76 g/m*3 1.6 C 0 km/h
2340 05-04-2020 03:55:00 1.6 C 4.81 g/m*3 1.6 C 0 km/h
2341 05-04-2020 04:00:00 1.5 C 4.78 g/m*3 1.5 C 0 km/h
2342 05-04-2020 04:05:00 1.4 C 4.75 g/m*3 1.4 C 0 km/h
2343 05-04-2020 04:10:00 1.4 C 4.75 g/m*3 1.4 C 0 km/h
2344 05-04-2020 04:15:00 1.3 C 4.72 g/m*3 1.3 C 0 km/h
2345 05-04-2020 04:20:00 1.3 C 4.77 g/m*3 1.3 C 0 km/h
2346 05-04-2020 04:25:00 1.3 C 4.77 g/m*3 1.3 C 0 km/h
2347 05-04-2020 04:30:00 1.3 C 4.77 g/m*3 1.3 C 0 km/h
2348 05-04-2020 04:35:00 1.3 C 4.77 g/m*3 1.3 C 0 km/h
2349 05-04-2020 04:40:00 1.2 C 4.74 g/m*3 1.2 C 0 km/h
2350 05-04-2020 04:45:00 1.2 C 4.74 g/m*3 1.2 C 0 km/h
Sensor: Nr:Datum:Temp:Abs-Feuchte:Windchill:Wind:
Aussen-T/F 2351 05-04-2020 04:50:00 1.1 C 4.7 g/m*3 1.1 C 0 km/h
2352 05-04-2020 04:55:00 1.1 C 4.7 g/m*3 1.1 C 0 km/h
2353 05-04-2020 05:00:00 1 C 4.67 g/m*3 1 C 0 km/h
2354 05-04-2020 05:05:00 0.9 C 4.64 g/m*3 0.9 C 0 km/h
2355 05-04-2020 05:10:00 0.9 C 4.69 g/m*3 0.9 C 0 km/h
2356 05-04-2020 05:15:00 0.8 C 4.66 g/m*3 0.8 C 0 km/h
2357 05-04-2020 05:20:00 0.8 C 4.66 g/m*3 0.8 C 0 km/h
2358 05-04-2020 05:25:00 0.8 C 4.66 g/m*3 0.8 C 0 km/h
2359 05-04-2020 05:30:00 0.7 C 4.63 g/m*3 0.7 C 0 km/h
2360 05-04-2020 05:35:00 0.7 C 4.63 g/m*3 0.7 C 0 km/h
2361 05-04-2020 05:40:00 0.6 C 4.6 g/m*3 0.6 C 0 km/h
2362 05-04-2020 05:45:00 0.6 C 4.6 g/m*3 0.6 C 0 km/h
2363 05-04-2020 05:50:00 0.5 C 4.56 g/m*3 0.5 C 0 km/h
2364 05-04-2020 05:55:00 0.5 C 4.61 g/m*3 0.5 C 0 km/h
2365 05-04-2020 06:00:00 0.5 C 4.61 g/m*3 0.5 C 0 km/h
2366 05-04-2020 06:05:00 0.4 C 4.58 g/m*3 0.4 C 0 km/h
2367 05-04-2020 06:10:00 0.4 C 4.58 g/m*3 0.4 C 0 km/h
2368 05-04-2020 06:15:00 0.4 C 4.58 g/m*3 0.4 C 0 km/h
2369 05-04-2020 06:20:00 0.4 C 4.58 g/m*3 0.4 C 0 km/h
2370 05-04-2020 06:25:00 0.4 C 4.58 g/m*3 0.4 C 0 km/h
2371 05-04-2020 06:30:00 0.4 C 4.58 g/m*3 0.4 C 0 km/h
2372 05-04-2020 06:35:00 0.3 C 4.55 g/m*3 0.3 C 0 km/h
2373 05-04-2020 06:40:00 0.3 C 4.55 g/m*3 0.3 C 0 km/h
2374 05-04-2020 06:45:00 0.3 C 4.6 g/m*3 0.3 C 0 km/h
2375 05-04-2020 06:50:00 0.3 C 4.6 g/m*3 0.3 C 0 km/h
Sensor: Nr:Datum:Temp:Abs-Feuchte:Windchill:Wind:
Aussen-T/F 2376 05-04-2020 06:55:00 0.3 C 4.6 g/m*3 0.3 C 0 km/h
2377 05-04-2020 07:00:00 0.3 C 4.6 g/m*3 0.3 C 0 km/h
2378 05-04-2020 07:05:00 0.2 C 4.57 g/m*3 0.2 C 0 km/h
2379 05-04-2020 07:10:00 0.2 C 4.57 g/m*3 0.2 C 0 km/h
2380 05-04-2020 07:15:00 0.3 C 4.6 g/m*3 0.3 C 0 km/h
2381 05-04-2020 07:20:00 0.3 C 4.6 g/m*3 0.3 C 0 km/h
2382 05-04-2020 07:25:00 0.3 C 4.6 g/m*3 0.3 C 0 km/h
2383 05-04-2020 07:30:00 0.3 C 4.6 g/m*3 0.3 C 0 km/h
2384 05-04-2020 07:35:00 0.3 C 4.6 g/m*3 0.3 C 0 km/h
2385 05-04-2020 07:40:00 0.4 C 4.63 g/m*3 0.4 C 0 km/h
2386 05-04-2020 07:45:00 0.4 C 4.63 g/m*3 0.4 C 0 km/h
2387 05-04-2020 07:50:00 0.4 C 4.63 g/m*3 0.4 C 0 km/h
2388 05-04-2020 07:55:00 0.5 C 4.66 g/m*3 0.5 C 0 km/h
2389 05-04-2020 08:00:00 0.5 C 4.66 g/m*3 0.5 C 0 km/h
2390 05-04-2020 08:05:00 0.6 C 4.75 g/m*3 0.6 C 0 km/h
2391 05-04-2020 08:10:00 0.6 C 4.75 g/m*3 0.6 C 0 km/h
2392 05-04-2020 08:15:00 0.7 C 4.78 g/m*3 0.7 C 0 km/h
2393 05-04-2020 08:20:00 0.7 C 4.78 g/m*3 0.7 C 0 km/h
2394 05-04-2020 08:25:00 0.8 C 4.81 g/m*3 0.8 C 0 km/h
2395 05-04-2020 08:30:00 0.9 C 4.85 g/m*3 0.9 C 0 km/h
2396 05-04-2020 08:35:00 1.1 C 4.91 g/m*3 1.1 C 0 km/h
2397 05-04-2020 08:40:00 1.2 C 4.95 g/m*3 1.2 C 0 km/h
2398 05-04-2020 08:45:00 1.2 C 4.95 g/m*3 1.2 C 0 km/h
2399 05-04-2020 08:50:00 1.3 C 4.98 g/m*3 1.3 C 0 km/h
2400 05-04-2020 08:55:00 1.5 C 5.05 g/m*3 1.5 C 0 km/h
Sensor: Nr:Datum:Temp:Abs-Feuchte:Windchill:Wind:
Aussen-T/F 2401 05-04-2020 09:00:00 1.6 C 5.08 g/m*3 1.6 C 0 km/h
2402 05-04-2020 09:05:00 1.7 C 5.12 g/m*3 1.7 C 0 km/h
2403 05-04-2020 09:10:00 1.8 C 5.15 g/m*3 1.8 C 0 km/h
2404 05-04-2020 09:15:00 1.9 C 5.19 g/m*3 1.9 C 0 km/h
2405 05-04-2020 09:20:00 2.2 C 5.29 g/m*3 2.2 C 0 km/h
2406 05-04-2020 09:25:00 2.3 C 5.39 g/m*3 2.3 C 0 km/h
2407 05-04-2020 09:30:00 2.6 C 5.5 g/m*3 2.6 C 0 km/h
2408 05-04-2020 09:35:00 2.8 C 5.57 g/m*3 2.8 C 0 km/h
2409 05-04-2020 09:40:00 3 C 5.65 g/m*3 3 C 0 km/h
2410 05-04-2020 09:45:00 3.3 C 5.76 g/m*3 3.3 C 0 km/h
2411 05-04-2020 09:50:00 3.4 C 5.74 g/m*3 3.4 C 0 km/h
2412 05-04-2020 09:55:00 3.7 C 5.86 g/m*3 3.7 C 0 km/h
2413 05-04-2020 10:00:00 3.8 C 5.9 g/m*3 3.8 C 0 km/h
2414 05-04-2020 10:05:00 4.1 C 5.95 g/m*3 4.1 C 0 km/h
2415 05-04-2020 10:10:00 4.4 C 6.07 g/m*3 4.4 C 0 km/h
2416 05-04-2020 10:15:00 4.7 C 6.13 g/m*3 4.7 C 0 km/h
2417 05-04-2020 10:20:00 4.9 C 6.21 g/m*3 4.9 C 0 km/h
2418 05-04-2020 10:25:00 5.2 C 6.27 g/m*3 5.2 C 0 km/h
2419 05-04-2020 10:30:00 5.6 C 6.36 g/m*3 5.6 C 0 km/h
2420 05-04-2020 10:35:00 6.1 C 6.43 g/m*3 6.1 C 0 km/h
2421 05-04-2020 10:40:00 6.5 C 6.52 g/m*3 6.5 C 0 km/h
2422 05-04-2020 10:45:00 6.9 C 6.54 g/m*3 6.9 C 0 km/h
2423 05-04-2020 10:50:00 7.3 C 6.64 g/m*3 7.3 C 0 km/h
2424 05-04-2020 10:55:00 7.8 C 6.69 g/m*3 7.8 C 0 km/h
2425 05-04-2020 11:00:00 8.3 C 6.74 g/m*3 8.3 C 0 km/h
Sensor: Nr:Datum:Temp:Abs-Feuchte:Windchill:Wind:
Aussen-T/F 2426 05-04-2020 11:05:00 8.9 C 6.92 g/m*3 8.9 C 4.8 km/h
2427 05-04-2020 11:10:00 9.4 C 6.87 g/m*3 9.4 C 4.8 km/h
2428 05-04-2020 11:15:00 9.9 C 7 g/m*3 9.9 C 0 km/h
2429 05-04-2020 11:20:00 10.3 C 6.8 g/m*3 10.3 C 1.6 km/h
2430 05-04-2020 11:25:00 10.7 C 6.97 g/m*3 10.7 C 1.6 km/h
2431 05-04-2020 11:30:00 11.4 C 6.57 g/m*3 11.4 C 8.1 km/h
2432 05-04-2020 11:35:00 12.4 C 6.45 g/m*3 12.4 C 4.8 km/h
2433 05-04-2020 11:40:00 13.1 C 6.39 g/m*3 13.1 C 9.7 km/h
2434 05-04-2020 11:45:00 13.7 C 5.8 g/m*3 13.7 C 14.5 km/h
2435 05-04-2020 11:50:00 14.2 C 5.74 g/m*3 14.2 C 8.1 km/h
2436 05-04-2020 11:55:00 14.8 C 5.7 g/m*3 14.8 C 6.4 km/h
2437 05-04-2020 12:00:00 15.3 C 5.62 g/m*3 15.3 C 14.5 km/h
2438 05-04-2020 12:05:00 15.6 C 5.45 g/m*3 15.6 C 19.3 km/h
2439 05-04-2020 12:10:00 15.8 C 5.65 g/m*3 15.8 C 8.1 km/h
2440 05-04-2020 12:15:00 16.1 C 5.76 g/m*3 16.1 C 14.5 km/h
2441 05-04-2020 12:20:00 16.2 C 5.52 g/m*3 16.2 C 16.1 km/h
2442 05-04-2020 12:25:00 16.3 C 5.41 g/m*3 16.3 C 9.7 km/h
2443 05-04-2020 12:30:00 16.4 C 5.3 g/m*3 16.4 C 12.9 km/h
2444 05-04-2020 12:35:00 16.6 C 5.51 g/m*3 16.6 C 11.3 km/h
2445 05-04-2020 12:40:00 16.7 C 5.68 g/m*3 16.7 C 11.3 km/h
2446 05-04-2020 12:45:00 16.8 C 5.43 g/m*3 16.8 C 6.4 km/h
2447 05-04-2020 12:50:00 16.8 C 5.58 g/m*3 16.8 C 8.1 km/h
2448 05-04-2020 12:55:00 16.8 C 5.29 g/m*3 16.8 C 9.7 km/h
2449 05-04-2020 13:00:00 16.8 C 5.43 g/m*3 16.8 C 12.9 km/h
2450 05-04-2020 13:05:00 16.9 C 5.32 g/m*3 16.9 C 9.7 km/h
Sensor: Nr:Datum:Temp:Abs-Feuchte:Windchill:Wind:
Aussen-T/F 2451 05-04-2020 13:10:00 17.1 C 5.53 g/m*3 17.1 C 9.7 km/h
2452 05-04-2020 13:15:00 17.3 C 5.6 g/m*3 17.3 C 11.3 km/h
2453 05-04-2020 13:20:00 17.2 C 5.42 g/m*3 17.2 C 9.7 km/h
2454 05-04-2020 13:25:00 17.3 C 5.45 g/m*3 17.3 C 12.9 km/h
2455 05-04-2020 13:30:00 17.4 C 5.48 g/m*3 17.4 C 11.3 km/h
2456 05-04-2020 13:35:00 17.4 C 5.48 g/m*3 17.4 C 14.5 km/h
2457 05-04-2020 13:40:00 17.3 C 5.6 g/m*3 17.3 C 19.3 km/h
2458 05-04-2020 13:45:00 17.3 C 5.3 g/m*3 17.3 C 9.7 km/h
2459 05-04-2020 13:50:00 17.3 C 5.45 g/m*3 17.3 C 12.9 km/h
2460 05-04-2020 13:55:00 17.4 C 5.34 g/m*3 17.4 C 16.1 km/h
2461 05-04-2020 14:00:00 17.6 C 5.55 g/m*3 17.6 C 20.9 km/h
2462 05-04-2020 14:05:00 17.7 C 5.58 g/m*3 17.7 C 8.1 km/h
2463 05-04-2020 14:10:00 17.9 C 5.34 g/m*3 17.9 C 12.9 km/h
2464 05-04-2020 14:15:00 17.9 C 5.65 g/m*3 17.9 C 22.5 km/h
2465 05-04-2020 14:20:00 18.1 C 5.56 g/m*3 18.1 C 16.1 km/h
2466 05-04-2020 14:25:00 18.2 C 5.6 g/m*3 18.2 C 17.7 km/h
2467 05-04-2020 14:30:00 18.2 C 5.44 g/m*3 18.2 C 16.1 km/h
2468 05-04-2020 14:35:00 18.3 C 5.63 g/m*3 18.3 C 11.3 km/h
2469 05-04-2020 14:40:00 18.6 C 5.57 g/m*3 18.6 C 8.1 km/h
2470 05-04-2020 14:45:00 18.7 C 5.6 g/m*3 18.7 C 11.3 km/h
2471 05-04-2020 14:50:00 18.8 C 5.48 g/m*3 18.8 C 14.5 km/h
2472 05-04-2020 14:55:00 18.6 C 5.57 g/m*3 18.6 C 12.9 km/h
2473 05-04-2020 15:00:00 18.6 C 5.57 g/m*3 18.6 C 6.4 km/h
2474 05-04-2020 15:05:00 18.8 C 5.64 g/m*3 18.8 C 6.4 km/h
2475 05-04-2020 15:10:00 18.9 C 5.51 g/m*3 18.9 C 6.4 km/h
Sensor: Nr:Datum:Temp:Abs-Feuchte:Windchill:Wind:
Aussen-T/F 2476 05-04-2020 15:15:00 19 C 5.38 g/m*3 19 C 6.4 km/h
2477 05-04-2020 15:20:00 18.9 C 5.51 g/m*3 18.9 C 11.3 km/h
2478 05-04-2020 15:25:00 18.9 C 5.35 g/m*3 18.9 C 8.1 km/h
2479 05-04-2020 15:30:00 19.1 C 5.41 g/m*3 19.1 C 14.5 km/h
2480 05-04-2020 15:35:00 18.9 C 5.18 g/m*3 18.9 C 14.5 km/h
2481 05-04-2020 15:40:00 18.8 C 5.31 g/m*3 18.8 C 6.4 km/h
2482 05-04-2020 15:45:00 18.9 C 5.67 g/m*3 18.9 C 11.3 km/h
2483 05-04-2020 15:50:00 19 C 5.54 g/m*3 19 C 9.7 km/h
2484 05-04-2020 15:55:00 19.2 C 5.44 g/m*3 19.2 C 11.3 km/h
2485 05-04-2020 16:00:00 19.2 C 5.44 g/m*3 19.2 C 12.9 km/h
2486 05-04-2020 16:05:00 19.3 C 5.31 g/m*3 19.3 C 14.5 km/h
2487 05-04-2020 16:10:00 19.3 C 5.47 g/m*3 19.3 C 19.3 km/h
2488 05-04-2020 16:15:00 19.4 C 5.51 g/m*3 19.4 C 12.9 km/h
2489 05-04-2020 16:20:00 19.5 C 5.54 g/m*3 19.5 C 17.7 km/h
2490 05-04-2020 16:25:00 19.6 C 5.4 g/m*3 19.6 C 17.7 km/h
2491 05-04-2020 16:30:00 19.6 C 5.74 g/m*3 19.6 C 11.3 km/h
2492 05-04-2020 16:35:00 19.8 C 5.64 g/m*3 19.8 C 11.3 km/h
2493 05-04-2020 16:40:00 19.9 C 5.67 g/m*3 19.9 C 8.1 km/h
2494 05-04-2020 16:45:00 20.3 C 5.63 g/m*3 20.3 C 12.9 km/h
2495 05-04-2020 16:50:00 20.3 C 5.45 g/m*3 20.3 C 16.1 km/h
2496 05-04-2020 16:55:00 20.2 C 5.42 g/m*3 20.2 C 16.1 km/h
2497 05-04-2020 17:00:00 20.2 C 5.42 g/m*3 20.2 C 12.9 km/h
2498 05-04-2020 17:05:00 20.1 C 5.74 g/m*3 20.1 C 12.9 km/h
2499 05-04-2020 17:10:00 20.5 C 5.69 g/m*3 20.5 C 8.1 km/h
2500 05-04-2020 17:15:00 20.9 C 5.83 g/m*3 20.9 C 6.4 km/h
Sensor: Nr:Datum:Temp:Abs-Feuchte:Windchill:Wind:
Aussen-T/F 2501 05-04-2020 17:20:00 21.2 C 5.56 g/m*3 21.2 C 6.4 km/h
2502 05-04-2020 17:25:00 21.1 C 5.71 g/m*3 21.1 C 11.3 km/h
2503 05-04-2020 17:30:00 21.2 C 5.56 g/m*3 21.2 C 9.7 km/h
2504 05-04-2020 17:35:00 21.2 C 5.56 g/m*3 21.2 C 12.9 km/h
2505 05-04-2020 17:40:00 21.2 C 5.56 g/m*3 21.2 C 12.9 km/h
2506 05-04-2020 17:45:00 21.1 C 5.53 g/m*3 21.1 C 9.7 km/h
2507 05-04-2020 17:50:00 21 C 5.5 g/m*3 21 C 9.7 km/h
2508 05-04-2020 17:55:00 21.1 C 5.53 g/m*3 21.1 C 8.1 km/h
2509 05-04-2020 18:00:00 20.9 C 5.65 g/m*3 20.9 C 8.1 km/h
2510 05-04-2020 18:05:00 20.9 C 5.46 g/m*3 20.9 C 8.1 km/h
2511 05-04-2020 18:10:00 20.7 C 5.4 g/m*3 20.7 C 14.5 km/h
2512 05-04-2020 18:15:00 20.4 C 5.48 g/m*3 20.4 C 11.3 km/h
2513 05-04-2020 18:20:00 20.5 C 5.52 g/m*3 20.5 C 6.4 km/h
2514 05-04-2020 18:25:00 20.7 C 5.76 g/m*3 20.7 C 8.1 km/h
2515 05-04-2020 18:30:00 20.7 C 5.58 g/m*3 20.7 C 9.7 km/h
2516 05-04-2020 18:35:00 20.7 C 5.76 g/m*3 20.7 C 9.7 km/h
2517 05-04-2020 18:40:00 20.6 C 5.55 g/m*3 20.6 C 9.7 km/h
2518 05-04-2020 18:45:00 20.4 C 5.48 g/m*3 20.4 C 11.3 km/h
2519 05-04-2020 18:50:00 20.4 C 5.48 g/m*3 20.4 C 6.4 km/h
2520 05-04-2020 18:55:00 20.4 C 5.48 g/m*3 20.4 C 8.1 km/h
2521 05-04-2020 19:00:00 20.3 C 5.45 g/m*3 20.3 C 6.4 km/h
2522 05-04-2020 19:05:00 20.3 C 5.45 g/m*3 20.3 C 4.8 km/h
2523 05-04-2020 19:10:00 20.2 C 5.42 g/m*3 20.2 C 8.1 km/h
2524 05-04-2020 19:15:00 20.1 C 5.56 g/m*3 20.1 C 4.8 km/h
2525 05-04-2020 19:20:00 19.9 C 5.67 g/m*3 19.9 C 1.6 km/h
Sensor: Nr:Datum:Temp:Abs-Feuchte:Windchill:Wind:
Aussen-T/F 2526 05-04-2020 19:25:00 19.8 C 6.15 g/m*3 19.8 C 3.2 km/h
2527 05-04-2020 19:30:00 19.6 C 5.91 g/m*3 19.6 C 4.8 km/h
2528 05-04-2020 19:35:00 19.4 C 6.01 g/m*3 19.4 C 1.6 km/h
2529 05-04-2020 19:40:00 19.1 C 6.23 g/m*3 19.1 C 3.2 km/h
2530 05-04-2020 19:45:00 18.6 C 6.21 g/m*3 18.6 C 3.2 km/h
2531 05-04-2020 19:50:00 17.9 C 6.11 g/m*3 17.9 C 4.8 km/h
2532 05-04-2020 19:55:00 17.2 C 6.15 g/m*3 17.2 C 4.8 km/h
2533 05-04-2020 20:00:00 16.4 C 6.14 g/m*3 16.4 C 4.8 km/h
2534 05-04-2020 20:05:00 15.8 C 6.06 g/m*3 15.8 C 6.4 km/h
2535 05-04-2020 20:10:00 15.1 C 6.06 g/m*3 15.1 C 6.4 km/h
2536 05-04-2020 20:15:00 14.6 C 5.88 g/m*3 14.6 C 6.4 km/h
2537 05-04-2020 20:20:00 14.2 C 6.11 g/m*3 14.2 C 6.4 km/h
2538 05-04-2020 20:25:00 13.8 C 5.96 g/m*3 13.8 C 6.4 km/h
2539 05-04-2020 20:30:00 13.4 C 5.93 g/m*3 13.4 C 6.4 km/h
2540 05-04-2020 20:35:00 13.1 C 5.93 g/m*3 13.1 C 6.4 km/h
2541 05-04-2020 20:40:00 12.8 C 5.94 g/m*3 12.8 C 6.4 km/h
2542 05-04-2020 20:45:00 12.6 C 5.97 g/m*3 12.6 C 4.8 km/h
2543 05-04-2020 20:50:00 12.4 C 5.9 g/m*3 12.4 C 4.8 km/h
2544 05-04-2020 20:55:00 12.3 C 5.86 g/m*3 12.3 C 6.4 km/h
2545 05-04-2020 21:00:00 12.1 C 6.01 g/m*3 12.1 C 6.4 km/h
2546 05-04-2020 21:05:00 11.9 C 5.93 g/m*3 11.9 C 6.4 km/h
2547 05-04-2020 21:10:00 11.8 C 6 g/m*3 11.8 C 6.4 km/h
2548 05-04-2020 21:15:00 11.7 C 5.96 g/m*3 11.7 C 6.4 km/h
2549 05-04-2020 21:20:00 11.6 C 5.92 g/m*3 11.6 C 6.4 km/h
2550 05-04-2020 21:25:00 11.4 C 5.85 g/m*3 11.4 C 4.8 km/h
Sensor: Nr:Datum:Temp:Abs-Feuchte:Windchill:Wind:
Aussen-T/F 2551 05-04-2020 21:30:00 11.3 C 5.92 g/m*3 11.3 C 4.8 km/h
2552 05-04-2020 21:35:00 11.2 C 5.88 g/m*3 11.2 C 6.4 km/h
2553 05-04-2020 21:40:00 11.1 C 5.84 g/m*3 11.1 C 6.4 km/h
2554 05-04-2020 21:45:00 10.9 C 5.87 g/m*3 10.9 C 4.8 km/h
2555 05-04-2020 21:50:00 10.8 C 5.83 g/m*3 10.29 C 6.4 km/h
2556 05-04-2020 21:55:00 10.6 C 5.86 g/m*3 10.6 C 4.8 km/h
2557 05-04-2020 22:00:00 10.4 C 5.78 g/m*3 10.4 C 4.8 km/h
2558 05-04-2020 22:05:00 10.3 C 5.84 g/m*3 10.3 C 4.8 km/h
2559 05-04-2020 22:10:00 10.1 C 5.86 g/m*3 10.1 C 3.2 km/h
2560 05-04-2020 22:15:00 9.9 C 5.79 g/m*3 9.9 C 4.8 km/h
2561 05-04-2020 22:20:00 9.7 C 5.72 g/m*3 9.7 C 4.8 km/h
2562 05-04-2020 22:25:00 9.6 C 5.77 g/m*3 9.6 C 3.2 km/h
2563 05-04-2020 22:30:00 9.5 C 5.73 g/m*3 9.5 C 1.6 km/h
2564 05-04-2020 22:35:00 9.4 C 5.79 g/m*3 9.4 C 1.6 km/h
2565 05-04-2020 22:40:00 9.2 C 5.71 g/m*3 9.2 C 1.6 km/h
2566 05-04-2020 22:45:00 9.1 C 5.68 g/m*3 9.1 C 0 km/h
2567 05-04-2020 22:50:00 8.9 C 5.69 g/m*3 8.9 C 0 km/h
2568 05-04-2020 22:55:00 8.9 C 5.78 g/m*3 8.9 C 0 km/h
2569 05-04-2020 23:00:00 8.8 C 5.83 g/m*3 8.8 C 0 km/h
2570 05-04-2020 23:05:00 8.6 C 5.84 g/m*3 8.6 C 0 km/h
2571 05-04-2020 23:10:00 8.4 C 5.77 g/m*3 8.4 C 1.6 km/h
2572 05-04-2020 23:15:00 8.2 C 5.78 g/m*3 8.2 C 0 km/h
2573 05-04-2020 23:20:00 8.1 C 5.74 g/m*3 8.1 C 0 km/h
2574 05-04-2020 23:25:00 8 C 5.7 g/m*3 8 C 0 km/h
2575 05-04-2020 23:30:00 7.9 C 5.67 g/m*3 7.9 C 0 km/h
Sensor: Nr:Datum:Temp:Abs-Feuchte:Windchill:Wind:
Aussen-T/F 2576 05-04-2020 23:35:00 7.8 C 5.63 g/m*3 7.8 C 0 km/h
2577 05-04-2020 23:40:00 7.7 C 5.59 g/m*3 7.7 C 0 km/h
2578 05-04-2020 23:45:00 7.7 C 5.68 g/m*3 7.7 C 0 km/h
2579 05-04-2020 23:50:00 7.6 C 5.64 g/m*3 7.6 C 0 km/h
2580 05-04-2020 23:55:00 7.4 C 5.57 g/m*3 7.4 C 0 km/h
2581 06-04-2020 00:00:00 7.3 C 5.61 g/m*3 7.3 C 0 km/h
2582 06-04-2020 00:05:00 7.2 C 5.57 g/m*3 7.2 C 0 km/h
2583 06-04-2020 00:10:00 7.1 C 5.62 g/m*3 7.1 C 0 km/h
2584 06-04-2020 00:15:00 7.1 C 5.69 g/m*3 7.1 C 0 km/h
2585 06-04-2020 00:20:00 7.1 C 5.69 g/m*3 7.1 C 0 km/h
2586 06-04-2020 00:25:00 7 C 5.66 g/m*3 7 C 0 km/h
2587 06-04-2020 00:30:00 6.9 C 5.54 g/m*3 6.9 C 0 km/h
2588 06-04-2020 00:35:00 6.9 C 5.62 g/m*3 6.9 C 0 km/h
2589 06-04-2020 00:40:00 6.7 C 5.55 g/m*3 6.7 C 0 km/h
2590 06-04-2020 00:45:00 6.6 C 5.51 g/m*3 6.6 C 0 km/h
2591 06-04-2020 00:50:00 6.5 C 5.62 g/m*3 6.5 C 0 km/h
2592 06-04-2020 00:55:00 6.4 C 5.59 g/m*3 6.4 C 0 km/h
2593 06-04-2020 01:00:00 6.3 C 5.63 g/m*3 6.3 C 0 km/h
2594 06-04-2020 01:05:00 6.2 C 5.59 g/m*3 6.2 C 0 km/h
2595 06-04-2020 01:10:00 6.2 C 5.66 g/m*3 6.2 C 0 km/h
2596 06-04-2020 01:15:00 6.1 C 5.55 g/m*3 6.1 C 0 km/h
2597 06-04-2020 01:20:00 6 C 5.59 g/m*3 6 C 0 km/h
2598 06-04-2020 01:25:00 5.9 C 5.55 g/m*3 5.9 C 0 km/h
2599 06-04-2020 01:30:00 5.8 C 5.52 g/m*3 5.8 C 0 km/h
2600 06-04-2020 01:35:00 5.7 C 5.55 g/m*3 5.7 C 0 km/h
Sensor: Nr:Datum:Temp:Abs-Feuchte:Windchill:Wind:
Aussen-T/F 2601 06-04-2020 01:40:00 5.6 C 5.51 g/m*3 5.6 C 0 km/h
2602 06-04-2020 01:45:00 5.5 C 5.55 g/m*3 5.5 C 0 km/h
2603 06-04-2020 01:50:00 5.4 C 5.51 g/m*3 5.4 C 0 km/h
2604 06-04-2020 01:55:00 5.4 C 5.51 g/m*3 5.4 C 0 km/h
2605 06-04-2020 02:00:00 5.4 C 5.58 g/m*3 5.4 C 0 km/h
2606 06-04-2020 02:05:00 5.3 C 5.48 g/m*3 5.3 C 0 km/h
2607 06-04-2020 02:10:00 5.1 C 5.47 g/m*3 5.1 C 0 km/h
2608 06-04-2020 02:15:00 5 C 5.5 g/m*3 5 C 0 km/h
2609 06-04-2020 02:20:00 5 C 5.5 g/m*3 5 C 0 km/h
2610 06-04-2020 02:25:00 4.9 C 5.4 g/m*3 4.9 C 0 km/h
2611 06-04-2020 02:30:00 4.9 C 5.47 g/m*3 4.9 C 0 km/h
2612 06-04-2020 02:35:00 4.8 C 5.43 g/m*3 4.8 C 0 km/h
2613 06-04-2020 02:40:00 4.8 C 5.43 g/m*3 4.8 C 0 km/h
2614 06-04-2020 02:45:00 4.8 C 5.43 g/m*3 4.8 C 0 km/h
2615 06-04-2020 02:50:00 4.7 C 5.4 g/m*3 4.7 C 0 km/h
2616 06-04-2020 02:55:00 4.6 C 5.36 g/m*3 4.6 C 0 km/h
2617 06-04-2020 03:00:00 4.4 C 5.35 g/m*3 4.4 C 0 km/h
2618 06-04-2020 03:05:00 4.4 C 5.35 g/m*3 4.4 C 0 km/h
2619 06-04-2020 03:10:00 4.3 C 5.32 g/m*3 4.3 C 0 km/h
2620 06-04-2020 03:15:00 4.3 C 5.32 g/m*3 4.3 C 0 km/h
2621 06-04-2020 03:20:00 4.2 C 5.35 g/m*3 4.2 C 0 km/h
2622 06-04-2020 03:25:00 4.2 C 5.35 g/m*3 4.2 C 0 km/h
2623 06-04-2020 03:30:00 4.2 C 5.35 g/m*3 4.2 C 0 km/h
2624 06-04-2020 03:35:00 4.1 C 5.31 g/m*3 4.1 C 0 km/h
2625 06-04-2020 03:40:00 4.1 C 5.31 g/m*3 4.1 C 0 km/h
Sensor: Nr:Datum:Temp:Abs-Feuchte:Windchill:Wind:
Aussen-T/F 2626 06-04-2020 03:45:00 4 C 5.28 g/m*3 4 C 0 km/h
2627 06-04-2020 03:50:00 3.9 C 5.24 g/m*3 3.9 C 0 km/h
2628 06-04-2020 03:55:00 3.9 C 5.31 g/m*3 3.9 C 0 km/h
2629 06-04-2020 04:00:00 3.8 C 5.27 g/m*3 3.8 C 0 km/h
2630 06-04-2020 04:05:00 3.8 C 5.27 g/m*3 3.8 C 0 km/h
2631 06-04-2020 04:10:00 3.8 C 5.27 g/m*3 3.8 C 0 km/h
2632 06-04-2020 04:15:00 3.8 C 5.27 g/m*3 3.8 C 0 km/h
2633 06-04-2020 04:20:00 3.8 C 5.27 g/m*3 3.8 C 0 km/h
2634 06-04-2020 04:25:00 3.8 C 5.27 g/m*3 3.8 C 0 km/h
2635 06-04-2020 04:30:00 3.7 C 5.23 g/m*3 3.7 C 0 km/h
2636 06-04-2020 04:35:00 3.6 C 5.2 g/m*3 3.6 C 0 km/h
2637 06-04-2020 04:40:00 3.5 C 5.23 g/m*3 3.5 C 0 km/h
2638 06-04-2020 04:45:00 3.4 C 5.19 g/m*3 3.4 C 0 km/h
2639 06-04-2020 04:50:00 3.3 C 5.16 g/m*3 3.3 C 0 km/h
2640 06-04-2020 04:55:00 3.2 C 5.18 g/m*3 3.2 C 0 km/h
2641 06-04-2020 05:00:00 3.2 C 5.18 g/m*3 3.2 C 0 km/h
2642 06-04-2020 05:05:00 3.2 C 5.18 g/m*3 3.2 C 0 km/h
2643 06-04-2020 05:10:00 3.2 C 5.18 g/m*3 3.2 C 0 km/h
2644 06-04-2020 05:15:00 3.2 C 5.18 g/m*3 3.2 C 0 km/h
2645 06-04-2020 05:20:00 3.1 C 5.15 g/m*3 3.1 C 0 km/h
2646 06-04-2020 05:25:00 3 C 5.11 g/m*3 3 C 0 km/h
2647 06-04-2020 05:30:00 2.9 C 5.08 g/m*3 2.9 C 0 km/h
2648 06-04-2020 05:35:00 2.9 C 5.14 g/m*3 2.9 C 0 km/h
2649 06-04-2020 05:40:00 2.9 C 5.14 g/m*3 2.9 C 0 km/h
2650 06-04-2020 05:45:00 2.8 C 5.1 g/m*3 2.8 C 0 km/h
Sensor: Nr:Datum:Temp:Abs-Feuchte:Windchill:Wind:
Aussen-T/F 2651 06-04-2020 05:50:00 2.8 C 5.1 g/m*3 2.8 C 0 km/h
2652 06-04-2020 05:55:00 2.7 C 5.07 g/m*3 2.7 C 0 km/h
2653 06-04-2020 06:00:00 2.6 C 5.03 g/m*3 2.6 C 0 km/h
2654 06-04-2020 06:05:00 2.6 C 5.09 g/m*3 2.6 C 0 km/h
2655 06-04-2020 06:10:00 2.4 C 5.02 g/m*3 2.4 C 0 km/h
2656 06-04-2020 06:15:00 2.4 C 5.02 g/m*3 2.4 C 0 km/h
2657 06-04-2020 06:20:00 2.3 C 4.99 g/m*3 2.3 C 0 km/h
2658 06-04-2020 06:25:00 2.2 C 4.96 g/m*3 2.2 C 0 km/h
2659 06-04-2020 06:30:00 2.2 C 5.01 g/m*3 2.2 C 0 km/h
2660 06-04-2020 06:35:00 2.1 C 4.98 g/m*3 2.1 C 0 km/h
2661 06-04-2020 06:40:00 2.1 C 4.98 g/m*3 2.1 C 0 km/h
2662 06-04-2020 06:45:00 2.1 C 4.98 g/m*3 2.1 C 0 km/h
2663 06-04-2020 06:50:00 2.1 C 4.98 g/m*3 2.1 C 0 km/h
2664 06-04-2020 06:55:00 2.1 C 4.98 g/m*3 2.1 C 0 km/h
2665 06-04-2020 07:00:00 2.1 C 5.04 g/m*3 2.1 C 0 km/h
2666 06-04-2020 07:05:00 2.2 C 5.07 g/m*3 2.2 C 0 km/h
2667 06-04-2020 07:10:00 2.2 C 5.07 g/m*3 2.2 C 0 km/h
2668 06-04-2020 07:15:00 2.3 C 5.1 g/m*3 2.3 C 0 km/h
2669 06-04-2020 07:20:00 2.4 C 5.2 g/m*3 2.4 C 0 km/h
2670 06-04-2020 07:25:00 2.4 C 5.14 g/m*3 2.4 C 0 km/h
2671 06-04-2020 07:30:00 2.4 C 5.14 g/m*3 2.4 C 0 km/h
2672 06-04-2020 07:35:00 2.4 C 5.14 g/m*3 2.4 C 0 km/h
2673 06-04-2020 07:40:00 2.4 C 5.14 g/m*3 2.4 C 0 km/h
2674 06-04-2020 07:45:00 2.4 C 5.14 g/m*3 2.4 C 0 km/h
2675 06-04-2020 07:50:00 2.6 C 5.27 g/m*3 2.6 C 0 km/h
Sensor: Nr:Datum:Temp:Abs-Feuchte:Windchill:Wind:
Aussen-T/F 2676 06-04-2020 07:55:00 2.7 C 5.24 g/m*3 2.7 C 0 km/h
2677 06-04-2020 08:00:00 2.6 C 5.21 g/m*3 2.6 C 0 km/h
2678 06-04-2020 08:05:00 2.7 C 5.24 g/m*3 2.7 C 0 km/h
2679 06-04-2020 08:10:00 2.7 C 5.3 g/m*3 2.7 C 0 km/h
2680 06-04-2020 08:15:00 2.8 C 5.34 g/m*3 2.8 C 0 km/h
2681 06-04-2020 08:20:00 2.9 C 5.37 g/m*3 2.9 C 0 km/h
2682 06-04-2020 08:25:00 3.1 C 5.45 g/m*3 3.1 C 0 km/h
2683 06-04-2020 08:30:00 3.4 C 5.5 g/m*3 3.4 C 1.6 km/h
2684 06-04-2020 08:35:00 3.6 C 5.57 g/m*3 3.6 C 0 km/h
2685 06-04-2020 08:40:00 3.7 C 5.55 g/m*3 3.7 C 0 km/h
2686 06-04-2020 08:45:00 3.8 C 5.58 g/m*3 3.8 C 0 km/h
2687 06-04-2020 08:50:00 3.9 C 5.62 g/m*3 3.9 C 0 km/h
2688 06-04-2020 08:55:00 3.9 C 5.56 g/m*3 3.9 C 0 km/h
2689 06-04-2020 09:00:00 3.9 C 5.56 g/m*3 3.9 C 0 km/h
2690 06-04-2020 09:05:00 4 C 5.59 g/m*3 4 C 0 km/h
2691 06-04-2020 09:10:00 4.1 C 5.63 g/m*3 4.1 C 0 km/h
2692 06-04-2020 09:15:00 4.2 C 5.67 g/m*3 4.2 C 1.6 km/h
2693 06-04-2020 09:20:00 4.2 C 5.67 g/m*3 4.2 C 0 km/h
2694 06-04-2020 09:25:00 4.3 C 5.71 g/m*3 4.3 C 0 km/h
2695 06-04-2020 09:30:00 4.4 C 5.75 g/m*3 4.4 C 0 km/h
2696 06-04-2020 09:35:00 4.6 C 5.82 g/m*3 4.6 C 0 km/h
2697 06-04-2020 09:40:00 4.8 C 5.9 g/m*3 4.8 C 0 km/h
2698 06-04-2020 09:45:00 5 C 5.98 g/m*3 5 C 0 km/h
2699 06-04-2020 09:50:00 5.2 C 6.06 g/m*3 5.2 C 0 km/h
2700 06-04-2020 09:55:00 5.3 C 6.1 g/m*3 5.3 C 0 km/h
Sensor: Nr:Datum:Temp:Abs-Feuchte:Windchill:Wind:
Aussen-T/F 2701 06-04-2020 10:00:00 5.6 C 6.15 g/m*3 5.6 C 0 km/h
2702 06-04-2020 10:05:00 5.9 C 6.2 g/m*3 5.9 C 0 km/h
2703 06-04-2020 10:10:00 6.2 C 6.25 g/m*3 6.2 C 0 km/h
2704 06-04-2020 10:15:00 6.4 C 6.33 g/m*3 6.4 C 0 km/h
2705 06-04-2020 10:20:00 6.7 C 6.38 g/m*3 6.7 C 0 km/h
2706 06-04-2020 10:25:00 7.1 C 6.47 g/m*3 7.1 C 0 km/h
2707 06-04-2020 10:30:00 7.4 C 6.52 g/m*3 7.4 C 0 km/h
2708 06-04-2020 10:35:00 8 C 6.61 g/m*3 8 C 0 km/h
2709 06-04-2020 10:40:00 8.4 C 6.62 g/m*3 8.4 C 0 km/h
2710 06-04-2020 10:45:00 8.8 C 6.7 g/m*3 8.8 C 3.2 km/h
2711 06-04-2020 10:50:00 9.4 C 6.87 g/m*3 9.4 C 0 km/h
2712 06-04-2020 10:55:00 9.9 C 6.82 g/m*3 9.9 C 0 km/h
2713 06-04-2020 11:00:00 10.5 C 6.98 g/m*3 10.5 C 0 km/h
2714 06-04-2020 11:05:00 11.2 C 6.89 g/m*3 11.2 C 0 km/h
2715 06-04-2020 11:10:00 11.7 C 6.9 g/m*3 11.7 C 0 km/h
2716 06-04-2020 11:15:00 12.3 C 7.28 g/m*3 12.3 C 0 km/h
2717 06-04-2020 11:20:00 12.7 C 6.9 g/m*3 12.7 C 0 km/h
2718 06-04-2020 11:25:00 13.3 C 6.47 g/m*3 13.3 C 6.4 km/h
2719 06-04-2020 11:30:00 14.2 C 6.59 g/m*3 14.2 C 11.3 km/h
2720 06-04-2020 11:35:00 15.3 C 6.4 g/m*3 15.3 C 12.9 km/h
2721 06-04-2020 11:40:00 16.1 C 6.17 g/m*3 16.1 C 8.1 km/h
2722 06-04-2020 11:45:00 16.7 C 5.97 g/m*3 16.7 C 17.7 km/h
2723 06-04-2020 11:50:00 17.1 C 6.26 g/m*3 17.1 C 19.3 km/h
2724 06-04-2020 11:55:00 17.3 C 6.04 g/m*3 17.3 C 16.1 km/h
2725 06-04-2020 12:00:00 17.6 C 6 g/m*3 17.6 C 9.7 km/h
Sensor: Nr:Datum:Temp:Abs-Feuchte:Windchill:Wind:
Aussen-T/F 2726 06-04-2020 12:05:00 17.9 C 5.8 g/m*3 17.9 C 16.1 km/h
2727 06-04-2020 12:10:00 18.1 C 5.87 g/m*3 18.1 C 12.9 km/h
2728 06-04-2020 12:15:00 18.3 C 5.79 g/m*3 18.3 C 14.5 km/h
2729 06-04-2020 12:20:00 18.6 C 6.05 g/m*3 18.6 C 9.7 km/h
2730 06-04-2020 12:25:00 18.7 C 5.76 g/m*3 18.7 C 12.9 km/h
2731 06-04-2020 12:30:00 18.9 C 5.67 g/m*3 18.9 C 11.3 km/h
2732 06-04-2020 12:35:00 19.1 C 5.74 g/m*3 19.1 C 14.5 km/h
2733 06-04-2020 12:40:00 19.2 C 5.77 g/m*3 19.2 C 14.5 km/h
2734 06-04-2020 12:45:00 19.3 C 5.81 g/m*3 19.3 C 11.3 km/h
2735 06-04-2020 12:50:00 19.4 C 5.84 g/m*3 19.4 C 12.9 km/h
2736 06-04-2020 12:55:00 19.4 C 6.01 g/m*3 19.4 C 11.3 km/h
2737 06-04-2020 13:00:00 19.6 C 5.74 g/m*3 19.6 C 11.3 km/h
2738 06-04-2020 13:05:00 19.7 C 5.94 g/m*3 19.7 C 11.3 km/h
2739 06-04-2020 13:10:00 19.8 C 5.98 g/m*3 19.8 C 11.3 km/h
2740 06-04-2020 13:15:00 19.9 C 5.84 g/m*3 19.9 C 8.1 km/h
2741 06-04-2020 13:20:00 20.1 C 5.91 g/m*3 20.1 C 12.9 km/h
2742 06-04-2020 13:25:00 20.2 C 5.94 g/m*3 20.2 C 9.7 km/h
2743 06-04-2020 13:30:00 20.2 C 6.12 g/m*3 20.2 C 8.1 km/h
2744 06-04-2020 13:35:00 20.3 C 6.16 g/m*3 20.3 C 6.4 km/h
2745 06-04-2020 13:40:00 20.4 C 6.37 g/m*3 20.4 C 9.7 km/h
2746 06-04-2020 13:45:00 20.5 C 6.41 g/m*3 20.5 C 9.7 km/h
2747 06-04-2020 13:50:00 20.7 C 6.12 g/m*3 20.7 C 8.1 km/h
2748 06-04-2020 13:55:00 20.8 C 6.16 g/m*3 20.8 C 8.1 km/h
2749 06-04-2020 14:00:00 21 C 6.23 g/m*3 21 C 9.7 km/h
2750 06-04-2020 14:05:00 21.2 C 6.3 g/m*3 21.2 C 11.3 km/h
Sensor: Nr:Datum:Temp:Abs-Feuchte:Windchill:Wind:
Aussen-T/F 2751 06-04-2020 14:10:00 21.2 C 6.12 g/m*3 21.2 C 11.3 km/h
2752 06-04-2020 14:15:00 21.3 C 6.52 g/m*3 21.3 C 6.4 km/h
2753 06-04-2020 14:20:00 21.5 C 6.03 g/m*3 21.5 C 9.7 km/h
2754 06-04-2020 14:25:00 21.7 C 6.1 g/m*3 21.7 C 8.1 km/h
2755 06-04-2020 14:30:00 21.9 C 6.37 g/m*3 21.9 C 8.1 km/h
2756 06-04-2020 14:35:00 22.2 C 6.28 g/m*3 22.2 C 9.7 km/h
2757 06-04-2020 14:40:00 22.4 C 5.96 g/m*3 22.4 C 14.5 km/h
2758 06-04-2020 14:45:00 22.6 C 6.03 g/m*3 22.6 C 17.7 km/h
2759 06-04-2020 14:50:00 22.6 C 5.62 g/m*3 22.6 C 12.9 km/h
2760 06-04-2020 14:55:00 22.7 C 5.05 g/m*3 22.7 C 11.3 km/h
2761 06-04-2020 15:00:00 22.8 C 5.08 g/m*3 22.8 C 12.9 km/h
2762 06-04-2020 15:05:00 22.9 C 4.7 g/m*3 22.9 C 16.1 km/h
2763 06-04-2020 15:10:00 22.8 C 4.88 g/m*3 22.8 C 14.5 km/h
2764 06-04-2020 15:15:00 22.7 C 5.05 g/m*3 22.7 C 20.9 km/h
2765 06-04-2020 15:20:00 22.6 C 5.22 g/m*3 22.6 C 17.7 km/h
2766 06-04-2020 15:25:00 22.6 C 5.22 g/m*3 22.6 C 20.9 km/h
2767 06-04-2020 15:30:00 22.6 C 4.82 g/m*3 22.6 C 22.5 km/h
2768 06-04-2020 15:35:00 22.6 C 5.02 g/m*3 22.6 C 16.1 km/h
2769 06-04-2020 15:40:00 22.6 C 5.02 g/m*3 22.6 C 25.7 km/h
2770 06-04-2020 15:45:00 22.6 C 5.02 g/m*3 22.6 C 20.9 km/h
2771 06-04-2020 15:50:00 22.6 C 5.02 g/m*3 22.6 C 19.3 km/h
2772 06-04-2020 15:55:00 22.8 C 5.28 g/m*3 22.8 C 11.3 km/h
2773 06-04-2020 16:00:00 23 C 5.34 g/m*3 23 C 4.8 km/h
2774 06-04-2020 16:05:00 23.2 C 5.41 g/m*3 23.2 C 6.4 km/h
2775 06-04-2020 16:10:00 23.4 C 5.26 g/m*3 23.4 C 16.1 km/h
Sensor: Nr:Datum:Temp:Abs-Feuchte:Windchill:Wind:
Aussen-T/F 2776 06-04-2020 16:15:00 23.6 C 5.32 g/m*3 23.6 C 11.3 km/h
2777 06-04-2020 16:20:00 23.8 C 5.16 g/m*3 23.8 C 12.9 km/h
2778 06-04-2020 16:25:00 23.8 C 4.95 g/m*3 23.8 C 16.1 km/h
2779 06-04-2020 16:30:00 23.9 C 5.62 g/m*3 23.9 C 11.3 km/h
2780 06-04-2020 16:35:00 23.9 C 5.62 g/m*3 23.9 C 11.3 km/h
2781 06-04-2020 16:40:00 24.1 C 5.91 g/m*3 24.1 C 11.3 km/h
2782 06-04-2020 16:45:00 24.3 C 5.75 g/m*3 24.3 C 11.3 km/h
2783 06-04-2020 16:50:00 24.3 C 5.75 g/m*3 24.3 C 11.3 km/h
2784 06-04-2020 16:55:00 24.1 C 6.13 g/m*3 24.1 C 16.1 km/h
2785 06-04-2020 17:00:00 23.8 C 5.81 g/m*3 23.8 C 17.7 km/h
2786 06-04-2020 17:05:00 23.8 C 6.02 g/m*3 23.8 C 14.5 km/h
2787 06-04-2020 17:10:00 23.6 C 5.74 g/m*3 23.6 C 16.1 km/h
2788 06-04-2020 17:15:00 23.7 C 5.99 g/m*3 23.7 C 14.5 km/h
2789 06-04-2020 17:20:00 23.8 C 6.02 g/m*3 23.8 C 12.9 km/h
2790 06-04-2020 17:25:00 23.9 C 5.62 g/m*3 23.9 C 16.1 km/h
2791 06-04-2020 17:30:00 23.9 C 5.84 g/m*3 23.9 C 17.7 km/h
2792 06-04-2020 17:35:00 23.8 C 5.59 g/m*3 23.8 C 14.5 km/h
2793 06-04-2020 17:40:00 23.7 C 5.78 g/m*3 23.7 C 19.3 km/h
2794 06-04-2020 17:45:00 23.9 C 6.06 g/m*3 23.9 C 12.9 km/h
2795 06-04-2020 17:50:00 24.1 C 5.69 g/m*3 24.1 C 16.1 km/h
2796 06-04-2020 17:55:00 23.9 C 5.62 g/m*3 23.9 C 11.3 km/h
2797 06-04-2020 18:00:00 23.8 C 5.81 g/m*3 23.8 C 14.5 km/h
2798 06-04-2020 18:05:00 23.7 C 5.56 g/m*3 23.7 C 14.5 km/h
2799 06-04-2020 18:10:00 23.7 C 5.56 g/m*3 23.7 C 16.1 km/h
2800 06-04-2020 18:15:00 23.4 C 5.47 g/m*3 23.4 C 12.9 km/h
Sensor: Nr:Datum:Temp:Abs-Feuchte:Windchill:Wind:
Aussen-T/F 2801 06-04-2020 18:20:00 23.5 C 5.71 g/m*3 23.5 C 11.3 km/h
2802 06-04-2020 18:25:00 23.6 C 5.53 g/m*3 23.6 C 12.9 km/h
2803 06-04-2020 18:30:00 23.5 C 5.5 g/m*3 23.5 C 16.1 km/h
2804 06-04-2020 18:35:00 23.4 C 5.68 g/m*3 23.4 C 12.9 km/h
2805 06-04-2020 18:40:00 23.3 C 5.44 g/m*3 23.3 C 11.3 km/h
2806 06-04-2020 18:45:00 23.3 C 5.44 g/m*3 23.3 C 9.7 km/h
2807 06-04-2020 18:50:00 23.2 C 5.61 g/m*3 23.2 C 12.9 km/h
2808 06-04-2020 18:55:00 23.1 C 5.58 g/m*3 23.1 C 11.3 km/h
2809 06-04-2020 19:00:00 22.9 C 5.52 g/m*3 22.9 C 11.3 km/h
2810 06-04-2020 19:05:00 22.8 C 5.69 g/m*3 22.8 C 8.1 km/h
2811 06-04-2020 19:10:00 22.7 C 5.86 g/m*3 22.7 C 9.7 km/h
2812 06-04-2020 19:15:00 22.6 C 6.23 g/m*3 22.6 C 4.8 km/h
2813 06-04-2020 19:20:00 22.3 C 6.12 g/m*3 22.3 C 9.7 km/h
2814 06-04-2020 19:25:00 22 C 6.02 g/m*3 22 C 4.8 km/h
2815 06-04-2020 19:30:00 21.7 C 5.91 g/m*3 21.7 C 6.4 km/h
2816 06-04-2020 19:35:00 21.3 C 6.34 g/m*3 21.3 C 3.2 km/h
2817 06-04-2020 19:40:00 20.8 C 6.52 g/m*3 20.8 C 6.4 km/h
2818 06-04-2020 19:45:00 20.4 C 6.19 g/m*3 20.4 C 4.8 km/h
2819 06-04-2020 19:50:00 20 C 6.39 g/m*3 20 C 6.4 km/h
2820 06-04-2020 19:55:00 19.5 C 6.38 g/m*3 19.5 C 3.2 km/h
2821 06-04-2020 20:00:00 18.9 C 6.48 g/m*3 18.9 C 6.4 km/h
2822 06-04-2020 20:05:00 18.2 C 6.37 g/m*3 18.2 C 6.4 km/h
2823 06-04-2020 20:10:00 17.6 C 6.45 g/m*3 17.6 C 6.4 km/h
2824 06-04-2020 20:15:00 17.1 C 6.55 g/m*3 17.1 C 6.4 km/h
2825 06-04-2020 20:20:00 16.6 C 6.36 g/m*3 16.6 C 6.4 km/h
Sensor: Nr:Datum:Temp:Abs-Feuchte:Windchill:Wind:
Aussen-T/F 2826 06-04-2020 20:25:00 16.2 C 6.34 g/m*3 16.2 C 6.4 km/h
2827 06-04-2020 20:30:00 15.8 C 6.46 g/m*3 15.8 C 6.4 km/h
2828 06-04-2020 20:35:00 15.5 C 6.34 g/m*3 15.5 C 6.4 km/h
2829 06-04-2020 20:40:00 15.3 C 6.53 g/m*3 15.3 C 4.8 km/h
2830 06-04-2020 20:45:00 15 C 6.41 g/m*3 15 C 4.8 km/h
2831 06-04-2020 20:50:00 14.7 C 6.55 g/m*3 14.7 C 3.2 km/h
2832 06-04-2020 20:55:00 14.5 C 6.59 g/m*3 14.5 C 4.8 km/h
2833 06-04-2020 21:00:00 14.2 C 6.47 g/m*3 14.2 C 4.8 km/h
2834 06-04-2020 21:05:00 14 C 6.51 g/m*3 14 C 4.8 km/h
2835 06-04-2020 21:10:00 13.9 C 6.47 g/m*3 13.9 C 4.8 km/h
2836 06-04-2020 21:15:00 13.7 C 6.51 g/m*3 13.7 C 3.2 km/h
2837 06-04-2020 21:20:00 13.6 C 6.59 g/m*3 13.6 C 3.2 km/h
2838 06-04-2020 21:25:00 13.3 C 6.47 g/m*3 13.3 C 1.6 km/h
2839 06-04-2020 21:30:00 13.2 C 6.54 g/m*3 13.2 C 3.2 km/h
2840 06-04-2020 21:35:00 12.9 C 6.42 g/m*3 12.9 C 0 km/h
2841 06-04-2020 21:40:00 12.8 C 6.5 g/m*3 12.8 C 0 km/h
2842 06-04-2020 21:45:00 12.6 C 6.31 g/m*3 12.6 C 0 km/h
2843 06-04-2020 21:50:00 12.3 C 6.3 g/m*3 12.3 C 0 km/h
2844 06-04-2020 21:55:00 12.1 C 6.33 g/m*3 12.1 C 1.6 km/h
2845 06-04-2020 22:00:00 12 C 6.39 g/m*3 12 C 1.6 km/h
2846 06-04-2020 22:05:00 11.9 C 6.35 g/m*3 11.9 C 1.6 km/h
2847 06-04-2020 22:10:00 11.8 C 6.53 g/m*3 11.8 C 1.6 km/h
2848 06-04-2020 22:15:00 11.6 C 6.44 g/m*3 11.6 C 0 km/h
2849 06-04-2020 22:20:00 11.3 C 6.32 g/m*3 11.3 C 0 km/h
2850 06-04-2020 22:25:00 11 C 6.31 g/m*3 11 C 1.6 km/h
Sensor: Nr:Datum:Temp:Abs-Feuchte:Windchill:Wind:
Aussen-T/F 2851 06-04-2020 22:30:00 10.8 C 6.33 g/m*3 10.8 C 0 km/h
2852 06-04-2020 22:35:00 10.7 C 6.29 g/m*3 10.7 C 1.6 km/h
2853 06-04-2020 22:40:00 10.6 C 6.34 g/m*3 10.6 C 1.6 km/h
2854 06-04-2020 22:45:00 10.4 C 6.17 g/m*3 10.4 C 0 km/h
2855 06-04-2020 22:50:00 10.4 C 6.17 g/m*3 10.4 C 0 km/h
2856 06-04-2020 22:55:00 10.3 C 6.22 g/m*3 10.3 C 0 km/h
2857 06-04-2020 23:00:00 10.2 C 6.19 g/m*3 10.2 C 1.6 km/h
2858 06-04-2020 23:05:00 10.2 C 6.19 g/m*3 10.2 C 0 km/h
2859 06-04-2020 23:10:00 10.1 C 6.15 g/m*3 10.1 C 0 km/h
2860 06-04-2020 23:15:00 10.1 C 6.05 g/m*3 10.1 C 0 km/h
2861 06-04-2020 23:20:00 10.1 C 6.15 g/m*3 10.1 C 0 km/h
2862 06-04-2020 23:25:00 10.1 C 6.15 g/m*3 10.1 C 0 km/h
2863 06-04-2020 23:30:00 10.1 C 6.15 g/m*3 10.1 C 1.6 km/h
2864 06-04-2020 23:35:00 9.9 C 6.07 g/m*3 9.9 C 0 km/h
2865 06-04-2020 23:40:00 9.8 C 6.03 g/m*3 9.8 C 0 km/h
2866 06-04-2020 23:45:00 9.8 C 6.12 g/m*3 9.8 C 0 km/h
2867 06-04-2020 23:50:00 9.8 C 6.22 g/m*3 9.8 C 3.2 km/h
2868 06-04-2020 23:55:00 9.9 C 6.35 g/m*3 8.06 C 12.9 km/h
2869 07-04-2020 00:00:00 10 C 6.39 g/m*3 8.42 C 11.3 km/h
2870 07-04-2020 00:05:00 10.1 C 6.43 g/m*3 10.1 C 3.2 km/h
2871 07-04-2020 00:10:00 10.1 C 6.52 g/m*3 10.1 C 1.6 km/h
2872 07-04-2020 00:15:00 9.8 C 6.4 g/m*3 9.8 C 1.6 km/h
2873 07-04-2020 00:20:00 9.6 C 6.41 g/m*3 9.6 C 0 km/h
2874 07-04-2020 00:25:00 9.4 C 6.33 g/m*3 9.4 C 0 km/h
2875 07-04-2020 00:30:00 9.3 C 6.29 g/m*3 9.3 C 1.6 km/h
Sensor: Nr:Datum:Temp:Abs-Feuchte:Windchill:Wind:
Aussen-T/F 2876 07-04-2020 00:35:00 9.3 C 6.29 g/m*3 9.3 C 0 km/h
2877 07-04-2020 00:40:00 9.3 C 6.29 g/m*3 9.3 C 1.6 km/h
2878 07-04-2020 00:45:00 9.3 C 6.29 g/m*3 9.3 C 1.6 km/h
2879 07-04-2020 00:50:00 9.3 C 6.29 g/m*3 9.3 C 0 km/h
2880 07-04-2020 00:55:00 9.3 C 6.38 g/m*3 9.3 C 0 km/h
2881 07-04-2020 01:00:00 9.2 C 6.34 g/m*3 9.2 C 0 km/h
2882 07-04-2020 01:05:00 9.2 C 6.43 g/m*3 9.2 C 0 km/h
2883 07-04-2020 01:10:00 9.2 C 6.43 g/m*3 9.2 C 0 km/h
2884 07-04-2020 01:15:00 9.3 C 6.47 g/m*3 9.3 C 0 km/h
2885 07-04-2020 01:20:00 9.4 C 6.42 g/m*3 9.4 C 1.6 km/h
2886 07-04-2020 01:25:00 9.6 C 6.6 g/m*3 9.6 C 0 km/h
2887 07-04-2020 01:30:00 9.7 C 6.55 g/m*3 9.7 C 3.2 km/h
2888 07-04-2020 01:35:00 9.8 C 6.49 g/m*3 9.8 C 4.8 km/h
2889 07-04-2020 01:40:00 10 C 6.86 g/m*3 10 C 4.8 km/h
2890 07-04-2020 01:45:00 10.2 C 6.76 g/m*3 10.2 C 3.2 km/h
2891 07-04-2020 01:50:00 10.3 C 6.8 g/m*3 10.3 C 0 km/h
2892 07-04-2020 01:55:00 10.3 C 6.7 g/m*3 10.3 C 0 km/h
2893 07-04-2020 02:00:00 10.3 C 6.7 g/m*3 10.3 C 0 km/h
2894 07-04-2020 02:05:00 10.1 C 6.71 g/m*3 10.1 C 0 km/h
2895 07-04-2020 02:10:00 9.9 C 6.63 g/m*3 9.9 C 0 km/h
2896 07-04-2020 02:15:00 9.8 C 6.59 g/m*3 9.8 C 0 km/h
2897 07-04-2020 02:20:00 9.6 C 6.6 g/m*3 9.6 C 0 km/h
2898 07-04-2020 02:25:00 9.3 C 6.56 g/m*3 9.3 C 0 km/h
2899 07-04-2020 02:30:00 9.1 C 6.57 g/m*3 9.1 C 0 km/h
2900 07-04-2020 02:35:00 8.9 C 6.48 g/m*3 8.9 C 0 km/h
Sensor: Nr:Datum:Temp:Abs-Feuchte:Windchill:Wind:
Aussen-T/F 2901 07-04-2020 02:40:00 8.8 C 6.53 g/m*3 8.8 C 0 km/h
2902 07-04-2020 02:45:00 8.6 C 6.44 g/m*3 8.6 C 0 km/h
2903 07-04-2020 02:50:00 8.3 C 6.41 g/m*3 8.3 C 0 km/h
2904 07-04-2020 02:55:00 8.2 C 6.45 g/m*3 8.2 C 3.2 km/h
2905 07-04-2020 03:00:00 8.2 C 6.53 g/m*3 8.2 C 0 km/h
2906 07-04-2020 03:05:00 8.1 C 6.49 g/m*3 8.1 C 0 km/h
2907 07-04-2020 03:10:00 8.1 C 6.57 g/m*3 8.1 C 0 km/h
2908 07-04-2020 03:15:00 8 C 6.53 g/m*3 8 C 0 km/h
2909 07-04-2020 03:20:00 8.1 C 6.66 g/m*3 8.1 C 0 km/h
2910 07-04-2020 03:25:00 8.1 C 6.74 g/m*3 8.1 C 0 km/h
2911 07-04-2020 03:30:00 8.2 C 6.7 g/m*3 8.2 C 0 km/h
2912 07-04-2020 03:35:00 8.2 C 6.7 g/m*3 8.2 C 0 km/h
2913 07-04-2020 03:40:00 8.2 C 6.7 g/m*3 8.2 C 0 km/h
2914 07-04-2020 03:45:00 8.2 C 6.7 g/m*3 8.2 C 1.6 km/h
2915 07-04-2020 03:50:00 8.2 C 6.78 g/m*3 8.2 C 0 km/h
2916 07-04-2020 03:55:00 8.2 C 6.78 g/m*3 8.2 C 0 km/h
2917 07-04-2020 04:00:00 8.2 C 6.78 g/m*3 8.2 C 0 km/h
2918 07-04-2020 04:05:00 8.3 C 6.83 g/m*3 8.3 C 0 km/h
2919 07-04-2020 04:10:00 8.3 C 6.83 g/m*3 8.3 C 0 km/h
2920 07-04-2020 04:15:00 8.2 C 6.78 g/m*3 8.2 C 0 km/h
2921 07-04-2020 04:20:00 8.2 C 6.7 g/m*3 8.2 C 0 km/h
2922 07-04-2020 04:25:00 8.2 C 6.7 g/m*3 8.2 C 0 km/h
2923 07-04-2020 04:30:00 8.1 C 6.66 g/m*3 8.1 C 0 km/h
2924 07-04-2020 04:35:00 7.9 C 6.57 g/m*3 7.9 C 0 km/h
2925 07-04-2020 04:40:00 7.7 C 6.57 g/m*3 7.7 C 0 km/h
Sensor: Nr:Datum:Temp:Abs-Feuchte:Windchill:Wind:
Aussen-T/F 2926 07-04-2020 04:45:00 7.6 C 6.61 g/m*3 7.6 C 0 km/h
2927 07-04-2020 04:50:00 7.6 C 6.61 g/m*3 7.6 C 0 km/h
2928 07-04-2020 04:55:00 7.5 C 6.56 g/m*3 7.5 C 0 km/h
2929 07-04-2020 05:00:00 7.3 C 6.48 g/m*3 7.3 C 0 km/h
2930 07-04-2020 05:05:00 7.2 C 6.52 g/m*3 7.2 C 0 km/h
2931 07-04-2020 05:10:00 7.1 C 6.47 g/m*3 7.1 C 0 km/h
2932 07-04-2020 05:15:00 6.9 C 6.39 g/m*3 6.9 C 0 km/h
2933 07-04-2020 05:20:00 6.8 C 6.42 g/m*3 6.8 C 0 km/h
2934 07-04-2020 05:25:00 6.7 C 6.38 g/m*3 6.7 C 0 km/h
2935 07-04-2020 05:30:00 6.7 C 6.46 g/m*3 6.7 C 0 km/h
2936 07-04-2020 05:35:00 6.6 C 6.42 g/m*3 6.6 C 0 km/h
2937 07-04-2020 05:40:00 6.4 C 6.33 g/m*3 6.4 C 0 km/h
2938 07-04-2020 05:45:00 6.4 C 6.41 g/m*3 6.4 C 0 km/h
2939 07-04-2020 05:50:00 6.3 C 6.37 g/m*3 6.3 C 0 km/h
2940 07-04-2020 05:55:00 6.3 C 6.44 g/m*3 6.3 C 0 km/h
2941 07-04-2020 06:00:00 6.3 C 6.44 g/m*3 6.3 C 0 km/h
2942 07-04-2020 06:05:00 6.3 C 6.44 g/m*3 6.3 C 0 km/h
2943 07-04-2020 06:10:00 6.2 C 6.32 g/m*3 6.2 C 0 km/h
2944 07-04-2020 06:15:00 6.1 C 6.36 g/m*3 6.1 C 0 km/h
2945 07-04-2020 06:20:00 6.1 C 6.36 g/m*3 6.1 C 0 km/h
2946 07-04-2020 06:25:00 6.1 C 6.36 g/m*3 6.1 C 0 km/h
2947 07-04-2020 06:30:00 5.9 C 6.27 g/m*3 5.9 C 0 km/h
2948 07-04-2020 06:35:00 5.8 C 6.23 g/m*3 5.8 C 0 km/h
2949 07-04-2020 06:40:00 5.8 C 6.3 g/m*3 5.8 C 0 km/h
2950 07-04-2020 06:45:00 5.8 C 6.3 g/m*3 5.8 C 0 km/h
Sensor: Nr:Datum:Temp:Abs-Feuchte:Windchill:Wind:
Aussen-T/F 2951 07-04-2020 06:50:00 5.7 C 6.26 g/m*3 5.7 C 0 km/h
2952 07-04-2020 06:55:00 5.6 C 6.22 g/m*3 5.6 C 0 km/h
2953 07-04-2020 07:00:00 5.5 C 6.18 g/m*3 5.5 C 0 km/h
2954 07-04-2020 07:05:00 5.4 C 6.21 g/m*3 5.4 C 0 km/h
2955 07-04-2020 07:10:00 5.4 C 6.21 g/m*3 5.4 C 0 km/h
2956 07-04-2020 07:15:00 5.4 C 6.28 g/m*3 5.4 C 0 km/h
2957 07-04-2020 07:20:00 5.5 C 6.32 g/m*3 5.5 C 0 km/h
2958 07-04-2020 07:25:00 5.6 C 6.36 g/m*3 5.6 C 0 km/h
2959 07-04-2020 07:30:00 5.6 C 6.43 g/m*3 5.6 C 0 km/h
2960 07-04-2020 07:35:00 5.7 C 6.4 g/m*3 5.7 C 0 km/h
2961 07-04-2020 07:40:00 5.8 C 6.52 g/m*3 5.8 C 0 km/h
2962 07-04-2020 07:45:00 5.9 C 6.56 g/m*3 5.9 C 0 km/h
2963 07-04-2020 07:50:00 6 C 6.6 g/m*3 6 C 0 km/h
2964 07-04-2020 07:55:00 6.1 C 6.58 g/m*3 6.1 C 0 km/h
2965 07-04-2020 08:00:00 6.2 C 6.62 g/m*3 6.2 C 0 km/h
2966 07-04-2020 08:05:00 6.2 C 6.62 g/m*3 6.2 C 0 km/h
2967 07-04-2020 08:10:00 6.3 C 6.66 g/m*3 6.3 C 0 km/h
2968 07-04-2020 08:15:00 6.3 C 6.66 g/m*3 6.3 C 1.6 km/h
2969 07-04-2020 08:20:00 6.4 C 6.71 g/m*3 6.4 C 0 km/h
2970 07-04-2020 08:25:00 6.5 C 6.67 g/m*3 6.5 C 0 km/h
2971 07-04-2020 08:30:00 6.6 C 6.72 g/m*3 6.6 C 0 km/h
2972 07-04-2020 08:35:00 6.6 C 6.72 g/m*3 6.6 C 1.6 km/h
2973 07-04-2020 08:40:00 6.6 C 6.72 g/m*3 6.6 C 0 km/h
2974 07-04-2020 08:45:00 6.7 C 6.84 g/m*3 6.7 C 0 km/h
2975 07-04-2020 08:50:00 6.8 C 6.88 g/m*3 6.8 C 0 km/h
Sensor: Nr:Datum:Temp:Abs-Feuchte:Windchill:Wind:
Aussen-T/F 2976 07-04-2020 08:55:00 6.9 C 6.93 g/m*3 6.9 C 0 km/h
2977 07-04-2020 09:00:00 7.1 C 7.02 g/m*3 7.1 C 0 km/h
2978 07-04-2020 09:05:00 7.2 C 7.06 g/m*3 7.2 C 0 km/h
2979 07-04-2020 09:10:00 7.3 C 7.03 g/m*3 7.3 C 0 km/h
2980 07-04-2020 09:15:00 7.4 C 7.08 g/m*3 7.4 C 0 km/h
2981 07-04-2020 09:20:00 7.5 C 7.2 g/m*3 7.5 C 0 km/h
2982 07-04-2020 09:25:00 7.6 C 7.25 g/m*3 7.6 C 0 km/h
2983 07-04-2020 09:30:00 7.8 C 7.35 g/m*3 7.8 C 0 km/h
2984 07-04-2020 09:35:00 7.9 C 7.39 g/m*3 7.9 C 0 km/h
2985 07-04-2020 09:40:00 8.2 C 7.54 g/m*3 8.2 C 0 km/h
2986 07-04-2020 09:45:00 8.4 C 7.63 g/m*3 8.4 C 0 km/h
2987 07-04-2020 09:50:00 8.7 C 7.61 g/m*3 8.7 C 0 km/h
2988 07-04-2020 09:55:00 8.9 C 7.71 g/m*3 8.9 C 0 km/h
2989 07-04-2020 10:00:00 9.2 C 7.77 g/m*3 9.2 C 0 km/h
2990 07-04-2020 10:05:00 9.4 C 7.87 g/m*3 9.4 C 0 km/h
2991 07-04-2020 10:10:00 9.6 C 8.06 g/m*3 9.6 C 0 km/h
2992 07-04-2020 10:15:00 9.9 C 8.22 g/m*3 9.9 C 0 km/h
2993 07-04-2020 10:20:00 10.2 C 8.28 g/m*3 10.2 C 0 km/h
2994 07-04-2020 10:25:00 10.5 C 8.34 g/m*3 10.5 C 0 km/h
2995 07-04-2020 10:30:00 10.8 C 8.4 g/m*3 10.8 C 0 km/h
2996 07-04-2020 10:35:00 11.2 C 8.62 g/m*3 11.2 C 0 km/h
2997 07-04-2020 10:40:00 11.4 C 8.62 g/m*3 11.4 C 0 km/h
2998 07-04-2020 10:45:00 11.8 C 8.74 g/m*3 11.8 C 0 km/h
2999 07-04-2020 10:50:00 12.2 C 8.85 g/m*3 12.2 C 0 km/h
3000 07-04-2020 10:55:00 12.6 C 8.96 g/m*3 12.6 C 0 km/h
Sensor: Nr:Datum:Temp:Abs-Feuchte:Windchill:Wind:
Aussen-T/F 3001 07-04-2020 11:00:00 13 C 8.96 g/m*3 13 C 1.6 km/h
3002 07-04-2020 11:05:00 13.4 C 8.95 g/m*3 13.4 C 0 km/h
3003 07-04-2020 11:10:00 13.8 C 9.06 g/m*3 13.8 C 0 km/h
3004 07-04-2020 11:15:00 14.2 C 9.04 g/m*3 14.2 C 3.2 km/h
3005 07-04-2020 11:20:00 14.6 C 9.13 g/m*3 14.6 C 0 km/h
3006 07-04-2020 11:25:00 14.8 C 9.25 g/m*3 14.8 C 1.6 km/h
3007 07-04-2020 11:30:00 15.1 C 9.16 g/m*3 15.1 C 3.2 km/h
3008 07-04-2020 11:35:00 15.4 C 9.2 g/m*3 15.4 C 1.6 km/h
3009 07-04-2020 11:40:00 15.7 C 9.1 g/m*3 15.7 C 1.6 km/h
3010 07-04-2020 11:45:00 16.1 C 9.18 g/m*3 16.1 C 3.2 km/h
3011 07-04-2020 11:50:00 16.2 C 9.24 g/m*3 16.2 C 3.2 km/h
3012 07-04-2020 11:55:00 16.4 C 9.21 g/m*3 16.4 C 3.2 km/h
3013 07-04-2020 12:00:00 16.6 C 9.18 g/m*3 16.6 C 3.2 km/h
3014 07-04-2020 12:05:00 16.8 C 9.15 g/m*3 16.8 C 3.2 km/h
3015 07-04-2020 12:10:00 17.1 C 9.17 g/m*3 17.1 C 3.2 km/h
3016 07-04-2020 12:15:00 17.2 C 9.08 g/m*3 17.2 C 4.8 km/h
3017 07-04-2020 12:20:00 17.4 C 9.34 g/m*3 17.4 C 3.2 km/h
3018 07-04-2020 12:25:00 17.6 C 9.15 g/m*3 17.6 C 4.8 km/h
3019 07-04-2020 12:30:00 17.8 C 9.26 g/m*3 17.8 C 6.4 km/h
3020 07-04-2020 12:35:00 18 C 9.22 g/m*3 18 C 4.8 km/h
3021 07-04-2020 12:40:00 18.2 C 9.33 g/m*3 18.2 C 3.2 km/h
3022 07-04-2020 12:45:00 18.3 C 9.22 g/m*3 18.3 C 4.8 km/h
3023 07-04-2020 12:50:00 18.4 C 9.28 g/m*3 18.4 C 4.8 km/h
3024 07-04-2020 12:55:00 18.5 C 9.33 g/m*3 18.5 C 3.2 km/h
3025 07-04-2020 13:00:00 18.6 C 9.39 g/m*3 18.6 C 4.8 km/h
Sensor: Nr:Datum:Temp:Abs-Feuchte:Windchill:Wind:
Aussen-T/F 3026 07-04-2020 13:05:00 18.8 C 9.34 g/m*3 18.8 C 3.2 km/h
3027 07-04-2020 13:10:00 18.9 C 9.23 g/m*3 18.9 C 6.4 km/h
3028 07-04-2020 13:15:00 19.2 C 9.23 g/m*3 19.2 C 6.4 km/h
3029 07-04-2020 13:20:00 19.3 C 9.29 g/m*3 19.3 C 3.2 km/h
3030 07-04-2020 13:25:00 19.4 C 8.84 g/m*3 19.4 C 6.4 km/h
3031 07-04-2020 13:30:00 19.5 C 9.06 g/m*3 19.5 C 4.8 km/h
3032 07-04-2020 13:35:00 19.6 C 9.12 g/m*3 19.6 C 6.4 km/h
3033 07-04-2020 13:40:00 19.7 C 9 g/m*3 19.7 C 3.2 km/h
3034 07-04-2020 13:45:00 19.8 C 9.05 g/m*3 19.8 C 6.4 km/h
3035 07-04-2020 13:50:00 19.9 C 8.93 g/m*3 19.9 C 8.1 km/h
3036 07-04-2020 13:55:00 20.1 C 9.04 g/m*3 20.1 C 11.3 km/h
3037 07-04-2020 14:00:00 20.3 C 8.97 g/m*3 20.3 C 8.1 km/h
3038 07-04-2020 14:05:00 20.3 C 8.97 g/m*3 20.3 C 8.1 km/h
3039 07-04-2020 14:10:00 20.4 C 9.02 g/m*3 20.4 C 11.3 km/h
3040 07-04-2020 14:15:00 20.6 C 8.95 g/m*3 20.6 C 6.4 km/h
3041 07-04-2020 14:20:00 20.8 C 9.23 g/m*3 20.8 C 3.2 km/h
3042 07-04-2020 14:25:00 20.9 C 8.92 g/m*3 20.9 C 11.3 km/h
3043 07-04-2020 14:30:00 21.1 C 9.21 g/m*3 21.1 C 6.4 km/h
3044 07-04-2020 14:35:00 21.3 C 8.95 g/m*3 21.3 C 8.1 km/h
3045 07-04-2020 14:40:00 21.3 C 8.95 g/m*3 21.3 C 12.9 km/h
3046 07-04-2020 14:45:00 21.2 C 8.9 g/m*3 21.2 C 8.1 km/h
3047 07-04-2020 14:50:00 21.1 C 8.84 g/m*3 21.1 C 8.1 km/h
3048 07-04-2020 14:55:00 21.2 C 8.9 g/m*3 21.2 C 4.8 km/h
3049 07-04-2020 15:00:00 21.4 C 8.81 g/m*3 21.4 C 11.3 km/h
3050 07-04-2020 15:05:00 21.6 C 8.91 g/m*3 21.6 C 11.3 km/h
Sensor: Nr:Datum:Temp:Abs-Feuchte:Windchill:Wind:
Aussen-T/F 3051 07-04-2020 15:10:00 21.7 C 8.97 g/m*3 21.7 C 8.1 km/h
3052 07-04-2020 15:15:00 21.8 C 8.83 g/m*3 21.8 C 8.1 km/h
3053 07-04-2020 15:20:00 21.8 C 8.63 g/m*3 21.8 C 6.4 km/h
3054 07-04-2020 15:25:00 21.8 C 8.63 g/m*3 21.8 C 8.1 km/h
3055 07-04-2020 15:30:00 21.9 C 8.68 g/m*3 21.9 C 9.7 km/h
3056 07-04-2020 15:35:00 21.9 C 8.49 g/m*3 21.9 C 12.9 km/h
3057 07-04-2020 15:40:00 22.1 C 8.59 g/m*3 22.1 C 11.3 km/h
3058 07-04-2020 15:45:00 22.1 C 8.78 g/m*3 22.1 C 9.7 km/h
3059 07-04-2020 15:50:00 22.1 C 8.78 g/m*3 22.1 C 11.3 km/h
3060 07-04-2020 15:55:00 22.2 C 8.64 g/m*3 22.2 C 12.9 km/h
3061 07-04-2020 16:00:00 22.3 C 8.49 g/m*3 22.3 C 9.7 km/h
3062 07-04-2020 16:05:00 22.3 C 8.49 g/m*3 22.3 C 9.7 km/h
3063 07-04-2020 16:10:00 22.3 C 8.49 g/m*3 22.3 C 4.8 km/h
3064 07-04-2020 16:15:00 22.2 C 8.44 g/m*3 22.2 C 3.2 km/h
3065 07-04-2020 16:20:00 22.2 C 8.44 g/m*3 22.2 C 11.3 km/h
3066 07-04-2020 16:25:00 22.4 C 8.34 g/m*3 22.4 C 9.7 km/h
3067 07-04-2020 16:30:00 22.5 C 8.39 g/m*3 22.5 C 12.9 km/h
3068 07-04-2020 16:35:00 22.3 C 8.29 g/m*3 22.3 C 6.4 km/h
3069 07-04-2020 16:40:00 22.1 C 8.2 g/m*3 22.1 C 6.4 km/h
3070 07-04-2020 16:45:00 22.3 C 8.49 g/m*3 22.3 C 4.8 km/h
3071 07-04-2020 16:50:00 22.9 C 8.17 g/m*3 22.9 C 6.4 km/h
3072 07-04-2020 16:55:00 23.4 C 8.41 g/m*3 23.4 C 4.8 km/h
3073 07-04-2020 17:00:00 23.9 C 8.22 g/m*3 23.9 C 8.1 km/h
3074 07-04-2020 17:05:00 24.1 C 7.88 g/m*3 24.1 C 8.1 km/h
3075 07-04-2020 17:10:00 23.9 C 8 g/m*3 23.9 C 11.3 km/h
Sensor: Nr:Datum:Temp:Abs-Feuchte:Windchill:Wind:
Aussen-T/F 3076 07-04-2020 17:15:00 23.4 C 7.99 g/m*3 23.4 C 6.4 km/h
3077 07-04-2020 17:20:00 23.2 C 7.9 g/m*3 23.2 C 3.2 km/h
3078 07-04-2020 17:25:00 22.9 C 8.17 g/m*3 22.9 C 1.6 km/h
3079 07-04-2020 17:30:00 22.8 C 7.52 g/m*3 22.8 C 6.4 km/h
3080 07-04-2020 17:35:00 22.8 C 7.32 g/m*3 22.8 C 6.4 km/h
3081 07-04-2020 17:40:00 23.1 C 7.44 g/m*3 23.1 C 6.4 km/h
3082 07-04-2020 17:45:00 23.4 C 7.36 g/m*3 23.4 C 4.8 km/h
3083 07-04-2020 17:50:00 23.4 C 7.15 g/m*3 23.4 C 3.2 km/h
3084 07-04-2020 17:55:00 23.4 C 7.36 g/m*3 23.4 C 6.4 km/h
3085 07-04-2020 18:00:00 23.6 C 7.66 g/m*3 23.6 C 9.7 km/h
3086 07-04-2020 18:05:00 23.6 C 7.66 g/m*3 23.6 C 9.7 km/h
3087 07-04-2020 18:10:00 23.8 C 7.53 g/m*3 23.8 C 3.2 km/h
3088 07-04-2020 18:15:00 23.9 C 7.57 g/m*3 23.9 C 4.8 km/h
3089 07-04-2020 18:20:00 23.8 C 7.53 g/m*3 23.8 C 8.1 km/h
3090 07-04-2020 18:25:00 23.8 C 7.74 g/m*3 23.8 C 4.8 km/h
3091 07-04-2020 18:30:00 23.6 C 7.66 g/m*3 23.6 C 8.1 km/h
3092 07-04-2020 18:35:00 23.4 C 7.78 g/m*3 23.4 C 9.7 km/h
3093 07-04-2020 18:40:00 23.1 C 7.86 g/m*3 23.1 C 9.7 km/h
3094 07-04-2020 18:45:00 23.1 C 8.27 g/m*3 23.1 C 1.6 km/h
3095 07-04-2020 18:50:00 23 C 7.81 g/m*3 23 C 3.2 km/h
3096 07-04-2020 18:55:00 22.9 C 7.56 g/m*3 22.9 C 6.4 km/h
3097 07-04-2020 19:00:00 22.7 C 7.48 g/m*3 22.7 C 6.4 km/h
3098 07-04-2020 19:05:00 22.7 C 7.68 g/m*3 22.7 C 1.6 km/h
3099 07-04-2020 19:10:00 22.6 C 8.04 g/m*3 22.6 C 1.6 km/h
3100 07-04-2020 19:15:00 22.4 C 8.54 g/m*3 22.4 C 3.2 km/h
Sensor: Nr:Datum:Temp:Abs-Feuchte:Windchill:Wind:
Aussen-T/F 3101 07-04-2020 19:20:00 22.1 C 8.78 g/m*3 22.1 C 3.2 km/h
3102 07-04-2020 19:25:00 21.6 C 8.53 g/m*3 21.6 C 3.2 km/h
3103 07-04-2020 19:30:00 21 C 8.61 g/m*3 21 C 3.2 km/h
3104 07-04-2020 19:35:00 20.4 C 8.67 g/m*3 20.4 C 3.2 km/h
3105 07-04-2020 19:40:00 19.9 C 8.42 g/m*3 19.9 C 6.4 km/h
3106 07-04-2020 19:45:00 19.4 C 8.51 g/m*3 19.4 C 4.8 km/h
3107 07-04-2020 19:50:00 19.1 C 8.36 g/m*3 19.1 C 4.8 km/h
3108 07-04-2020 19:55:00 18.7 C 8.33 g/m*3 18.7 C 6.4 km/h
3109 07-04-2020 20:00:00 18.3 C 8.13 g/m*3 18.3 C 6.4 km/h
3110 07-04-2020 20:05:00 17.9 C 7.94 g/m*3 17.9 C 6.4 km/h
3111 07-04-2020 20:10:00 17.6 C 7.95 g/m*3 17.6 C 4.8 km/h
3112 07-04-2020 20:15:00 17.3 C 7.96 g/m*3 17.3 C 4.8 km/h
3113 07-04-2020 20:20:00 17 C 7.96 g/m*3 17 C 6.4 km/h
3114 07-04-2020 20:25:00 16.8 C 8.01 g/m*3 16.8 C 6.4 km/h
3115 07-04-2020 20:30:00 16.6 C 8.05 g/m*3 16.6 C 6.4 km/h
3116 07-04-2020 20:35:00 16.3 C 7.91 g/m*3 16.3 C 8.1 km/h
3117 07-04-2020 20:40:00 16.2 C 8.14 g/m*3 16.2 C 4.8 km/h
3118 07-04-2020 20:45:00 16 C 8.04 g/m*3 16 C 4.8 km/h
3119 07-04-2020 20:50:00 15.8 C 8.08 g/m*3 15.8 C 4.8 km/h
3120 07-04-2020 20:55:00 15.7 C 8.03 g/m*3 15.7 C 4.8 km/h
3121 07-04-2020 21:00:00 15.6 C 7.98 g/m*3 15.6 C 6.4 km/h
3122 07-04-2020 21:05:00 15.4 C 8.01 g/m*3 15.4 C 6.4 km/h
3123 07-04-2020 21:10:00 15.3 C 8.1 g/m*3 15.3 C 4.8 km/h
3124 07-04-2020 21:15:00 15.2 C 8.18 g/m*3 15.2 C 6.4 km/h
3125 07-04-2020 21:20:00 15.1 C 8.26 g/m*3 15.1 C 6.4 km/h
Sensor: Nr:Datum:Temp:Abs-Feuchte:Windchill:Wind:
Aussen-T/F 3126 07-04-2020 21:25:00 14.9 C 8.16 g/m*3 14.9 C 6.4 km/h
3127 07-04-2020 21:30:00 14.8 C 8.23 g/m*3 14.8 C 4.8 km/h
3128 07-04-2020 21:35:00 14.7 C 8.18 g/m*3 14.7 C 6.4 km/h
3129 07-04-2020 21:40:00 14.7 C 8.31 g/m*3 14.7 C 4.8 km/h
3130 07-04-2020 21:45:00 14.7 C 8.31 g/m*3 14.7 C 4.8 km/h
3131 07-04-2020 21:50:00 14.6 C 8.26 g/m*3 14.6 C 6.4 km/h
3132 07-04-2020 21:55:00 14.5 C 8.33 g/m*3 14.5 C 4.8 km/h
3133 07-04-2020 22:00:00 14.4 C 8.28 g/m*3 14.4 C 4.8 km/h
3134 07-04-2020 22:05:00 14.3 C 8.35 g/m*3 14.3 C 4.8 km/h
3135 07-04-2020 22:10:00 14.1 C 8.25 g/m*3 14.1 C 3.2 km/h
3136 07-04-2020 22:15:00 13.8 C 8.22 g/m*3 13.8 C 0 km/h
3137 07-04-2020 22:20:00 13.7 C 8.29 g/m*3 13.7 C 3.2 km/h
3138 07-04-2020 22:25:00 13.4 C 8.14 g/m*3 13.4 C 3.2 km/h
3139 07-04-2020 22:30:00 13.3 C 8.2 g/m*3 13.3 C 1.6 km/h
3140 07-04-2020 22:35:00 13.2 C 8.27 g/m*3 13.2 C 4.8 km/h
3141 07-04-2020 22:40:00 13.2 C 8.27 g/m*3 13.2 C 1.6 km/h
3142 07-04-2020 22:45:00 13.2 C 8.27 g/m*3 13.2 C 0 km/h
3143 07-04-2020 22:50:00 13.2 C 8.27 g/m*3 13.2 C 3.2 km/h
3144 07-04-2020 22:55:00 13.1 C 8.22 g/m*3 13.1 C 4.8 km/h
3145 07-04-2020 23:00:00 13.1 C 8.22 g/m*3 13.1 C 3.2 km/h
3146 07-04-2020 23:05:00 13.1 C 8.33 g/m*3 13.1 C 1.6 km/h
3147 07-04-2020 23:10:00 13 C 8.28 g/m*3 13 C 3.2 km/h
3148 07-04-2020 23:15:00 13 C 8.39 g/m*3 13 C 4.8 km/h
3149 07-04-2020 23:20:00 13 C 8.39 g/m*3 13 C 4.8 km/h
3150 07-04-2020 23:25:00 13 C 8.39 g/m*3 13 C 4.8 km/h
Sensor: Nr:Datum:Temp:Abs-Feuchte:Windchill:Wind:
Aussen-T/F 3151 07-04-2020 23:30:00 13 C 8.39 g/m*3 13 C 1.6 km/h
3152 07-04-2020 23:35:00 12.9 C 8.34 g/m*3 12.9 C 4.8 km/h
3153 07-04-2020 23:40:00 12.9 C 8.45 g/m*3 12.9 C 4.8 km/h
3154 07-04-2020 23:45:00 12.8 C 8.4 g/m*3 12.8 C 3.2 km/h
3155 07-04-2020 23:50:00 12.8 C 8.4 g/m*3 12.8 C 1.6 km/h
3156 07-04-2020 23:55:00 12.7 C 8.35 g/m*3 12.7 C 1.6 km/h
3157 08-04-2020 00:00:00 12.6 C 8.3 g/m*3 12.6 C 1.6 km/h
3158 08-04-2020 00:05:00 12.4 C 8.3 g/m*3 12.4 C 3.2 km/h
3159 08-04-2020 00:10:00 12.3 C 8.36 g/m*3 12.3 C 3.2 km/h
3160 08-04-2020 00:15:00 12.2 C 8.31 g/m*3 12.2 C 4.8 km/h
3161 08-04-2020 00:20:00 12.2 C 8.42 g/m*3 12.2 C 3.2 km/h
3162 08-04-2020 00:25:00 12.2 C 8.42 g/m*3 12.2 C 4.8 km/h
3163 08-04-2020 00:30:00 12.1 C 8.36 g/m*3 12.1 C 3.2 km/h
3164 08-04-2020 00:35:00 12 C 8.42 g/m*3 12 C 3.2 km/h
3165 08-04-2020 00:40:00 12 C 8.42 g/m*3 12 C 4.8 km/h
3166 08-04-2020 00:45:00 11.9 C 8.37 g/m*3 11.9 C 3.2 km/h
3167 08-04-2020 00:50:00 11.8 C 8.31 g/m*3 11.8 C 1.6 km/h
3168 08-04-2020 00:55:00 11.7 C 8.26 g/m*3 11.7 C 3.2 km/h
3169 08-04-2020 01:00:00 11.5 C 8.26 g/m*3 11.5 C 1.6 km/h
3170 08-04-2020 01:05:00 11.4 C 8.21 g/m*3 11.4 C 1.6 km/h
3171 08-04-2020 01:10:00 11.3 C 8.26 g/m*3 11.3 C 4.8 km/h
3172 08-04-2020 01:15:00 11.3 C 8.16 g/m*3 11.3 C 1.6 km/h
3173 08-04-2020 01:20:00 11.2 C 8.21 g/m*3 11.2 C 3.2 km/h
3174 08-04-2020 01:25:00 11.1 C 8.16 g/m*3 11.1 C 0 km/h
3175 08-04-2020 01:30:00 10.9 C 8.16 g/m*3 10.9 C 0 km/h
Sensor: Nr:Datum:Temp:Abs-Feuchte:Windchill:Wind:
Aussen-T/F 3176 08-04-2020 01:35:00 10.8 C 8.11 g/m*3 10.8 C 1.6 km/h
3177 08-04-2020 01:40:00 10.8 C 8.11 g/m*3 10.8 C 0 km/h
3178 08-04-2020 01:45:00 10.7 C 8.05 g/m*3 10.7 C 0 km/h
3179 08-04-2020 01:50:00 10.5 C 8.05 g/m*3 10.5 C 0 km/h
3180 08-04-2020 01:55:00 10.4 C 8 g/m*3 10.4 C 0 km/h
3181 08-04-2020 02:00:00 10.3 C 7.95 g/m*3 10.3 C 0 km/h
3182 08-04-2020 02:05:00 10.1 C 7.85 g/m*3 10.1 C 0 km/h
3183 08-04-2020 02:10:00 10 C 7.89 g/m*3 10 C 0 km/h
3184 08-04-2020 02:15:00 9.8 C 7.79 g/m*3 9.8 C 0 km/h
3185 08-04-2020 02:20:00 9.6 C 7.79 g/m*3 9.6 C 0 km/h
3186 08-04-2020 02:25:00 9.5 C 7.74 g/m*3 9.5 C 0 km/h
3187 08-04-2020 02:30:00 9.3 C 7.64 g/m*3 9.3 C 0 km/h
3188 08-04-2020 02:35:00 9.2 C 7.68 g/m*3 9.2 C 0 km/h
3189 08-04-2020 02:40:00 9.1 C 7.63 g/m*3 9.1 C 0 km/h
3190 08-04-2020 02:45:00 8.9 C 7.53 g/m*3 8.9 C 0 km/h
3191 08-04-2020 02:50:00 8.8 C 7.57 g/m*3 8.8 C 0 km/h
3192 08-04-2020 02:55:00 8.7 C 7.52 g/m*3 8.7 C 0 km/h
3193 08-04-2020 03:00:00 8.6 C 7.48 g/m*3 8.6 C 0 km/h
3194 08-04-2020 03:05:00 8.3 C 7.33 g/m*3 8.3 C 0 km/h
3195 08-04-2020 03:10:00 8.2 C 7.37 g/m*3 8.2 C 0 km/h
3196 08-04-2020 03:15:00 8.1 C 7.32 g/m*3 8.1 C 0 km/h
3197 08-04-2020 03:20:00 7.9 C 7.23 g/m*3 7.9 C 0 km/h
3198 08-04-2020 03:25:00 7.9 C 7.31 g/m*3 7.9 C 0 km/h
3199 08-04-2020 03:30:00 7.9 C 7.39 g/m*3 7.9 C 0 km/h
3200 08-04-2020 03:35:00 7.9 C 7.39 g/m*3 7.9 C 0 km/h
Sensor: Nr:Datum:Temp:Abs-Feuchte:Windchill:Wind:
Aussen-T/F 3201 08-04-2020 03:40:00 7.8 C 7.35 g/m*3 7.8 C 0 km/h
3202 08-04-2020 03:45:00 7.7 C 7.3 g/m*3 7.7 C 0 km/h
3203 08-04-2020 03:50:00 7.6 C 7.25 g/m*3 7.6 C 0 km/h
3204 08-04-2020 03:55:00 7.5 C 7.2 g/m*3 7.5 C 0 km/h
3205 08-04-2020 04:00:00 7.4 C 7.16 g/m*3 7.4 C 0 km/h
3206 08-04-2020 04:05:00 7.4 C 7.24 g/m*3 7.4 C 0 km/h
3207 08-04-2020 04:10:00 7.4 C 7.24 g/m*3 7.4 C 0 km/h
3208 08-04-2020 04:15:00 7.3 C 7.19 g/m*3 7.3 C 0 km/h
3209 08-04-2020 04:20:00 7.3 C 7.19 g/m*3 7.3 C 0 km/h
3210 08-04-2020 04:25:00 7.2 C 7.22 g/m*3 7.2 C 0 km/h
3211 08-04-2020 04:30:00 7.3 C 7.27 g/m*3 7.3 C 0 km/h
3212 08-04-2020 04:35:00 7.2 C 7.14 g/m*3 7.2 C 0 km/h
3213 08-04-2020 04:40:00 7 C 7.05 g/m*3 7 C 0 km/h
3214 08-04-2020 04:45:00 6.9 C 7.08 g/m*3 6.9 C 0 km/h
3215 08-04-2020 04:50:00 6.9 C 7.08 g/m*3 6.9 C 0 km/h
3216 08-04-2020 04:55:00 6.8 C 7.04 g/m*3 6.8 C 0 km/h
3217 08-04-2020 05:00:00 6.8 C 7.04 g/m*3 6.8 C 0 km/h
3218 08-04-2020 05:05:00 6.8 C 7.04 g/m*3 6.8 C 0 km/h
3219 08-04-2020 05:10:00 6.7 C 6.99 g/m*3 6.7 C 0 km/h
3220 08-04-2020 05:15:00 6.7 C 7.07 g/m*3 6.7 C 0 km/h
3221 08-04-2020 05:20:00 6.6 C 6.95 g/m*3 6.6 C 0 km/h
3222 08-04-2020 05:25:00 6.5 C 6.9 g/m*3 6.5 C 0 km/h
3223 08-04-2020 05:30:00 6.4 C 6.85 g/m*3 6.4 C 0 km/h
3224 08-04-2020 05:35:00 6.4 C 6.93 g/m*3 6.4 C 0 km/h